[[{"header":{"parameterUnit":"m.s-1","parameterCategory":1,"la1":30.6,"la2":28.766,"lo1":-90.7593,"lo2":-88.6598,"dy":0.0162,"dx":0.0183,"nx":116,"ny":114,"refTime":"2024-07-02T00:00:00:Z","depth":0,"parameterNumber":2,"parameterNumberName":"U-component_of_WINDS"},"data":[0.0,0.0,0.0,0.0,0.0,0.0,0.0,0.0,0.0,0.0,0.0,0.0,0.0,0.0,0.0,0.0,0.0,0.0,0.0,0.0,0.0,0.0,0.0,0.0,0.0,0.0,0.0,0.0,0.0,0.0,0.0,0.0,0.0,0.0,0.0,0.0,0.0,0.0,0.0,0.0,0.0,0.0,0.0,0.0,0.0,0.0,0.0,0.0,0.0,0.0,0.0,0.0,0.0,0.0,0.0,0.0,0.0,0.0,0.0,0.0,0.0,0.0,0.0,0.0,0.0,0.0,0.0,0.0,0.0,0.0,0.0,0.0,0.0,0.0,0.0,0.0,0.0,0.0,0.0,0.0,0.0,0.0,0.0,0.0,0.0,0.0,0.0,0.0,0.0,0.0,0.0,0.0,0.0,0.0,0.0,0.0,0.0,0.0,0.0,0.0,0.0,0.0,0.0,0.0,0.0,0.0,0.0,0.0,0.0,0.0,0.0,0.0,0.0,0.0,0.0,0.0,0.0,0.0,0.0,0.0,0.0,0.0,0.0,0.0,0.0,0.0,0.0,0.0,0.0,0.0,0.0,0.0,0.0,0.0,0.0,0.0,0.0,0.0,0.0,0.0,0.0,0.0,0.0,0.0,0.0,0.0,0.0,0.0,0.0,0.0,0.0,0.0,0.0,0.0,0.0,0.0,0.0,0.0,0.0,0.0,0.0,0.0,0.0,0.0,0.0,0.0,0.0,0.0,0.0,0.0,0.0,0.0,0.0,0.0,0.0,0.0,0.0,0.0,0.0,0.0,0.0,0.0,0.0,0.0,0.0,0.0,0.0,0.0,0.0,0.0,0.0,0.0,0.0,0.0,0.0,0.0,0.0,0.0,0.0,0.0,0.0,0.0,0.0,0.0,0.0,0.0,0.0,0.0,0.0,0.0,0.0,0.0,0.0,0.0,0.0,0.0,0.0,0.0,0.0,0.0,0.0,0.0,0.0,0.0,0.0,0.0,0.0,0.0,0.0,0.0,0.0,0.0,0.0,0.0,0.0,0.0,0.0,0.0,0.0,0.0,0.0,0.0,0.0,0.0,0.0,0.0,0.0,0.0,0.0,0.0,0.0,0.0,0.0,0.0,0.0,0.0,0.0,0.0,0.0,0.0,0.0,0.0,0.0,0.0,0.0,0.0,0.0,0.0,0.0,0.0,0.0,0.0,0.0,0.0,0.0,0.0,0.0,0.0,0.0,0.0,0.0,0.0,0.0,0.0,0.0,0.0,0.0,0.0,0.0,0.0,0.0,0.0,0.0,0.0,0.0,0.0,0.0,0.0,0.0,0.0,0.0,0.0,0.0,0.0,0.0,0.0,0.0,0.0,0.0,0.0,0.0,0.0,0.0,0.0,0.0,0.0,0.0,0.0,0.0,0.0,0.0,0.0,0.0,0.0,0.0,0.0,0.0,0.0,0.0,0.0,0.0,0.0,0.0,0.0,0.0,0.0,0.0,0.0,0.0,0.0,0.0,0.0,0.0,0.0,0.0,0.0,0.0,0.0,0.0,0.0,0.0,0.0,0.0,0.0,0.0,0.0,0.0,0.0,0.0,0.0,0.0,0.0,0.0,0.0,0.0,0.0,0.0,0.0,0.0,0.0,0.0,0.0,0.0,0.0,0.0,0.0,0.0,0.0,0.0,0.0,0.0,0.0,0.0,0.0,0.0,0.0,0.0,0.0,0.0,0.0,0.0,0.0,0.0,0.0,0.0,0.0,0.0,0.0,0.0,0.0,0.0,0.0,0.0,0.0,0.0,0.0,0.0,0.0,0.0,0.0,0.0,0.0,0.0,0.0,0.0,0.0,0.0,0.0,0.0,0.0,0.0,0.0,0.0,0.0,0.0,0.0,0.0,0.0,0.0,0.0,0.0,0.0,0.0,0.0,0.0,0.0,0.0,0.0,0.0,0.0,0.0,0.0,0.0,0.0,0.0,0.0,0.0,0.0,0.0,0.0,0.0,0.0,0.0,0.0,0.0,0.0,0.0,0.0,0.0,0.0,0.0,0.0,0.0,0.0,0.0,0.0,0.0,0.0,0.0,0.0,0.0,0.0,0.0,0.0,0.0,0.0,0.0,0.0,0.0,0.0,0.0,0.0,0.0,0.0,0.0,0.0,0.0,0.0,0.0,0.0,0.0,0.0,0.0,0.0,0.0,0.0,0.0,0.0,0.0,0.0,0.0,0.0,0.0,0.0,0.0,0.0,0.0,0.0,0.0,0.0,0.0,0.0,0.0,0.0,0.0,0.0,0.0,0.0,0.0,0.0,0.0,0.0,0.0,0.0,0.0,0.0,0.0,0.0,0.0,0.0,0.0,0.0,0.0,0.0,0.0,0.0,0.0,0.0,0.0,0.0,0.0,0.0,0.0,0.0,0.0,0.0,0.0,0.0,0.0,0.0,0.0,0.0,0.0,0.0,0.0,0.0,0.0,0.0,0.0,0.0,0.0,0.0,0.0,0.0,0.0,0.0,0.0,0.0,0.0,0.0,0.0,0.0,0.0,0.0,0.0,0.0,0.0,0.0,0.0,0.0,0.0,0.0,0.0,0.0,0.0,0.0,0.0,0.0,0.0,0.0,0.0,0.0,0.0,0.0,0.0,0.0,0.0,0.0,0.0,0.0,0.0,0.0,0.0,0.0,0.0,0.0,0.0,0.0,0.0,0.0,0.0,0.0,0.0,0.0,0.0,0.0,0.0,0.0,0.0,0.0,0.0,0.0,0.0,0.0,0.0,0.0,0.0,0.0,0.0,0.0,0.0,0.0,0.0,0.0,0.0,0.0,0.0,0.0,0.0,0.0,0.0,0.0,0.0,0.0,0.0,0.0,0.0,0.0,0.0,0.0,0.0,0.0,0.0,0.0,0.0,0.0,0.0,0.0,0.0,0.0,0.0,0.0,0.0,0.0,0.0,0.0,0.0,0.0,0.0,0.0,0.0,0.0,0.0,0.0,0.0,0.0,0.0,0.0,0.0,0.0,0.0,0.0,0.0,0.0,0.0,0.0,0.0,0.0,0.0,0.0,0.0,0.0,0.0,0.0,0.0,0.0,0.0,0.0,0.0,0.0,0.0,0.0,0.0,0.0,0.0,0.0,0.0,0.0,0.0,0.0,0.0,0.0,0.0,0.0,0.0,0.0,0.0,0.0,0.0,0.0,0.0,0.0,0.0,0.0,0.0,0.0,0.0,0.0,0.0,0.0,0.0,0.0,0.0,0.0,0.0,0.0,0.0,0.0,0.0,0.0,0.0,0.0,0.0,0.0,0.0,0.0,0.0,0.0,0.0,0.0,0.0,0.0,0.0,0.0,0.0,0.0,0.0,0.0,0.0,0.0,0.0,0.0,0.0,0.0,0.0,0.0,0.0,0.0,0.0,0.0,0.0,0.0,0.0,0.0,0.0,0.0,0.0,0.0,0.0,0.0,0.0,0.0,0.0,0.0,0.0,0.0,0.0,0.0,0.0,0.0,0.0,0.0,0.0,0.0,0.0,0.0,0.0,0.0,0.0,0.0,0.0,0.0,0.0,0.0,0.0,0.0,0.0,0.0,0.0,0.0,0.0,0.0,0.0,0.0,0.0,0.0,0.0,0.0,0.0,0.0,0.0,0.0,0.0,0.0,0.0,0.0,0.0,0.0,0.0,0.0,0.0,0.0,0.0,0.0,0.0,0.0,0.0,0.0,0.0,0.0,0.0,0.0,0.0,0.0,0.0,0.0,0.0,0.0,0.0,0.0,0.0,0.0,0.0,0.0,0.0,0.0,0.0,0.0,0.0,0.0,0.0,0.0,0.0,0.0,0.0,0.0,0.0,0.0,0.0,0.0,0.0,0.0,0.0,0.0,0.0,0.0,0.0,0.0,0.0,0.0,0.0,0.0,0.0,0.0,0.0,0.0,0.0,0.0,0.0,0.0,0.0,0.0,0.0,0.0,0.0,0.0,0.0,0.0,0.0,0.0,0.0,0.0,0.0,0.0,0.0,0.0,0.0,0.0,0.0,0.0,0.0,0.0,0.0,0.0,0.0,0.0,0.0,0.0,0.0,0.0,0.0,0.0,0.0,0.0,0.0,0.0,0.0,0.0,0.0,0.0,0.0,0.0,0.0,0.0,0.0,0.0,0.0,0.0,0.0,0.0,0.0,0.0,0.0,0.0,0.0,0.0,0.0,0.0,0.0,0.0,0.0,0.0,0.0,0.0,0.0,0.0,0.0,0.0,0.0,0.0,0.0,0.0,0.0,0.0,0.0,0.0,0.0,0.0,0.0,0.0,0.0,0.0,0.0,0.0,0.0,0.0,0.0,0.0,0.0,0.0,0.0,0.0,0.0,0.0,0.0,0.0,0.0,0.0,0.0,0.0,0.0,0.0,0.0,0.0,0.0,0.0,0.0,0.0,0.0,0.0,0.0,0.0,0.0,0.0,0.0,0.0,0.0,0.0,0.0,0.0,0.0,0.0,0.0,0.0,0.0,0.0,0.0,0.0,0.0,0.0,0.0,0.0,0.0,0.0,0.0,0.0,0.0,0.0,0.0,0.0,0.0,0.0,0.0,0.0,0.0,0.0,0.0,0.0,0.0,0.0,0.0,0.0,0.0,0.0,0.0,0.0,0.0,0.0,0.0,0.0,0.0,0.0,0.0,0.0,0.0,0.0,0.0,0.0,0.0,0.0,0.0,0.0,0.0,0.0,0.0,0.0,0.0,0.0,0.0,0.0,0.0,0.0,0.0,0.0,0.0,0.0,0.0,0.0,0.0,0.0,0.0,0.0,0.0,0.0,0.0,0.0,0.0,0.0,0.0,0.0,0.0,0.0,0.0,0.0,0.0,0.0,0.0,0.0,0.0,0.0,0.0,0.0,0.0,0.0,0.0,0.0,0.0,0.0,0.0,0.0,0.0,0.0,0.0,0.0,0.0,0.0,0.0,0.0,0.0,0.0,0.0,0.0,0.0,0.0,0.0,0.0,0.0,0.0,0.0,0.0,0.0,0.0,0.0,0.0,0.0,0.0,0.0,0.0,0.0,0.0,0.0,0.0,0.0,0.0,0.0,0.0,0.0,0.0,0.0,0.0,0.0,0.0,0.0,0.0,0.0,0.0,0.0,0.0,0.0,0.0,0.0,0.0,0.0,0.0,0.0,0.0,0.0,0.0,0.0,0.0,0.0,0.0,0.0,0.0,0.0,0.0,0.0,0.0,0.0,0.0,0.0,0.0,0.0,0.0,0.0,0.0,0.0,0.0,0.0,0.0,0.0,0.0,0.0,0.0,0.0,0.0,0.0,0.0,0.0,0.0,0.0,0.0,0.0,0.0,0.0,0.0,0.0,0.0,0.0,0.0,0.0,0.0,0.0,0.0,0.0,0.0,0.0,0.0,0.0,0.0,0.0,0.0,0.0,0.0,0.0,0.0,0.0,0.0,0.0,0.0,0.0,0.0,0.0,0.0,0.0,0.0,0.0,0.0,0.0,0.0,0.0,0.0,0.0,0.0,0.0,0.0,0.0,0.0,0.0,0.0,0.0,0.0,0.0,0.0,0.0,0.0,0.0,0.0,0.0,0.0,0.0,0.0,0.0,0.0,0.0,0.0,0.0,0.0,0.0,0.0,0.0,0.0,0.0,0.0,0.0,0.0,0.0,0.0,0.0,0.0,0.0,0.0,0.0,0.0,0.0,0.0,0.0,0.0,0.0,0.0,0.0,0.0,0.0,0.0,0.0,0.0,0.0,0.0,0.0,0.0,0.0,0.0,0.0,0.0,0.0,0.0,0.0,0.0,0.0,0.0,0.0,0.0,0.0,0.0,0.0,0.0,0.0,0.0,0.0,0.0,0.0,0.0,0.0,0.0,0.0,0.0,0.0,0.0,0.0,0.0,0.0,0.0,0.0,0.0,0.0,0.0,0.0,0.0,0.0,0.0,0.0,0.0,0.0,0.0,0.0,0.0,0.0,0.0,0.0,0.0,0.0,0.0,0.0,0.0,0.0,0.0,0.0,0.0,0.0,0.0,0.0,0.0,0.0,0.0,0.0,0.0,0.0,0.0,0.0,0.0,0.0,0.0,0.0,0.0,0.0,0.0,0.0,0.0,0.0,0.0,-1.0511,-1.0431,0.0,0.0,0.0,0.0,0.0,0.0,0.0,0.0,0.0,0.0,0.0,0.0,0.0,0.0,0.0,0.0,0.0,0.0,0.0,0.0,0.0,0.0,0.0,-0.9126,-0.8994,-0.8602,-0.8511,-0.8307,-0.7924,0.0,0.0,0.0,0.0,0.0,-0.8757,-0.8757,-0.8731,-0.8699,-0.8699,-0.8699,-0.8707,-0.9058,-0.8835,-0.8113,0.0,0.0,0.0,0.0,0.0,0.0,0.0,0.0,0.0,0.0,0.0,0.0,0.0,0.0,0.0,0.0,0.0,0.0,0.0,0.0,0.0,0.0,0.0,0.0,0.0,0.0,0.0,0.0,0.0,0.0,0.0,0.0,0.0,0.0,0.0,0.0,0.0,0.0,0.0,0.0,0.0,0.0,0.0,0.0,0.0,0.0,0.0,0.0,0.0,0.0,0.0,0.0,0.0,0.0,0.0,0.0,0.0,0.0,0.0,0.0,0.0,0.0,0.0,0.0,0.0,0.0,0.0,0.0,0.0,0.0,-1.1521,-1.1153,0.0,0.0,0.0,0.0,0.0,0.0,0.0,0.0,0.0,0.0,0.0,0.0,0.0,0.0,0.0,0.0,0.0,0.0,0.0,0.0,0.0,-0.9114,-0.91,-0.9149,-0.8913,-0.8238,-0.8125,-0.7808,-0.7149,-0.7649,0.0,0.0,0.0,-0.8757,-0.8699,-0.8829,-0.8887,-0.8887,-0.9019,-0.9085,-0.9093,-0.9706,-0.9673,-0.9085,-0.907,0.0,0.0,0.0,0.0,0.0,0.0,0.0,0.0,0.0,0.0,0.0,0.0,0.0,0.0,0.0,0.0,0.0,0.0,0.0,0.0,0.0,0.0,0.0,0.0,0.0,0.0,0.0,0.0,0.0,0.0,0.0,0.0,0.0,0.0,0.0,0.0,0.0,0.0,0.0,0.0,0.0,0.0,0.0,0.0,0.0,0.0,0.0,0.0,0.0,0.0,0.0,0.0,0.0,0.0,0.0,0.0,0.0,0.0,0.0,0.0,0.0,0.0,0.0,-1.46,-1.4948,-1.494,-1.4833,-1.4766,-1.4663,-1.2783,-1.2299,-1.2812,-1.2205,0.0,0.0,0.0,0.0,0.0,0.0,0.0,0.0,0.0,0.0,0.0,0.0,0.0,0.0,0.0,0.0,0.0,0.0,0.0,-0.9164,-0.9106,-0.9111,-0.9047,-0.8881,-0.8861,-0.8812,-0.8709,-0.8681,0.0,0.0,-0.8689,-0.8705,-0.8699,-0.9327,-0.9655,-0.9655,-1.0294,-1.0609,-1.0609,-1.0716,-1.07,-1.0609,-1.0549,-1.049,-1.0375,0.0,0.0,0.0,0.0,0.0,0.0,0.0,0.0,0.0,0.0,0.0,0.0,0.0,0.0,0.0,0.0,0.0,0.0,0.0,0.0,0.0,0.0,0.0,0.0,0.0,0.0,0.0,0.0,0.0,0.0,0.0,0.0,0.0,0.0,0.0,0.0,0.0,0.0,0.0,0.0,0.0,-0.73,-0.855,0.0,0.0,0.0,0.0,0.0,0.0,0.0,0.0,0.0,0.0,0.0,0.0,0.0,-1.3439,-1.4166,-1.4849,-1.5236,-1.5331,-1.601,-1.6341,-1.6325,-1.5722,-1.5466,-1.5418,-1.4545,0.0,-1.4316,-1.4221,0.0,0.0,0.0,0.0,0.0,0.0,0.0,0.0,0.0,0.0,0.0,0.0,0.0,0.0,0.0,0.0,0.0,0.0,0.0,0.0,0.0,-0.9064,-0.9033,-0.9002,-0.9,-0.9004,-0.9001,-0.9299,-0.9475,-0.9475,-0.9805,-0.9997,-0.9997,-1.0267,-1.0417,-1.0417,-1.074,-1.0906,-1.0914,-1.1321,-1.1496,-1.148,-1.1835,-1.1482,-1.059,-0.9744,0.0,0.0,0.0,0.0,0.0,0.0,0.0,0.0,0.0,0.0,0.0,0.0,0.0,0.0,0.0,0.0,0.0,0.0,0.0,0.0,0.0,0.0,0.0,0.0,0.0,0.0,0.0,0.0,0.0,0.0,0.0,0.0,0.0,0.0,0.0,0.0,0.0,0.0,0.0,-0.761,-0.8595,-0.9599,-0.9491,-0.9577,0.0,0.0,0.0,0.0,0.0,0.0,0.0,0.0,0.0,-1.4216,-1.4533,-1.5216,-1.6325,-1.6625,-1.697,-1.735,-1.765,-1.7778,-1.777,-1.7484,-1.7334,-1.7326,-1.7117,-1.7024,-1.6884,-1.5272,-1.4237,-1.3636,0.0,0.0,0.0,0.0,-1.3317,-1.398,0.0,0.0,0.0,0.0,0.0,0.0,0.0,0.0,0.0,0.0,0.0,0.0,-0.9102,-0.9036,-0.8988,-0.8978,-0.897,-0.8976,0.0,-0.9428,-0.9777,-0.9969,-1.0443,-1.0775,-1.0974,-1.1112,-1.1271,-1.1462,-1.1462,-1.1462,-1.147,-1.2025,-1.2248,-1.2206,-1.2693,-1.2236,-1.1049,-1.016,-0.9725,0.0,0.0,0.0,0.0,0.0,0.0,0.0,0.0,0.0,0.0,0.0,0.0,0.0,0.0,0.0,0.0,0.0,0.0,0.0,0.0,0.0,0.0,0.0,0.0,0.0,0.0,0.0,0.0,0.0,0.0,0.0,0.0,0.0,0.0,0.0,0.0,0.0,0.0,-0.884,-0.9483,-1.0377,-1.0356,-1.0466,0.0,0.0,0.0,0.0,0.0,0.0,-1.3976,-1.4379,-1.5051,-1.6093,-1.6291,-1.6899,-1.7952,-1.8141,-1.8488,-1.8978,-1.9167,-1.9238,-1.9238,-1.9064,-1.8985,-1.8977,-1.8915,-1.8902,-1.8728,-1.6595,-1.5614,-1.5392,-1.4906,-1.5048,-1.5482,-1.5037,-1.5348,-1.6002,0.0,0.0,0.0,0.0,0.0,0.0,0.0,0.0,0.0,0.0,0.0,-0.9173,-0.9107,-0.9039,-0.8972,-0.8911,-0.8908,-0.8903,0.0,0.0,-0.9171,-0.9875,-0.9879,-1.0192,-1.089,-1.1586,-1.229,-1.2985,-1.2985,-1.2985,-1.2985,-1.3027,-1.3008,-1.2947,-1.2914,-1.2753,-1.2439,-1.1504,-1.1063,-1.0868,0.0,0.0,0.0,0.0,0.0,0.0,0.0,0.0,0.0,0.0,0.0,0.0,0.0,0.0,0.0,0.0,0.0,0.0,0.0,0.0,0.0,0.0,0.0,0.0,0.0,0.0,0.0,0.0,0.0,0.0,0.0,0.0,0.0,0.0,0.0,0.0,0.0,0.0,0.0,-1.1092,-1.0738,0.0,0.0,0.0,0.0,-1.4339,-1.5031,-1.5418,-1.5489,-1.6765,-1.7525,-1.7596,-1.8204,-1.8582,-1.8653,-1.9333,-1.9704,-1.9744,-2.0391,-2.0684,-2.0668,-2.0044,-1.9736,-1.9712,-1.9145,-1.8902,-1.8886,-1.8807,-1.8371,-1.774,-1.77,-1.7754,-1.7829,-1.7797,-1.8302,-1.8975,0.0,0.0,0.0,-0.9372,-0.9417,-0.9444,-0.9372,-0.939,-0.9394,-0.9366,-0.9305,-0.9225,0.0,-0.9039,-0.8972,-0.8911,-0.8903,-0.89,-0.8903,0.0,-0.9838,-1.0574,-1.1047,-1.1609,-1.2298,-1.2563,-1.2845,-1.3101,-1.3101,-1.3101,-1.3101,-1.3101,-1.304,-1.2925,-1.2822,-1.2662,-1.2418,-1.1557,-1.1116,-1.0884,-0.9884,-0.922,0.0,0.0,0.0,0.0,0.0,0.0,0.0,0.0,0.0,0.0,0.0,0.0,0.0,0.0,0.0,0.0,0.0,0.0,0.0,0.0,0.0,0.0,0.0,0.0,0.0,0.0,0.0,0.0,0.0,0.0,0.0,0.0,0.0,0.0,0.0,0.0,0.0,-1.319,-1.3167,0.0,-1.4104,-1.4371,-1.4877,-1.5812,-1.6546,-1.7144,-1.7571,-1.8076,-1.8559,-1.9033,-1.9278,-1.9625,-2.0044,-2.0304,-2.0439,-2.0447,-2.0684,-2.0794,-2.0786,-2.0549,-2.0439,-2.0447,-2.0353,-2.032,-2.0312,-2.0427,-1.9742,-1.8617,-1.8654,-1.8708,-1.8783,-1.8819,-1.9044,-1.9333,-0.9448,-0.9466,0.0,-0.9443,-0.9492,-0.9514,-0.9443,-0.9439,-0.9426,-0.9403,-0.9338,-0.9248,-0.9112,-0.9042,-0.897,-0.8911,-0.8903,-0.8903,-0.8903,-0.9299,-0.9971,-1.0958,-1.1915,-1.2656,-1.3084,-1.3101,-1.3101,-1.3101,-1.3101,-1.3101,-1.3101,-1.3075,-1.3012,-1.2887,-1.2739,-1.2547,-1.2302,-1.1743,-1.1393,-1.1142,-1.0398,-0.9823,-0.9376,0.0,0.0,0.0,0.0,0.0,0.0,0.0,0.0,0.0,0.0,0.0,0.0,0.0,0.0,0.0,0.0,0.0,0.0,0.0,0.0,0.0,0.0,0.0,0.0,0.0,0.0,0.0,0.0,0.0,0.0,0.0,0.0,0.0,0.0,-1.2279,-1.324,-1.4703,-1.4869,-1.5078,-1.5599,-1.6046,-1.6591,-1.7257,-1.7991,-1.8599,-1.9056,-1.9293,-1.9633,-2.0123,-2.0146,-2.0352,-2.0794,-2.0794,-2.0794,-2.0794,-2.0794,-2.0794,-2.0794,-2.0794,-2.0811,-2.0836,-2.103,-2.1103,-2.1135,-2.1246,-2.0697,-1.9782,-1.982,-1.9871,-1.995,-1.9988,-2.0068,-2.014,-0.9501,-0.9496,-0.9504,-0.9508,-0.9561,-0.9578,-0.9513,-0.9504,-0.9474,-0.9408,-0.9339,-0.9243,-0.9112,-0.9043,-0.8973,-0.8905,-0.8903,-0.8894,-0.8894,-0.8859,-0.9492,-1.0972,-1.2365,-1.3101,-1.3101,-1.3101,-1.3101,-1.3101,-1.3101,-1.3101,-1.3101,-1.3031,-1.2975,-1.2925,-1.2716,-1.2485,-1.2228,-1.2166,-1.2003,-1.1723,-1.1008,-1.0668,-1.0526,0.0,0.0,0.0,0.0,0.0,0.0,0.0,0.0,0.0,0.0,0.0,0.0,0.0,0.0,0.0,0.0,0.0,0.0,0.0,0.0,0.0,0.0,0.0,0.0,0.0,0.0,0.0,0.0,0.0,0.0,0.0,0.0,0.0,-1.2599,-1.317,-1.4122,-1.5529,-1.5695,-1.6228,-1.7604,-1.7754,-1.8038,-1.8693,-1.9427,-1.9838,-1.9838,-2.0447,-2.0794,-2.0794,-2.0794,-2.0794,-2.0794,-2.0794,-2.0794,-2.0803,-2.0803,-2.0811,-2.0811,-2.0811,-2.0836,-2.0918,-2.1054,-2.1135,-2.1215,-2.127,-2.1293,-2.1293,-2.1293,-2.1356,-2.1402,-2.1402,-2.1495,-2.1604,-0.9505,-0.9535,-0.9578,-0.9574,-0.9586,-0.9599,-0.9573,-0.9533,-0.9491,-0.9475,-0.9326,-0.9196,-0.9112,-0.9043,-0.8973,-0.8905,-0.8903,-0.8883,-0.8832,-0.9305,-1.0229,-1.166,-1.2605,-1.3101,-1.3101,-1.3101,-1.3101,-1.3101,-1.3101,-1.3101,-1.3101,-1.3031,-1.3219,-1.3609,-1.3358,-1.316,-1.2983,-1.2772,-1.228,-1.163,-1.1384,-1.0947,-1.0418,0.0,0.0,0.0,0.0,0.0,0.0,0.0,0.0,0.0,0.0,0.0,0.0,0.0,0.0,0.0,0.0,0.0,0.0,0.0,0.0,0.0,0.0,0.0,0.0,0.0,0.0,0.0,0.0,0.0,0.0,0.0,-1.351,-1.4754,-1.4754,-1.5327,-1.627,-1.7681,-1.7847,-1.7997,-1.8386,-1.8907,-1.9294,-1.9475,-2.0138,-2.0526,-2.0526,-2.0699,-2.0794,-2.0794,-2.0794,-2.0794,-2.0794,-2.0794,-2.0819,-2.0869,-2.0869,-2.0925,-2.1014,-2.1014,-2.103,-2.1054,-2.1143,-2.1183,-2.1215,-2.1324,-2.1371,-2.1371,-2.1371,-2.1449,-2.1557,-2.1595,-2.1663,-2.1746,-0.9547,-0.9598,-0.9638,-0.9646,-0.9641,-0.9641,-0.9638,-0.9584,-0.9531,-0.9501,-0.9325,-0.9175,-0.9109,-0.901,-0.8942,-0.8905,-0.8897,-0.9012,-0.9285,-1.0262,-1.1168,-1.1967,0.0,-1.3101,-1.3101,-1.3101,-1.3101,-1.3101,-1.3101,-1.3241,-1.352,-1.3427,-1.3677,-1.4221,-1.3949,-1.3758,-1.3625,-1.3387,-1.2942,-1.2358,-1.1927,-1.131,-1.0636,-1.0469,-1.0003,-0.9453,-0.9447,-0.9319,-0.9074,-0.873,0.0,0.0,0.0,0.0,0.0,0.0,0.0,0.0,0.0,0.0,0.0,0.0,0.0,0.0,0.0,0.0,0.0,0.0,0.0,0.0,0.0,0.0,0.0,0.0,-1.5228,-1.633,-1.7223,-1.7436,-1.7896,-1.904,-1.9152,-1.9277,-1.9554,-1.9973,-2.0217,-2.0217,-2.0581,-2.0794,-2.0794,-2.0794,-2.0794,-2.0794,-2.0794,-2.0794,-2.0794,-2.0794,-2.0828,-2.0893,-2.0893,-2.0974,-2.1095,-2.1095,-2.1127,-2.1151,-2.1207,-2.1262,-2.1285,-2.1433,-2.148,-2.148,0.0,0.0,0.0,0.0,-2.1768,-2.1804,-0.9609,-0.9658,-0.97,-0.9705,-0.9695,-0.9697,-0.9697,-0.964,-0.9579,-0.9506,-0.9324,-0.9178,-0.912,-0.8991,-0.8911,-0.8911,-0.8911,-0.9255,-1.0059,-1.1362,-1.2107,-1.2116,-1.2745,-1.3101,-1.3101,-1.3101,0.0,0.0,0.0,0.0,0.0,-1.3962,-1.4218,-1.4791,-1.4523,-1.4327,-1.4195,-1.397,-1.3716,-1.339,-1.2536,-1.1733,-1.1065,-1.0864,-1.0403,-0.988,-0.988,-0.9529,-0.9059,-0.9002,0.0,0.0,0.0,0.0,0.0,0.0,0.0,0.0,0.0,0.0,0.0,0.0,0.0,0.0,0.0,0.0,0.0,0.0,0.0,0.0,0.0,0.0,0.0,0.0,-1.678,-1.7606,-1.9523,-1.9294,-1.919,-1.9838,-1.9917,-2.0146,-2.0739,-2.0794,-2.0794,-2.0794,-2.0794,-2.0794,-2.0794,-2.0794,0.0,0.0,0.0,-2.0811,-2.0811,-2.0835,-2.0876,-2.0934,-2.0934,-2.1006,-2.1135,-2.1135,-2.1175,-2.1247,-2.1309,-2.1371,-2.1425,-2.1557,-2.162,-2.1612,-2.1612,-2.1657,-2.1716,-2.1783,-2.1804,-2.1804,-0.9666,-0.9694,-0.9704,-0.9704,-0.9697,-0.9705,-0.9701,-0.9638,-0.9574,-0.9509,-0.9321,-0.919,-0.9178,-0.9065,-0.8986,-0.8986,-0.8981,-0.9502,0.0,0.0,-1.234,-1.2861,-1.3018,-1.3101,0.0,0.0,0.0,0.0,0.0,0.0,0.0,0.0,-1.4452,-1.5407,-1.5152,-1.495,-1.4818,-1.45,-1.3934,-1.3214,-1.282,-1.2254,-1.1573,-1.0907,-1.0516,-1.0362,-1.0362,-1.0253,-1.0044,-0.9608,-0.9433,-0.9318,-0.8839,0.0,0.0,0.0,0.0,0.0,0.0,0.0,0.0,0.0,0.0,0.0,0.0,0.0,0.0,0.0,0.0,0.0,0.0,0.0,0.0,-1.6259,-1.7885,-1.9209,-1.9728,-2.0146,-2.0447,-2.0589,-2.0605,-2.0652,-2.0786,-2.0794,-2.0794,-2.0794,-2.0794,-2.0794,-2.0794,-2.0794,-2.0794,-2.0794,-2.0844,-2.0885,-2.0885,-2.0982,-2.1079,-2.1135,-2.1135,0.0,-2.134,-2.134,-2.1411,-2.152,-2.1543,-2.155,-2.1566,-2.1649,-2.1716,-2.1761,-2.1701,-2.1716,-2.1783,-2.1797,-2.1804,-2.1804,-0.9687,-0.9697,-0.9703,-0.9702,-0.9699,-0.9697,-0.9695,-0.9642,-0.9578,-0.9508,-0.9358,-0.9236,-0.9203,-0.9106,-0.9037,-0.9002,-0.9676,0.0,0.0,-1.2054,-1.2798,-1.3146,0.0,0.0,0.0,0.0,0.0,0.0,0.0,0.0,0.0,0.0,-1.5338,-1.6042,-1.5811,-1.5591,-1.5372,-1.507,-1.4616,-1.4049,-1.3437,-1.2939,-1.2435,-1.1355,-1.0905,-1.08,-1.0505,-1.0362,-1.026,-0.9986,-0.9857,-0.9711,-0.9207,-0.893,-0.8766,0.0,0.0,0.0,0.0,0.0,0.0,0.0,0.0,0.0,0.0,0.0,0.0,0.0,0.0,-1.2621,-1.3822,0.0,-1.6086,-1.7254,-1.8662,-1.9759,-2.0233,-2.0589,-2.0794,-2.0794,-2.0794,-2.0803,-2.0852,-2.0844,-2.0844,-2.0844,-2.0844,-2.0836,-2.0794,-2.0836,-2.0844,-2.0844,-2.0949,-2.1006,-2.1006,-2.107,-2.1135,-2.1199,-2.1199,-2.1278,-2.1402,-2.1402,-2.1464,-2.1604,-2.1642,-2.1657,-2.1657,-2.1716,-2.1768,-2.1797,-2.1759,-2.1768,-2.1804,-2.1804,-2.1804,-2.1804,-0.9665,-0.9686,-0.9708,-0.9715,-0.971,-0.9702,-0.9703,-0.9658,-0.9595,-0.9526,-0.9408,-0.9294,-0.9227,-0.9159,-0.9145,0.0,0.0,0.0,0.0,0.0,0.0,0.0,0.0,0.0,0.0,0.0,0.0,0.0,0.0,0.0,0.0,0.0,0.0,-1.6474,-1.6289,-1.6026,-1.5726,-1.547,-1.5209,-1.4878,-1.4059,-1.3591,-1.3282,-1.207,-1.1439,-1.1135,-1.0645,-1.0346,-1.0173,-1.0173,-1.0129,-0.9989,-0.9583,-0.9499,-0.9501,-0.9169,-0.9174,0.0,0.0,0.0,0.0,0.0,0.0,0.0,0.0,-1.2284,-1.2748,-1.2999,-1.3444,-1.405,-1.4949,-1.5845,-1.6888,-1.8236,-1.9202,-2.0002,-2.0691,-2.0811,-2.0819,-2.0819,-2.0819,-2.0852,-2.0926,-2.095,-2.095,-2.095,-2.095,-2.0925,-2.0851,-2.0909,-2.095,-2.095,-2.1063,-2.1135,-2.1135,-2.1183,-2.1223,-2.1278,-2.1278,-2.1341,-2.1472,-2.1472,-2.1526,-2.1642,-2.1694,-2.1716,-2.1723,-2.1783,-2.1804,-2.1804,-2.1804,-2.1804,-2.1804,-2.1804,-2.1804,-2.1804,-0.9608,-0.9657,-0.9721,-0.9774,-0.9741,-0.9697,-0.9706,-0.9693,-0.9663,-0.96,-0.9474,-0.9367,-0.9294,-0.9231,-0.94,-0.9928,0.0,0.0,0.0,0.0,0.0,0.0,0.0,0.0,0.0,0.0,0.0,0.0,0.0,0.0,0.0,0.0,0.0,-1.6412,-1.6262,-1.5941,-1.5514,-1.5306,-1.504,-1.47,-1.4299,-1.4005,-1.3743,-1.2992,-1.2098,-1.1187,-1.1115,-1.0664,-1.011,-1.011,-1.0027,-0.9938,-0.9995,-0.974,-0.9463,-0.9642,0.0,-0.9243,-0.9368,-1.0321,-1.1576,-1.2776,-1.3074,-1.3096,0.0,-1.3254,-1.3486,-1.4152,-1.4348,-1.4632,-1.5394,-1.6713,-1.7843,-1.8254,-1.9487,-2.0484,-2.0762,-2.0844,-2.0885,-2.0885,-2.0885,-2.0934,-2.107,-2.1087,-2.1087,-2.1087,-2.1087,-2.107,-2.107,-2.107,-2.1087,-2.1087,-2.1207,-2.127,-2.127,-2.1458,-2.1543,-2.1559,-2.1559,-2.1588,-2.1671,-2.1671,-2.1716,-2.1783,-2.1797,-2.1789,-2.1789,-2.1797,-2.1804,-2.1804,-2.1804,-2.1804,-2.1804,-2.1804,-2.1804,-2.1804,-0.9605,-0.9624,-0.9659,-0.9734,-0.9723,-0.971,-0.975,-0.9719,-0.9674,-0.9608,-0.9521,-0.9435,-0.9362,-0.923,-0.9399,-1.0043,-1.0769,-1.1505,-1.2214,-1.2916,0.0,0.0,0.0,0.0,0.0,0.0,0.0,0.0,0.0,0.0,0.0,0.0,0.0,-1.639,-1.6179,-1.584,-1.5426,-1.5194,-1.4882,-1.4569,-1.4303,-1.4072,-1.3878,-1.3556,-1.269,-1.1617,-1.1312,-1.0742,0.0,0.0,-1.0046,-0.997,-1.0021,-1.0012,-1.0024,-1.0209,-1.0281,0.0,-1.0897,-1.1462,-1.2213,-1.3494,-1.3803,-1.3911,-1.4356,-1.4457,-1.4551,-1.4885,-1.4965,-1.5206,-1.5979,-1.707,-1.8075,-1.8777,-1.9862,-2.0669,-2.0836,-2.0949,-2.1038,-2.1079,-2.1119,-2.1143,-2.1159,-2.1159,-2.1159,-2.1159,-2.1159,-2.1135,-2.1095,-2.1135,-2.1175,-2.1215,-2.1309,-2.1395,-2.1465,-2.1559,-2.1604,-2.1604,-2.1604,-2.1642,-2.1701,-2.1701,-2.1746,-2.1804,-2.1804,-2.1804,-2.1804,-2.1804,-2.1804,-2.1804,-2.1804,-2.1804,-2.1804,-2.1804,-2.1804,-2.1804,-0.9576,-0.9591,-0.9619,-0.9665,-0.9682,-0.9715,-0.9762,-0.9727,-0.9671,-0.9607,-0.9546,-0.9461,-0.9351,-0.9392,-0.9695,-1.0355,-1.1092,-1.1835,-1.2558,-1.3058,-1.332,-1.3303,0.0,0.0,0.0,0.0,0.0,0.0,0.0,0.0,0.0,0.0,0.0,-1.6363,-1.6108,-1.5754,-1.5321,-1.505,-1.4735,-1.4404,-1.4206,-1.4023,-1.3845,-1.3631,-1.2919,-1.1955,-1.1566,-1.0892,0.0,0.0,-1.0065,-1.0034,-1.0053,-1.0224,-1.0461,-1.0627,-1.1014,-1.1569,-1.2456,-1.2669,-1.2912,-1.4019,-1.4289,-1.4446,-1.4986,-1.5124,-1.5154,-1.5253,-1.5268,-1.5525,-1.6346,-1.721,-1.8126,-1.9138,-2.0065,-2.0703,-2.0885,-2.1014,-2.1135,-2.1215,-2.1294,-2.1317,-2.1302,-2.1302,-2.1302,-2.1302,-2.1302,-2.1286,-2.1247,-2.1278,-2.1333,-2.1379,-2.1449,-2.1526,-2.1635,-2.1642,-2.1657,-2.1657,-2.1657,-2.1679,-2.1731,-2.1731,-2.1753,-2.1804,-2.1804,-2.1804,-2.1804,-2.1804,-2.1804,-2.1804,-2.1804,-2.1804,-2.1804,-2.1804,-2.1804,-2.1804,-0.9513,-0.9559,-0.9604,-0.9597,-0.9653,-0.9702,-0.9699,-0.9704,-0.9675,-0.9607,-0.9543,-0.943,-0.9228,-0.9836,-1.0516,-1.1111,-1.1902,-1.2646,-1.332,-1.3388,-1.3371,-1.3303,-1.3295,0.0,0.0,0.0,0.0,0.0,0.0,0.0,0.0,0.0,0.0,-1.6293,-1.6094,-1.5704,-1.5185,-1.4917,-1.4581,-1.4187,-1.3997,-1.3864,-1.3739,-1.3157,-1.2546,-1.2007,-1.1973,0.0,0.0,0.0,-1.0103,-1.011,-1.0173,-1.0337,0.0,-1.0808,-1.1453,-1.2334,-1.3608,-1.3854,-1.3915,-1.4612,-1.478,-1.4796,-1.4894,-1.4917,-1.4963,-1.5154,-1.52,-1.5464,-1.6346,-1.721,-1.8126,-1.9138,-1.9974,-2.0604,-2.0869,-2.1014,-2.1143,-2.127,-2.1356,-2.1449,-2.1589,-2.1589,-2.1589,-2.1589,-2.1589,-2.1589,-2.1581,-2.1589,-2.1589,-2.1581,-2.1664,-2.1686,-2.1694,-2.1753,-2.1789,-2.1789,-2.1789,-2.1789,-2.1797,-2.1797,-2.1804,-2.1804,-2.1804,-2.1804,-2.1804,-2.1804,-2.1804,-2.1804,-2.1804,-2.1804,-2.1804,-2.1804,-2.1804,-2.1804,-0.957,-0.962,-0.9666,-0.9665,-0.9723,-0.9752,-0.9708,-0.9704,-0.9693,-0.9671,-0.9532,0.0,0.0,0.0,0.0,0.0,-1.2246,-1.2677,-1.3362,-1.3446,-1.3438,-1.3362,-1.3371,-1.3683,0.0,0.0,0.0,0.0,0.0,0.0,0.0,0.0,0.0,-1.6279,-1.5897,-1.5544,-1.5162,-1.4765,-1.4449,-1.4187,-1.398,-1.3864,-1.3739,-1.3137,-1.2548,-1.2013,0.0,0.0,0.0,0.0,-1.0129,-1.0173,-1.0193,0.0,0.0,-1.1368,-1.2004,-1.2664,-1.3395,-1.3505,-1.3552,-1.4233,-1.4406,-1.4431,-1.4601,-1.4702,-1.4825,-1.5034,-1.514,-1.5464,-1.6346,-1.7146,-1.8005,-1.9,-1.9917,-2.0579,-2.0869,-2.1087,-2.1262,-2.1356,-2.1502,-2.1625,-2.1664,-2.1635,-2.1604,-2.1604,-2.1604,-2.1604,-2.1604,-2.1604,-2.1612,-2.1664,-2.1694,-2.1716,-2.1768,-2.1789,-2.1804,-2.1804,-2.1804,-2.1804,-2.1804,-2.1804,-2.1804,-2.1804,-2.1804,-2.1804,-2.1804,-2.1804,-2.1804,-2.1804,-2.1804,-2.1804,-2.1804,-2.1804,-2.1804,-2.1804,-0.9629,-0.9669,-0.9703,-0.9703,-0.9758,0.0,0.0,0.0,0.0,0.0,0.0,0.0,0.0,0.0,0.0,0.0,0.0,-1.3015,-1.3436,-1.3512,-1.3521,-1.3471,-1.3455,-1.3752,-1.4418,-1.4831,-1.5384,0.0,0.0,0.0,0.0,0.0,0.0,0.0,-1.5876,-1.5522,-1.5162,-1.4749,-1.4433,-1.4199,-1.3784,-1.3591,-1.345,-1.267,-1.2159,0.0,0.0,0.0,0.0,-1.0224,-1.0218,-1.0268,-1.0268,0.0,0.0,-1.2196,-1.2712,-1.3087,-1.3493,-1.3532,-1.3547,-1.3963,-1.4072,-1.4147,-1.4353,-1.4504,-1.4669,-1.4912,-1.5087,-1.5464,-1.6346,-1.7139,-1.7988,-1.8942,-1.9892,-2.0579,-2.0869,-2.1127,-2.134,-2.1464,-2.161,-2.1716,-2.1723,-2.1694,-2.1664,-2.1664,-2.1664,-2.1664,-2.1664,-2.1664,-2.1694,-2.1723,-2.1746,-2.1761,-2.1804,-2.1804,-2.1804,-2.1804,-2.1804,-2.1804,-2.1804,-2.1804,-2.1804,-2.1804,-2.1804,-2.1804,-2.1804,-2.1804,-2.1804,-2.1804,-2.1804,-2.1804,-2.1804,-2.1804,-2.1804,-2.1804,-0.9692,-0.9708,-0.97,0.0,0.0,0.0,0.0,0.0,0.0,0.0,0.0,0.0,0.0,0.0,0.0,0.0,0.0,0.0,-1.3603,0.0,0.0,-1.3595,-1.3545,-1.3794,-1.4424,-1.4427,-1.4749,0.0,0.0,0.0,0.0,0.0,0.0,0.0,-1.592,-1.5543,-1.5084,-1.4756,-1.4453,-1.4151,-1.3376,-1.3065,-1.2954,-1.1836,0.0,0.0,0.0,0.0,0.0,0.0,0.0,0.0,0.0,0.0,0.0,-1.3175,-1.3523,-1.3605,-1.3918,-1.3937,-1.3864,-1.3804,-1.3848,-1.3947,-1.4154,-1.431,-1.4495,-1.4832,-1.5071,-1.5457,-1.6302,-1.7158,-1.8033,-1.8913,-1.9838,-2.0564,-2.0861,-2.1143,-2.1379,-2.1581,-2.1664,-2.1731,-2.1789,-2.1804,-2.1804,-2.1804,-2.1804,-2.1804,-2.1804,-2.1804,-2.1804,-2.1804,-2.1804,-2.1804,-2.1804,-2.1804,-2.1804,-2.1804,-2.1804,-2.1804,-2.1804,-2.1804,-2.1804,-2.1804,-2.1804,-2.1804,-2.1804,-2.1804,-2.1804,-2.1804,-2.1804,-2.1804,-2.1804,-2.1804,-2.1804,-2.1804,0.0,0.0,0.0,0.0,0.0,0.0,0.0,0.0,0.0,0.0,0.0,0.0,0.0,0.0,0.0,0.0,0.0,0.0,-1.3598,0.0,0.0,0.0,0.0,0.0,-1.3684,-1.4202,0.0,0.0,0.0,0.0,0.0,0.0,0.0,0.0,0.0,-1.4163,-1.3834,-1.3558,-1.3339,-1.3146,0.0,-1.2677,-1.2653,0.0,0.0,0.0,0.0,0.0,0.0,0.0,0.0,0.0,0.0,-1.2314,-1.307,-1.3406,-1.3755,-1.4008,-1.3944,-1.3795,-1.3672,-1.3661,-1.3735,-1.3881,-1.4138,-1.4337,-1.4562,-1.4912,-1.5133,-1.5386,-1.5765,-1.6465,-1.7309,-1.8345,-1.9215,-2.0073,-2.0991,-2.1277,-2.1441,-2.1641,-2.1723,-2.1783,-2.1804,-2.1804,-2.1804,-2.1804,-2.1804,-2.1804,-2.1804,-2.1804,-2.1804,-2.1804,-2.1804,-2.1804,-2.1804,-2.1804,-2.1804,-2.1804,-2.1804,-2.1804,-2.1804,-2.1804,-2.1804,-2.1804,-2.1804,-2.1804,-2.1804,-2.1804,-2.1804,-2.1804,-2.1804,-2.1804,-2.1804,-2.1804,-2.1804,-2.1804,0.0,0.0,0.0,0.0,0.0,0.0,0.0,0.0,0.0,0.0,0.0,0.0,0.0,0.0,0.0,0.0,0.0,0.0,0.0,0.0,0.0,0.0,0.0,0.0,0.0,0.0,0.0,0.0,0.0,0.0,0.0,0.0,0.0,0.0,0.0,-1.3828,-1.3569,0.0,0.0,0.0,0.0,0.0,0.0,0.0,0.0,0.0,0.0,0.0,0.0,0.0,0.0,-1.1882,-1.252,-1.306,-1.3505,-1.3816,0.0,-1.4235,-1.401,-1.3865,-1.3775,-1.3745,-1.3812,-1.3967,-1.4235,-1.444,-1.4679,-1.5019,-1.4985,-1.5067,-1.5594,-1.6105,-1.6856,-1.8138,-1.9116,-2.0067,-2.1063,-2.1395,-2.1572,-2.1694,-2.1753,-2.1804,-2.1804,-2.1804,-2.1804,-2.1804,-2.1804,-2.1804,-2.1804,-2.1804,-2.1804,-2.1804,-2.1804,-2.1804,-2.1804,-2.1804,-2.1804,-2.1804,-2.1804,-2.1804,-2.1804,-2.1804,-2.1804,-2.1804,-2.1804,-2.1804,-2.1804,-2.1804,-2.1804,-2.1804,-2.1804,-2.1804,-2.1804,-2.1804,-2.1804,-2.1804,0.0,0.0,0.0,0.0,0.0,0.0,0.0,0.0,0.0,-0.9633,-1.0953,-1.1815,0.0,0.0,0.0,0.0,0.0,0.0,0.0,0.0,0.0,0.0,0.0,0.0,0.0,0.0,0.0,0.0,0.0,0.0,0.0,0.0,0.0,0.0,0.0,0.0,0.0,0.0,0.0,0.0,0.0,0.0,0.0,0.0,0.0,0.0,0.0,0.0,0.0,0.0,-1.2684,-1.2763,-1.3341,-1.3598,-1.3782,-1.4319,-1.4454,-1.4399,-1.4169,-1.4091,-1.4049,-1.3993,-1.4036,-1.4169,-1.4408,-1.4559,-1.4736,-1.5033,-1.4695,-1.4572,-1.5417,-1.5801,-1.6484,-1.7947,-1.9133,-2.0172,-2.0997,-2.1446,-2.1701,-2.1716,-2.1759,-2.1804,-2.1804,-2.1804,-2.1804,-2.1804,-2.1804,-2.1804,-2.1804,-2.1804,-2.1804,-2.1804,-2.1804,-2.1804,-2.1804,-2.1804,-2.1804,-2.1804,-2.1804,-2.1804,-2.1804,-2.1804,-2.1804,-2.1804,-2.1804,-2.1804,-2.1804,-2.1804,-2.1804,-2.1804,-2.1804,-2.1804,-2.1804,-2.1804,-2.1804,-2.1804,0.0,0.0,0.0,0.0,0.0,0.0,0.0,0.0,0.0,0.0,0.0,0.0,0.0,0.0,0.0,0.0,0.0,0.0,0.0,0.0,0.0,0.0,0.0,0.0,0.0,0.0,0.0,0.0,0.0,0.0,0.0,0.0,0.0,0.0,0.0,0.0,0.0,0.0,0.0,0.0,0.0,0.0,0.0,0.0,0.0,0.0,0.0,0.0,0.0,0.0,-1.3326,-1.3575,-1.4073,-1.4391,-1.4606,-1.4773,-1.477,-1.4723,-1.4669,-1.4538,-1.4406,-1.4397,-1.4522,-1.4693,-1.4782,-1.4583,0.0,-1.4592,-1.4237,-1.3991,-1.4263,-1.4932,-1.5798,-1.6903,-1.8291,-1.9601,-2.058,-2.1277,-2.1716,-2.1783,-2.1789,-2.1804,-2.1804,-2.1804,-2.1804,-2.1804,-2.1804,-2.1804,-2.1804,-2.1804,-2.1804,-2.1804,-2.1804,-2.1804,-2.1804,-2.1804,-2.1804,-2.1804,-2.1804,-2.1804,-2.1804,-2.1804,-2.1804,-2.1804,-2.1804,-2.1804,-2.1804,-2.1804,-2.1804,-2.1804,-2.1804,-2.1804,-2.1804,-2.1804,-2.1804,-2.1804,0.0,0.0,0.0,0.0,0.0,0.0,0.0,0.0,0.0,0.0,-1.0617,0.0,0.0,0.0,0.0,0.0,0.0,0.0,0.0,0.0,0.0,0.0,0.0,0.0,0.0,-1.3623,-1.3552,0.0,0.0,0.0,0.0,0.0,0.0,0.0,0.0,0.0,0.0,0.0,0.0,0.0,0.0,0.0,0.0,0.0,0.0,0.0,0.0,0.0,0.0,0.0,-1.348,-1.4285,-1.4681,-1.4902,-1.5025,-1.5093,-1.5093,-1.504,-1.5025,-1.4934,-1.4858,-1.4858,-1.4934,-1.494,-1.4702,0.0,0.0,-1.4169,-1.3705,-1.3485,-1.4009,-1.4623,-1.5443,-1.6656,-1.8235,-1.9618,-2.0483,-2.1261,-2.1759,-2.1797,-2.1804,-2.1804,-2.1804,-2.1804,-2.1804,-2.1804,-2.1804,-2.1804,-2.1804,-2.1804,-2.1804,-2.1804,-2.1804,-2.1804,-2.1804,-2.1804,-2.1804,-2.1804,-2.1804,-2.1804,-2.1804,-2.1804,-2.1804,-2.1804,-2.1804,-2.1804,-2.1804,-2.1804,-2.1804,-2.1804,-2.1804,-2.1804,-2.1804,-2.1804,-2.1819,-2.1855,0.0,0.0,0.0,0.0,0.0,0.0,0.0,0.0,-0.977,-0.9708,-1.0131,-1.0697,-1.137,-1.218,0.0,0.0,0.0,0.0,0.0,0.0,0.0,0.0,0.0,0.0,0.0,0.0,0.0,-1.352,0.0,0.0,0.0,0.0,0.0,0.0,-1.2631,0.0,0.0,0.0,0.0,0.0,0.0,0.0,0.0,0.0,0.0,0.0,0.0,0.0,0.0,0.0,-1.3473,-1.4631,-1.5059,-1.5264,-1.5336,-1.5395,-1.5395,-1.5351,-1.5298,-1.5283,-1.5268,-1.5268,-1.5283,-1.5139,-1.4591,-1.4397,-1.4192,-1.3738,-1.3177,-1.2989,-1.3717,-1.4266,-1.5013,-1.6322,-1.7952,-1.936,-2.0264,-2.1073,-2.163,-2.1787,-2.1804,-2.1804,-2.1804,-2.1804,-2.1804,-2.1804,-2.1804,-2.1804,-2.1804,-2.1804,-2.1804,-2.1804,-2.1804,-2.1804,-2.1804,-2.1804,-2.1804,-2.1804,-2.1804,-2.1804,-2.1804,-2.1804,-2.1804,-2.1804,-2.1804,-2.1804,-2.1804,-2.1804,-2.1804,-2.1804,-2.1819,-2.1819,-2.1834,-2.1863,-2.1922,-2.1972,0.0,0.0,0.0,0.0,0.0,0.0,0.0,0.0,-0.9777,-0.9708,-0.9649,-0.987,-1.0536,-1.1815,0.0,0.0,0.0,0.0,0.0,0.0,0.0,0.0,0.0,0.0,0.0,0.0,0.0,-1.3587,-1.3462,0.0,0.0,0.0,0.0,0.0,0.0,-1.2481,-1.2295,0.0,0.0,0.0,0.0,0.0,0.0,0.0,0.0,0.0,0.0,0.0,0.0,0.0,0.0,-1.4192,-1.4954,-1.545,-1.5741,-1.5741,0.0,0.0,-1.5558,-1.5522,-1.547,-1.547,-1.5522,-1.5403,-1.4805,0.0,-1.3862,-1.3283,-1.273,-1.2444,-1.2697,-1.3364,-1.4212,-1.5195,-1.6606,-1.8083,-1.9488,-2.0332,-2.105,-2.1721,-2.1804,-2.1804,-2.1804,-2.1804,-2.1804,-2.1804,-2.1804,-2.1804,-2.1804,-2.1804,-2.1804,-2.1804,-2.1804,-2.1804,-2.1804,-2.1804,-2.1804,-2.1804,-2.1804,-2.1804,-2.1804,-2.1804,-2.1804,-2.1804,-2.1804,-2.1804,-2.1804,-2.1804,-2.1804,-2.1804,-2.1869,-2.189,-2.1905,-2.2098,-2.2163,-2.2192,0.0,0.0,0.0,0.0,0.0,0.0,0.0,-0.9845,-0.9777,-0.9712,-0.9582,-0.9591,-0.9813,-1.0664,0.0,0.0,0.0,0.0,0.0,0.0,0.0,0.0,0.0,0.0,0.0,0.0,0.0,-1.36,-1.3511,0.0,0.0,0.0,0.0,0.0,0.0,-1.2631,-1.2469,0.0,0.0,0.0,0.0,0.0,0.0,0.0,0.0,0.0,0.0,0.0,-1.249,0.0,0.0,0.0,-1.4023,-1.4493,0.0,0.0,-1.5941,-1.5898,-1.5848,-1.5819,-1.5797,-1.5797,-1.5848,-1.5633,-1.4586,-1.4254,-1.3886,-1.2832,-1.254,-1.252,-1.2638,-1.3386,-1.4255,-1.5068,-1.6469,-1.7984,-1.9444,-2.0328,-2.1074,-2.1786,-2.1855,-2.184,-2.1804,-2.1804,-2.1804,-2.1804,-2.1804,-2.1804,-2.1804,-2.1804,-2.1804,-2.1804,-2.1804,-2.1804,-2.1804,-2.1804,-2.1804,-2.1804,-2.1804,-2.1804,-2.1804,-2.1804,-2.1804,-2.1804,-2.1804,-2.1804,-2.1804,-2.1804,-2.1825,-2.1869,-2.1926,-2.2036,-2.2161,-2.2285,-2.2396,-2.2525,0.0,0.0,0.0,0.0,0.0,0.0,-0.9869,-0.9829,-0.9781,-0.9732,-0.9615,-0.9495,-0.9412,-0.9744,-1.018,-1.0678,0.0,0.0,0.0,0.0,0.0,0.0,0.0,0.0,0.0,0.0,0.0,-1.3607,-1.3528,-1.3471,0.0,0.0,-1.3183,-1.3093,0.0,0.0,0.0,0.0,0.0,0.0,0.0,0.0,0.0,0.0,0.0,0.0,0.0,0.0,0.0,0.0,0.0,0.0,0.0,0.0,0.0,0.0,-1.5885,-1.5902,-1.6068,-1.613,-1.613,-1.613,-1.6143,-1.5839,-1.4495,-1.4298,-1.4015,-1.2688,-1.2559,-1.2703,-1.2777,-1.3349,-1.412,-1.5098,-1.6166,-1.7544,-1.9468,-2.0217,-2.0908,-2.1817,-2.1926,-2.1905,-2.1848,-2.1804,-2.1804,-2.1804,-2.1804,-2.1804,-2.1804,-2.1804,-2.1804,-2.1804,-2.1804,-2.1804,-2.1804,-2.1804,-2.1804,-2.1804,-2.1804,-2.1804,-2.1804,-2.1804,-2.1804,-2.1804,-2.1804,-2.1804,-2.1804,-2.1819,-2.1869,-2.194,-2.2073,-2.2223,-2.2393,-2.2525,-2.2672,-2.2833,0.0,0.0,0.0,0.0,0.0,0.0,0.0,-0.98,-0.9797,-0.9804,-0.9676,-0.9544,-0.9417,-0.9288,-0.9189,-0.9132,0.0,0.0,0.0,0.0,0.0,0.0,0.0,0.0,0.0,0.0,0.0,0.0,0.0,-1.3471,-1.3405,-1.3329,-1.3226,-1.3104,0.0,0.0,0.0,0.0,0.0,0.0,0.0,0.0,0.0,0.0,0.0,0.0,0.0,0.0,0.0,0.0,0.0,0.0,0.0,-1.3793,-1.4031,0.0,-1.5413,-1.5466,-1.6196,-1.6398,-1.6398,-1.6398,-1.6404,-1.6045,-1.4707,-1.4494,-1.4239,-1.2962,-1.2802,-1.292,-1.2978,-1.3057,-1.3617,-1.5146,-1.5412,-1.6444,-1.9395,-1.9814,-2.0358,-2.1814,-2.2004,-2.1961,-2.1905,-2.184,-2.1804,-2.1804,-2.1804,-2.1804,-2.1804,-2.1804,-2.1804,-2.1804,-2.1804,-2.1804,-2.1804,-2.1804,-2.1804,-2.1804,-2.1804,-2.1804,-2.1804,-2.1804,-2.1804,-2.1804,-2.1804,-2.1804,-2.1804,-2.1869,-2.194,-2.2027,-2.229,-2.2487,-2.2627,-2.2906,-2.3045,-2.3123,0.0,0.0,0.0,0.0,0.0,0.0,0.0,0.0,-0.9797,-0.9804,-0.9723,-0.9636,-0.9548,-0.9376,-0.926,-0.9238,0.0,0.0,0.0,0.0,0.0,0.0,0.0,0.0,0.0,0.0,0.0,0.0,0.0,0.0,0.0,-1.3379,-1.332,-1.3235,-1.3166,-1.3077,0.0,0.0,0.0,0.0,0.0,0.0,-1.1846,0.0,0.0,0.0,0.0,0.0,0.0,0.0,0.0,0.0,0.0,0.0,0.0,-1.423,-1.4698,-1.5003,-1.5197,-1.5241,-1.5241,-1.5241,-1.5272,-1.5062,-1.4131,-1.4029,-1.3884,-1.3011,-1.2941,-1.3065,-1.3119,-1.3572,-1.4242,-1.5236,-1.6321,-1.7729,-1.9652,-2.0458,-2.1182,-2.2158,-2.2231,-2.2144,-2.1984,-2.1905,-2.1855,-2.1804,-2.1804,-2.1804,-2.1804,-2.1804,-2.1804,-2.1804,-2.1804,-2.1804,-2.1804,-2.1804,-2.1804,-2.1804,-2.1804,-2.1804,-2.1804,-2.1804,-2.1804,-2.1804,-2.1804,-2.1834,-2.1876,-2.194,-2.2087,-2.2304,-2.2511,-2.2742,-2.2961,-2.3135,-2.331,-2.3462,0.0,0.0,0.0,0.0,0.0,0.0,0.0,0.0,-0.9797,-0.9796,-0.9476,-0.9224,-0.916,-0.8986,-0.8877,-0.8845,0.0,0.0,0.0,0.0,0.0,0.0,0.0,0.0,0.0,0.0,0.0,0.0,0.0,0.0,0.0,0.0,0.0,-1.3329,-1.3269,0.0,0.0,0.0,0.0,0.0,0.0,0.0,-1.1705,0.0,0.0,0.0,0.0,0.0,0.0,0.0,0.0,0.0,0.0,0.0,0.0,0.0,-1.3931,-1.4295,-1.4732,-1.4855,-1.4855,-1.485,-1.4877,-1.4721,-1.4016,-1.3913,-1.3795,-1.3107,-1.3058,-1.3237,-1.3565,-1.4012,-1.4668,-1.5691,-1.6946,-1.8326,-1.9791,-2.0747,-2.1581,-2.2347,-2.2382,-2.2268,-2.2087,-2.1963,-2.1876,-2.184,-2.184,-2.184,-2.184,-2.184,-2.1834,-2.1804,-2.1804,-2.1804,-2.1804,-2.1804,-2.1804,-2.1804,-2.1804,-2.1804,-2.1804,-2.1804,-2.1804,-2.1804,-2.1804,-2.1855,0.0,-2.2064,-2.2265,-2.2542,-2.2764,-2.2999,-2.3232,-2.3386,-2.3553,-2.3685,0.0,0.0,0.0,0.0,0.0,0.0,0.0,0.0,0.0,0.0,0.0,-0.8474,-0.8418,-0.8294,0.0,0.0,0.0,0.0,0.0,0.0,0.0,0.0,0.0,0.0,0.0,0.0,0.0,-1.3396,-1.3396,-1.3396,-1.3405,0.0,0.0,0.0,0.0,0.0,0.0,0.0,0.0,0.0,-1.0982,-1.1129,0.0,0.0,0.0,0.0,0.0,0.0,0.0,0.0,0.0,0.0,0.0,0.0,0.0,0.0,0.0,0.0,0.0,-1.496,-1.4962,-1.4961,-1.4956,-1.4798,-1.4173,-1.4035,0.0,-1.3242,-1.3163,-1.3432,-1.418,-1.4411,-1.4952,-1.6383,-1.7369,-1.8434,-1.9807,-2.0807,-2.1668,-2.2429,-2.2468,-2.2363,-2.2229,-2.2046,-2.1928,-2.1905,-2.1905,-2.1905,-2.1905,-2.1905,-2.1869,-2.1804,-2.1804,-2.1804,-2.1804,-2.1804,-2.1804,-2.1804,-2.1804,-2.1804,-2.1804,-2.1804,-2.1804,-2.1804,-2.1804,-2.1899,-2.2027,-2.2245,-2.2475,-2.2751,-2.302,-2.3232,-2.3441,-2.3634,-2.3752,-2.3797,0.0,0.0,0.0,0.0,0.0,0.0,0.0,0.0,0.0,0.0,0.0,-0.8494,-0.8478,-0.8404,0.0,0.0,0.0,0.0,0.0,0.0,0.0,0.0,0.0,0.0,0.0,0.0,0.0,-1.3396,-1.3396,-1.3396,-1.3405,-1.3405,0.0,0.0,0.0,0.0,0.0,0.0,0.0,0.0,-0.9794,-1.005,0.0,0.0,0.0,0.0,-1.3149,-1.3149,0.0,0.0,0.0,0.0,0.0,0.0,0.0,0.0,-1.3201,-1.3268,-1.3565,0.0,-1.3648,-1.3649,-1.3648,-1.3614,0.0,-1.3411,-1.337,-1.3208,0.0,-1.3461,-1.4297,-1.4933,-1.5628,-1.6532,-1.8265,-1.9596,-1.9951,-2.1314,-2.2381,-2.2628,-2.2592,-2.2492,-2.2372,-2.2217,-2.21,-2.1984,-2.1984,-2.1984,-2.1984,-2.1926,-2.189,-2.1884,-2.1834,-2.1804,-2.1804,-2.1804,-2.1804,-2.1804,-2.1804,-2.1804,-2.1804,-2.1804,-2.1804,-2.1804,-2.1855,-2.1972,-2.2175,-2.2429,-2.2699,-2.2957,-2.322,-2.3453,-2.3645,-2.3741,-2.3788,-2.3803,0.0,0.0,0.0,0.0,0.0,0.0,0.0,0.0,0.0,0.0,0.0,0.0,0.0,0.0,0.0,0.0,0.0,0.0,0.0,0.0,0.0,0.0,0.0,0.0,0.0,0.0,0.0,0.0,0.0,-1.3404,0.0,0.0,0.0,0.0,0.0,0.0,0.0,0.0,0.0,0.0,-1.0273,0.0,0.0,0.0,0.0,0.0,-1.2849,-1.2941,0.0,-1.3244,-1.3269,-1.3303,0.0,0.0,0.0,0.0,-1.3269,-1.3295,-1.3252,-1.3218,-1.321,-1.3244,-1.3218,-1.3201,-1.32,0.0,0.0,0.0,0.0,-1.3974,-1.4841,-1.5632,-1.6499,-1.7578,-1.9043,-2.0289,-2.0992,-2.1945,-2.2574,-2.2592,-2.2574,-2.2501,-2.2366,-2.2262,-2.2168,-2.2098,-2.2089,-2.2089,-2.2089,-2.2001,-2.1926,-2.1905,-2.1825,-2.1804,-2.1804,-2.1804,-2.1804,-2.1804,-2.1804,-2.1804,-2.1804,-2.1804,-2.1819,-2.1855,-2.192,-2.2087,-2.2355,-2.2592,-2.2872,-2.316,-2.3404,-2.3607,-2.3752,-2.3788,-2.3792,-2.3806,0.0,0.0,0.0,0.0,0.0,0.0,0.0,0.0,0.0,0.0,0.0,0.0,0.0,0.0,0.0,0.0,0.0,0.0,0.0,0.0,0.0,0.0,0.0,0.0,0.0,0.0,0.0,0.0,0.0,0.0,0.0,0.0,-1.3295,0.0,0.0,0.0,0.0,0.0,0.0,-1.2048,-1.1309,0.0,0.0,0.0,0.0,0.0,0.0,0.0,0.0,-1.3126,-1.3219,-1.3329,-1.3379,0.0,0.0,0.0,0.0,0.0,-1.3346,-1.3295,-1.3286,-1.3446,-1.3437,-1.3403,-1.3394,0.0,0.0,0.0,0.0,0.0,-1.5574,-1.6404,-1.7405,-1.8755,-1.9695,-2.0764,-2.2196,-2.2446,-2.2487,-2.2501,-2.2487,-2.2432,-2.2324,-2.2254,-2.2228,-2.2228,-2.2228,-2.2228,-2.2228,-2.2089,-2.1961,-2.192,-2.184,-2.1804,-2.1804,-2.1804,-2.1804,-2.1804,-2.1804,-2.1804,-2.1804,-2.1804,-2.1848,-2.1905,-2.1998,-2.2215,-2.2533,-2.2764,-2.3057,-2.3348,-2.3542,-2.3707,-2.3797,-2.3803,-2.3806,-2.3806,0.0,0.0,0.0,0.0,0.0,0.0,0.0,0.0,0.0,0.0,0.0,0.0,0.0,0.0,0.0,0.0,0.0,0.0,0.0,0.0,0.0,0.0,0.0,0.0,0.0,0.0,0.0,0.0,0.0,0.0,-1.1475,-1.2145,-1.2804,0.0,0.0,0.0,0.0,0.0,0.0,-1.2118,-1.1385,0.0,0.0,0.0,0.0,0.0,0.0,0.0,0.0,-1.245,-1.2871,-1.3387,-1.3396,0.0,0.0,0.0,0.0,0.0,-1.3471,-1.3463,-1.3591,-1.4174,-1.4308,-1.429,-1.4228,0.0,0.0,0.0,0.0,0.0,0.0,-1.7102,-1.791,-1.8699,-2.0073,-2.1344,-2.2272,-2.2413,-2.2441,-2.2492,-2.2446,-2.2413,-2.2386,-2.2316,-2.2282,-2.2282,-2.2282,-2.2282,-2.2282,-2.2095,-2.1998,-2.1976,-2.1861,-2.1804,-2.1804,-2.1804,-2.1804,-2.1804,-2.1804,-2.1804,-2.1804,-2.1804,-2.1848,-2.1905,-2.2152,-2.2379,-2.2605,-2.2995,-2.3265,-2.3494,-2.3696,-2.3777,-2.3804,-2.3795,-2.3806,-2.3806,0.0,0.0,0.0,0.0,0.0,0.0,0.0,0.0,0.0,0.0,0.0,0.0,0.0,0.0,0.0,0.0,0.0,0.0,0.0,0.0,0.0,0.0,0.0,0.0,0.0,0.0,0.0,0.0,0.0,-1.1144,-1.112,-1.1916,-1.2694,-1.3405,0.0,0.0,0.0,0.0,-1.2765,-1.2773,0.0,0.0,0.0,0.0,0.0,0.0,0.0,0.0,0.0,0.0,-1.1928,-1.2288,-1.2767,0.0,0.0,0.0,0.0,0.0,-1.3606,-1.3607,-1.3781,-1.4487,-1.4578,-1.4608,-1.4958,-1.5004,0.0,0.0,0.0,0.0,0.0,-1.7907,-1.8874,-2.0022,-2.1159,-2.2,-2.2293,-2.2352,-2.2366,-2.2386,-2.2358,-2.2352,-2.2352,-2.2324,-2.2296,-2.2296,-2.2296,-2.2296,-2.2296,-2.211,-2.2004,-2.2004,-2.1869,-2.1804,-2.1804,-2.1804,-2.1804,-2.1804,-2.1804,-2.1804,-2.1804,-2.184,-2.1936,-2.2075,-2.2352,-2.2605,-2.2833,-2.3172,-2.3439,-2.362,-2.3752,-2.38,-2.3806,-2.3806,-2.3806,-2.3806,0.0,0.0,0.0,0.0,0.0,0.0,0.0,0.0,0.0,0.0,0.0,0.0,0.0,0.0,0.0,0.0,0.0,0.0,0.0,0.0,0.0,0.0,0.0,0.0,0.0,0.0,-1.1486,-1.0681,-1.0681,-1.0829,-1.1104,-1.173,-1.2516,0.0,0.0,0.0,0.0,0.0,-1.332,-1.3329,0.0,0.0,0.0,0.0,0.0,0.0,0.0,0.0,0.0,0.0,0.0,0.0,0.0,0.0,0.0,-1.3014,-1.3341,-1.3489,-1.3466,-1.3598,-1.3922,-1.4656,-1.483,-1.4944,-1.5499,-1.5712,-1.5772,0.0,0.0,0.0,-1.7813,-1.8844,-2.004,-2.1416,-2.2107,-2.2441,-2.2324,-2.2296,-2.2296,-2.2296,-2.2296,-2.2296,-2.2296,-2.2296,-2.2296,-2.2296,-2.2296,-2.2296,-2.2296,-2.2141,-2.2052,-2.2052,-2.1913,-2.1848,-2.1848,-2.1848,-2.1825,-2.1804,-2.1804,-2.1804,-2.1834,-2.1884,-2.2017,-2.2243,-2.252,-2.2777,-2.3057,-2.3324,-2.3564,-2.373,-2.3775,-2.3801,-2.3806,-2.3806,-2.3806,-2.3806,0.0,0.0,0.0,0.0,0.0,0.0,0.0,0.0,0.0,0.0,0.0,0.0,0.0,0.0,0.0,0.0,0.0,0.0,0.0,0.0,0.0,0.0,0.0,0.0,0.0,-1.0738,-0.9968,-0.9157,-0.9157,-0.9824,-1.1096,-1.1162,-1.1983,-1.3405,0.0,0.0,0.0,0.0,-1.3388,-1.3388,-1.3405,0.0,0.0,0.0,0.0,0.0,0.0,0.0,0.0,0.0,0.0,0.0,0.0,0.0,-1.1604,-1.172,-1.2282,-1.2856,-1.2795,-1.3319,-1.4063,-1.4802,-1.5349,-1.5702,-1.5686,-1.6172,0.0,-1.6612,0.0,-1.792,-1.8604,-1.9997,-2.1327,-2.2187,-2.2379,-2.2386,-2.231,-2.2296,-2.2296,-2.2296,-2.2296,-2.2296,-2.2296,-2.2296,-2.2296,-2.2296,-2.2296,-2.2296,-2.2296,-2.2234,-2.2191,-2.2191,-2.2061,-2.1984,-2.1984,-2.1984,-2.1926,-2.1804,-2.1804,-2.1825,-2.189,-2.1905,-2.2046,-2.231,-2.2574,-2.2846,-2.3123,-2.345,-2.3663,-2.3795,-2.3792,-2.3795,-2.3806,-2.3806,-2.3806,-2.3806,0.0,0.0,0.0,0.0,0.0,0.0,0.0,0.0,0.0,0.0,0.0,0.0,0.0,0.0,0.0,0.0,0.0,0.0,0.0,0.0,0.0,0.0,0.0,-1.0137,-1.0828,-1.0459,-0.9853,-0.8999,-0.8956,-0.9676,-1.1103,-1.1103,0.0,0.0,0.0,0.0,0.0,0.0,0.0,-1.3405,-1.3405,-1.2482,0.0,0.0,0.0,0.0,0.0,0.0,0.0,0.0,-0.9649,-1.0028,-1.0604,-1.0825,-1.1075,-1.2112,-1.2652,-1.302,-1.3451,-1.3766,-1.4151,-1.4932,-1.5589,0.0,0.0,-1.7411,-1.8175,-1.8087,-1.8653,-1.9414,-2.0259,-2.1287,-2.2101,-2.2417,-2.246,-2.2419,-2.2324,-2.2296,-2.2296,-2.2296,-2.2296,-2.2296,-2.2296,-2.2296,-2.2296,-2.2296,-2.2296,-2.2296,-2.2296,-2.2234,-2.22,-2.22,-2.2075,-2.2004,-2.2004,-2.2004,-2.1961,-2.1926,-2.1926,-2.194,-2.1969,-2.2055,-2.2194,-2.238,-2.2654,-2.291,-2.3184,-2.3473,-2.3674,-2.3795,-2.3803,-2.3806,-2.3806,-2.3806,-2.3806,-2.3806,0.0,0.0,0.0,0.0,0.0,0.0,0.0,0.0,0.0,0.0,0.0,0.0,0.0,0.0,0.0,0.0,0.0,0.0,0.0,0.0,0.0,0.0,0.0,-0.9658,-1.0137,-1.0041,-0.9657,-0.8998,-0.8939,-0.9653,-1.1087,0.0,0.0,0.0,0.0,0.0,0.0,0.0,0.0,0.0,-1.2948,-1.2271,0.0,0.0,0.0,0.0,0.0,0.0,0.0,0.0,-0.9042,-0.921,-0.9848,-1.0099,-1.0423,-1.1782,-1.2401,-1.281,-1.3547,-1.3895,-1.4248,-1.5009,0.0,0.0,-1.7303,-1.8349,-1.9172,-1.9284,-1.9879,-2.0645,-2.1553,-2.2124,-2.2474,-2.2474,-2.2474,-2.2432,-2.2324,-2.2296,-2.2296,-2.2296,-2.2296,-2.2296,-2.2296,-2.2296,-2.2296,-2.2296,-2.2296,-2.2296,-2.2296,-2.2262,-2.2234,-2.2234,-2.2141,-2.2087,-2.2087,-2.2087,-2.2087,-2.2087,-2.2087,-2.2081,-2.2075,-2.216,-2.2282,-2.2455,-2.2712,-2.2974,-2.322,-2.3519,-2.3698,-2.3798,-2.3794,-2.3806,-2.3806,-2.3806,-2.3806,-2.3806,0.0,0.0,0.0,0.0,0.0,0.0,0.0,0.0,0.0,0.0,0.0,0.0,0.0,0.0,0.0,0.0,0.0,0.0,0.0,0.0,0.0,0.0,0.0,-0.9465,-0.9399,-0.9338,-0.9198,-0.8997,-0.8936,-0.9653,-1.1071,-1.0337,0.0,0.0,0.0,0.0,0.0,0.0,0.0,0.0,-1.1967,-1.1806,-1.1103,0.0,0.0,0.0,0.0,0.0,0.0,0.0,-0.905,-0.9122,-0.9253,0.0,0.0,-1.0373,-1.1235,-1.207,-1.2813,-1.36,-1.4366,-1.5037,0.0,0.0,-1.8097,-1.883,-1.9406,-2.0075,-2.0751,-2.1463,-2.2241,-2.2399,-2.2399,-2.2399,-2.2399,-2.2386,-2.231,-2.2296,-2.2296,-2.2296,-2.2296,-2.2296,-2.2296,-2.2296,-2.2296,-2.2296,-2.2296,-2.2296,-2.2296,-2.2296,-2.2296,-2.2296,-2.2296,-2.2296,-2.2296,-2.2296,-2.2296,-2.2296,-2.2296,-2.2276,-2.22,-2.22,-2.231,-2.2506,-2.2782,-2.3011,-2.3229,-2.3558,-2.3747,-2.3806,-2.3806,-2.3806,-2.3806,-2.3806,-2.3806,-2.3806,0.0,0.0,0.0,0.0,0.0,0.0,0.0,0.0,0.0,0.0,0.0,0.0,0.0,0.0,0.0,0.0,0.0,0.0,0.0,0.0,0.0,0.0,0.0,0.0,0.0,0.0,-0.9104,-0.8997,-0.8936,-0.9385,0.0,0.0,0.0,-1.145,0.0,0.0,0.0,0.0,0.0,0.0,-1.1358,-1.1307,-1.1037,0.0,0.0,0.0,0.0,0.0,0.0,0.0,0.0,0.0,-0.9199,0.0,-1.0332,-1.1142,-1.1963,-1.2758,-1.3505,-1.4291,0.0,-1.5845,0.0,0.0,0.0,-2.0036,0.0,-2.1571,-2.1974,-2.2201,-2.2485,-2.2533,-2.2533,-2.2533,-2.2533,-2.2515,-2.2446,-2.2399,-2.2372,-2.2372,-2.2338,-2.2296,-2.2296,-2.2296,-2.2296,-2.2296,-2.2296,-2.2296,-2.2296,-2.2296,-2.2296,-2.2296,-2.2296,-2.2296,-2.2296,-2.2296,-2.2296,-2.2296,-2.2296,-2.2282,-2.2268,-2.2268,-2.2358,-2.2515,-2.2729,-2.2936,-2.316,-2.3547,-2.3747,-2.3806,-2.3806,-2.3806,-2.3806,-2.3806,-2.3806,-2.3806,0.0,0.0,0.0,0.0,0.0,0.0,0.0,0.0,0.0,0.0,0.0,0.0,0.0,0.0,0.0,0.0,0.0,0.0,0.0,0.0,0.0,0.0,0.0,0.0,0.0,-1.0037,-0.9929,0.0,0.0,0.0,0.0,0.0,0.0,-1.0688,0.0,-1.0274,0.0,0.0,0.0,0.0,-1.0546,-1.0665,-1.0607,0.0,0.0,0.0,0.0,0.0,0.0,0.0,0.0,0.0,-0.9276,0.0,0.0,-1.1473,-1.2293,-1.3084,-1.3816,-1.4615,0.0,-1.6167,-1.7206,-1.8493,-2.026,-2.0997,-2.1553,-2.239,-2.2574,-2.2601,-2.2667,-2.2672,-2.2685,-2.2712,-2.2707,-2.2667,-2.2619,-2.256,-2.252,-2.252,-2.246,-2.2427,-2.2427,-2.2372,-2.2338,-2.2338,-2.2324,-2.2296,-2.2296,-2.2296,-2.2296,-2.2296,-2.2296,-2.2296,-2.2296,-2.2296,-2.2296,-2.2296,-2.2296,-2.2296,-2.2296,-2.2296,-2.2386,-2.2569,-2.2868,-2.3135,-2.3363,-2.3634,-2.3768,-2.3806,-2.3806,-2.3806,-2.3806,-2.3806,-2.3806,-2.3806,0.0,0.0,-0.7287,-0.6546,0.0,0.0,0.0,0.0,0.0,0.0,0.0,-0.4805,0.0,0.0,0.0,-0.48,0.0,0.0,0.0,0.0,0.0,0.0,0.0,0.0,0.0,0.0,0.0,0.0,0.0,0.0,0.0,0.0,-0.9361,-0.998,0.0,-0.9014,0.0,0.0,0.0,0.0,-0.9633,-0.9942,-0.9992,-0.9925,0.0,0.0,0.0,0.0,0.0,0.0,0.0,0.0,-0.9608,-1.0054,-1.0941,-1.1606,-1.2406,-1.3243,-1.3923,-1.4738,-1.5554,-1.624,-1.6959,-1.8068,-2.024,-2.1715,-2.2656,-2.2734,-2.2751,-2.2769,-2.2833,-2.2855,-2.2868,-2.2932,-2.2811,-2.2729,-2.2729,-2.2604,-2.2544,-2.2613,-2.2556,-2.2542,-2.2619,-2.2501,-2.2419,-2.2427,-2.2344,-2.231,-2.231,-2.231,-2.2296,-2.2296,-2.2296,-2.2296,-2.2296,-2.2296,-2.2296,-2.2296,-2.2296,-2.2296,-2.2296,-2.231,-2.2432,-2.2659,-2.3107,-2.3453,-2.3709,-2.3774,-2.3809,-2.3806,-2.3806,-2.3806,-2.3806,-2.3806,-2.3806,-2.3786,0.0,0.0,-0.8349,-0.8122,0.0,0.0,0.0,0.0,-0.4905,-0.4899,-0.4842,-0.4797,-0.48,-0.48,0.0,-0.48,-0.4958,0.0,0.0,0.0,0.0,0.0,0.0,0.0,0.0,0.0,0.0,0.0,0.0,0.0,0.0,0.0,0.0,-0.9313,0.0,-0.9081,0.0,0.0,0.0,-0.899,-0.9092,-0.9481,-0.9933,-0.936,-0.9498,0.0,0.0,0.0,0.0,0.0,0.0,0.0,-1.093,-1.1686,-1.2433,-1.2529,-1.3139,-1.395,-1.4737,-1.5541,0.0,-1.7064,-1.8183,-1.9563,-2.1299,-2.1972,-2.2394,-2.2967,-2.3135,-2.318,-2.3193,-2.3193,-2.3205,-2.3217,-2.2632,-2.2163,-2.2163,-2.1528,-2.1292,-2.1913,-2.1922,-2.2123,-2.2704,-2.2685,-2.2605,-2.256,-2.2455,-2.2386,-2.2386,-2.2338,-2.2296,-2.2296,-2.2296,-2.2296,-2.2296,-2.2296,-2.2296,-2.2296,-2.2296,-2.2296,-2.2296,-2.2358,-2.2574,-2.2923,-2.3193,-2.3453,-2.3709,-2.3774,-2.3809,-2.3806,-2.3806,-2.3806,-2.3806,-2.3806,-2.3806,-2.3714,0.0,0.0,0.0,0.0,0.0,0.0,0.0,0.0,-0.5335,-0.4955,-0.4838,-0.48,-0.48,-0.48,0.0,0.0,-0.48,-0.48,0.0,0.0,0.0,0.0,0.0,0.0,0.0,0.0,0.0,0.0,0.0,0.0,0.0,0.0,0.0,-0.9195,0.0,-0.9179,0.0,0.0,-0.9035,-0.9001,-0.8961,-0.916,-0.9436,-0.9044,-0.9137,-0.9427,-0.9035,0.0,0.0,0.0,0.0,0.0,0.0,0.0,-1.232,-1.2276,-1.3117,-1.4134,-1.4515,0.0,0.0,-1.7745,0.0,-1.992,-2.0755,-2.1341,-2.1838,-2.2253,-2.26,-2.2824,-2.2858,-2.2547,-2.2309,-2.2331,-2.1933,-2.1615,-2.1615,-2.1165,-2.0985,-2.1419,-2.1407,-2.1496,-2.1866,-2.1805,-2.1716,-2.1646,-2.1554,-2.1477,-2.1434,-2.1378,-2.1487,-2.1817,-2.1785,-2.1943,-2.2296,-2.2296,-2.2296,-2.2296,-2.2296,-2.2344,-2.2455,-2.2555,-2.2738,-2.302,-2.3313,-2.3533,-2.3711,-2.3768,-2.3792,-2.3806,-2.3806,-2.3806,-2.3806,-2.3806,-2.3578,-2.3225,0.0,0.0,0.0,0.0,0.0,0.0,0.0,0.0,0.0,-0.5001,-0.4838,-0.48,-0.48,-0.48,-0.48,0.0,0.0,0.0,-0.48,0.0,0.0,0.0,0.0,0.0,0.0,0.0,0.0,0.0,0.0,0.0,0.0,0.0,0.0,-0.932,0.0,0.0,0.0,0.0,-0.9083,-0.9013,-0.9001,-0.8956,-0.8897,-0.8897,-0.8897,-0.8897,-0.8897,-0.9338,-0.9838,-0.9364,0.0,0.0,0.0,0.0,-1.173,-1.1848,-1.2838,-1.3941,-1.4154,0.0,-1.6866,-1.807,-1.8979,-1.9621,-1.9774,-2.0476,-2.1153,-2.1354,-2.1803,-2.2187,-2.2229,-2.1702,-2.1264,-2.1332,-2.1157,-2.1028,-2.1028,-2.0853,-2.0768,-2.091,-2.0887,-2.0869,-2.0949,-2.0829,-2.0727,-2.0653,-2.0561,-2.0494,-2.0442,-2.0367,-2.0598,-2.1144,-2.1092,-2.1328,-2.1927,-2.1935,-2.1913,-2.1899,-2.1913,-2.2014,-2.2206,-2.2367,-2.2658,-2.3074,-2.3439,-2.3643,-2.3721,-2.3782,-2.3806,-2.3806,-2.3806,-2.3806,-2.3777,-2.3659,-2.3225,-2.2662,0.0,0.0,0.0,0.0,0.0,0.0,0.0,0.0,0.0,0.0,-0.4838,-0.48,-0.48,-0.48,-0.48,-0.48,-0.48,-0.48,0.0,0.0,0.0,0.0,0.0,0.0,0.0,0.0,0.0,0.0,0.0,0.0,0.0,0.0,0.0,-0.939,0.0,0.0,0.0,0.0,-0.915,-0.9083,-0.9027,-0.8961,-0.8897,-0.8897,-0.8897,-0.8897,-0.8897,-0.901,-0.9233,-0.9835,-1.0158,0.0,0.0,0.0,-1.1831,-1.2471,-1.2855,-1.3347,-1.4686,0.0,-1.7303,0.0,-1.8082,-1.8869,-1.963,-2.0045,-2.0486,-2.1238,-2.151,-2.161,-2.162,-2.153,-2.1457,-2.1467,-2.0823,-2.0326,-2.0326,-1.9687,-1.9453,-2.0152,-2.0223,-2.0463,-2.1102,-2.1041,-2.0926,-2.0861,-2.0689,-2.0581,-2.057,-2.0509,-2.0508,-2.0591,-2.0494,-2.0439,-2.0488,-2.0412,-2.0361,-2.0318,-2.0361,-2.0462,-2.0616,-2.0862,-2.1817,-2.3268,-2.3505,-2.3674,-2.3784,-2.3792,-2.3806,-2.3806,-2.3806,-2.3806,-2.3714,-2.3089,-2.278,-2.25,0.0,0.0,0.0,0.0,0.0,0.0,0.0,0.0,0.0,0.0,0.0,-0.48,-0.48,-0.48,-0.48,-0.48,-0.48,0.0,0.0,0.0,0.0,0.0,0.0,0.0,0.0,0.0,0.0,0.0,0.0,0.0,0.0,-0.9474,-0.9456,0.0,0.0,0.0,0.0,0.0,-0.9255,-0.9152,-0.9081,-0.9016,-0.895,-0.895,-0.8928,-0.8897,-0.8897,-0.8919,-0.8998,-0.9395,-0.9552,-0.9649,-1.007,0.0,0.0,0.0,-1.1854,-1.2566,-1.411,-1.5605,-1.6809,0.0,-1.7887,-1.8602,-1.898,-1.9268,-1.9551,-1.9966,-2.011,-2.0291,-2.0744,-2.0463,-2.0155,-2.0155,-1.9803,-1.9533,-1.9533,-1.9165,-1.9021,-1.9399,-1.9426,-1.956,-1.9882,-1.9862,-1.9796,-1.9726,-1.9677,-1.9628,-1.9589,-1.9486,-1.9622,-2.0033,-1.99,-1.9984,-2.036,-2.0258,-2.0176,-2.0111,-2.0226,-2.0338,-2.0486,-2.0711,-2.1483,-2.2643,-2.2874,-2.3295,-2.3768,-2.3349,-2.318,-2.3143,-2.2691,-2.251,-2.2473,-2.2156,-2.1739,-2.1251,0.0,0.0,0.0,0.0,0.0,0.0,0.0,0.0,0.0,0.0,0.0,-0.5433,-0.5433,0.0,0.0,0.0,-0.4921,0.0,0.0,0.0,0.0,0.0,0.0,0.0,0.0,0.0,0.0,0.0,0.0,0.0,-0.9504,-0.9504,-0.9504,0.0,-0.9504,0.0,0.0,0.0,0.0,-0.9236,-0.9371,-0.9364,-0.9304,-0.9503,-0.9531,-0.9433,-0.9247,-0.9179,-0.9162,-0.9018,-0.8981,-0.9011,-0.9057,-0.9526,0.0,0.0,0.0,-1.2224,0.0,0.0,-1.6028,-1.67,-1.7513,-1.8201,-1.8418,-1.8669,-1.887,-1.8958,-1.9036,-1.9286,-1.9875,-1.9494,-1.9104,-1.9104,-1.9036,-1.9001,-1.9001,-1.894,-1.8904,-1.8904,-1.8904,-1.8896,-1.8896,-1.8905,-1.8878,-1.8825,-1.887,-1.8878,-1.8834,-1.8734,-1.8934,-1.9477,-1.9305,-1.9451,-1.9985,-1.9861,-1.9768,-1.9697,-1.9826,-1.9943,-2.0044,-2.0253,-2.0804,-2.1619,-2.2044,-2.2598,-2.3164,-2.2616,-2.24,-2.2337,-2.173,-2.1504,-2.1486,-2.1269,-2.0825,-2.0264,0.0,0.0,0.0,0.0,0.0,0.0,0.0,0.0,0.0,0.0,0.0,-0.7175,-0.7175,-0.6435,-0.5942,-0.5942,-0.5236,0.0,0.0,0.0,0.0,0.0,0.0,0.0,0.0,0.0,0.0,0.0,0.0,0.0,-0.9504,-0.9504,-0.9504,-0.9504,-0.9504,-0.95,-0.9492,0.0,0.0,-0.9352,-1.0049,-1.0224,-1.0132,-1.0891,-1.1102,-1.0884,-1.0193,-0.9942,-0.9838,-0.9137,-0.8942,-0.8998,-0.9005,-0.9081,-0.9331,0.0,0.0,0.0,0.0,-1.3896,0.0,-1.5799,-1.6579,-1.739,-1.822,-1.8555,-1.8743,-1.8878,-1.9009,-1.9113,-1.915,-1.9132,-1.9104,-1.9104,-1.9036,-1.9001,-1.9001,-1.894,-1.8904,-1.8904,-1.8904,-1.8904,-1.8904,-1.8904,-1.8904,-1.8895,-1.8895,-1.8895,-1.8886,-1.8896,-1.8896,-1.8941,-1.8749,-1.8627,-1.8606,-1.8465,-1.8371,-1.8317,-1.8438,-1.8508,-1.8518,-1.8718,-1.9314,-2.0249,-2.109,-2.1519,-2.1622,-2.1576,-2.1558,-2.1568,-2.1523,-2.1504,-2.1414,-2.0644,-2.0336,-2.0191,0.0,0.0,0.0,0.0,0.0,0.0,0.0,0.0,0.0,0.0,0.0,0.0,0.0,-0.7025,-0.6821,-0.6774,-0.6035,0.0,0.0,0.0,0.0,0.0,0.0,0.0,0.0,0.0,0.0,0.0,0.0,-0.8727,-0.8736,-0.926,-0.9504,-0.9504,-0.9504,-0.95,-0.95,-0.9478,0.0,-1.0091,-1.0357,-1.0679,-1.1031,-1.127,-1.1309,-1.1194,-1.0879,-1.0736,-1.0588,-0.9853,-0.9616,-0.9569,-0.9137,-0.9016,-0.9115,-0.9519,-1.0767,-1.2033,-1.2034,0.0,0.0,-1.5159,-1.619,-1.7253,-1.7562,-1.8146,-1.8688,-1.8861,-1.8967,-1.9053,-1.9087,-1.9104,-1.9104,-1.9104,-1.9009,-1.894,-1.894,-1.8878,-1.8834,-1.8834,-1.8834,-1.8834,-1.8834,-1.8869,-1.8904,-1.8904,-1.8974,-1.9026,-1.9026,-1.8993,-1.8967,-1.8967,-1.8852,-1.8743,-1.8623,-1.8576,-1.8516,-1.8463,-1.8514,-1.8526,-1.8536,-1.8733,-1.9013,-1.9354,-1.975,-2.0517,-2.1468,-2.0943,-2.0735,-2.068,-2.0155,-1.9956,-1.992,-1.9639,-1.9522,-1.9493,0.0,0.0,0.0,-1.115,0.0,-1.0429,-0.8754,-0.8731,-0.861,-0.7803,0.0,0.0,0.0,0.0,-0.754,-0.7224,-0.6708,0.0,0.0,0.0,0.0,0.0,0.0,0.0,0.0,0.0,0.0,0.0,0.0,0.0,0.0,-0.8845,-0.9242,-0.9504,-0.9504,-0.9504,0.0,0.0,-0.9915,-1.059,-1.0808,-1.132,-1.1955,-1.2141,-1.2148,-1.2032,-1.1726,-1.1558,-1.1389,-1.0631,-1.0371,-1.025,-0.9558,-0.9177,-0.9013,-0.9107,-1.0273,-1.1536,-1.1535,0.0,0.0,-1.4735,-1.5592,-1.647,-1.6741,-1.751,-1.8223,-1.8414,-1.8726,-1.8984,-1.9053,-1.9044,-1.9053,-1.9087,-1.9009,-1.8931,-1.8931,-1.8878,-1.8834,-1.8834,-1.8834,-1.8834,-1.8834,-1.8887,-1.8931,-1.8931,-1.9044,-1.9104,-1.9104,-1.9062,-1.9018,-1.9001,-1.8958,-1.8878,-1.8771,-1.8771,-1.8743,-1.8694,-1.8706,-1.8697,-1.8706,-1.8861,-1.8923,-1.894,-1.9053,-1.9703,-2.0653,-2.0119,-1.9893,-1.9838,-1.9313,-1.9104,-1.9104,-1.9104,-1.9104,-1.9111,-1.2341,-1.2306,-1.201,-1.1184,-1.1038,-1.0466,-0.8791,-0.92,-0.9423,-0.8635,0.0,0.0,0.0,0.0,0.0,-0.7309,-0.7232,-0.6894,-0.6093,0.0,0.0,0.0,0.0,0.0,0.0,0.0,0.0,0.0,0.0,0.0,0.0,0.0,-0.8718,-0.9468,-0.9486,-0.9504,-0.9504,-0.9504,-0.9979,-1.0788,-1.1443,-1.2162,-1.2911,-1.359,-1.3758,-1.3544,-1.2786,-1.2463,-1.2284,-1.1449,-1.1171,-1.1028,-1.0252,-0.9553,-0.9028,-0.9029,-1.0163,-1.1412,0.0,0.0,0.0,-1.4503,-1.4736,-1.5011,-1.5791,-1.6639,-1.7337,-1.755,-1.8271,-1.8887,-1.8984,-1.894,-1.8939,-1.9078,-1.9045,-1.8993,-1.8993,-1.894,-1.8904,-1.8904,-1.8904,-1.8904,-1.8904,-1.8957,-1.9001,-1.9001,-1.9062,-1.9104,-1.9104,-1.9104,-1.907,-1.901,-1.9001,-1.8966,-1.8904,-1.8904,-1.8905,-1.8896,-1.8905,-1.8896,-1.8896,-1.8976,-1.9001,-1.9001,-1.907,-1.9104,-1.9104,-1.9104,-1.9104,-1.9104,-1.9104,-1.9104,-1.9104,-1.9104,-1.9102,-1.9123,-1.3277,-1.3625,-1.356,-1.2121,-1.1872,-1.1299,-0.9626,-0.9563,-0.9616,0.0,0.0,0.0,-0.9702,-0.9436,-0.8945,-0.8139,-0.802,-0.7671,-0.6921,-0.6866,-0.7207,-0.7966,0.0,0.0,0.0,0.0,0.0,0.0,0.0,0.0,0.0,0.0,0.0,0.0,-0.9242,-0.9504,-0.9504,-0.9504,-1.0304,-1.1585,-1.1774,-1.2607,-1.3817,-1.4544,-1.4763,-1.4706,-1.4932,-1.4926,-1.4632,-1.3284,-1.2802,-1.244,-1.0582,-0.9911,-0.9799,-0.9797,-1.0564,-1.1531,-1.2106,0.0,0.0,0.0,0.0,0.0,-1.5141,-1.5836,-1.6624,-1.7312,-1.7719,-1.8154,-1.8807,-1.8914,-1.8913,-1.8948,-1.894,-1.8932,-1.8932,-1.887,-1.8852,-1.8887,-1.8896,-1.8905,-1.8904,-1.8957,-1.9001,-1.9001,-1.9062,-1.9104,-1.9104,-1.9104,-1.9087,-1.907,-1.907,-1.9053,-1.9035,-1.9035,-1.9018,-1.8976,-1.8966,-1.8949,-1.8905,-1.8966,-1.9001,-1.9001,-1.907,-1.9104,-1.9104,-1.9104,-1.9104,-1.9104,-1.9104,-1.9104,-1.9104,-1.9104,-1.9102,-1.9132,-1.4094,-1.4362,-1.4138,-1.2488,-1.2183,-1.1597,-0.9954,-0.9703,-0.9818,0.0,0.0,0.0,-1.0161,-1.0123,-0.9761,-0.8934,-0.882,-0.8478,-0.7708,-0.7657,-0.7852,-0.8279,-0.8297,-0.8673,0.0,0.0,0.0,0.0,0.0,0.0,0.0,0.0,0.0,0.0,-0.879,-0.9188,-0.9504,-0.9504,-1.043,-1.1895,-1.1898,-1.3004,-1.4697,-1.5097,-1.5415,-1.5676,-1.5975,-1.6001,-1.5737,-1.4777,-1.399,-1.3109,-1.1477,-1.0763,-1.0518,-1.0514,-1.1112,-1.1879,-1.2354,-1.3051,-1.3659,-1.3659,0.0,0.0,-1.4394,-1.5001,-1.5706,-1.6247,-1.6694,-1.725,-1.8146,-1.8342,-1.8484,-1.8842,-1.8887,-1.8869,-1.8905,-1.887,-1.887,-1.8932,-1.8941,-1.8949,-1.8983,-1.9027,-1.9045,-1.9045,-1.9088,-1.9104,-1.9104,-1.9104,-1.9104,-1.9104,-1.9104,-1.9104,-1.9104,-1.9104,-1.9078,-1.9045,-1.9045,-1.9027,-1.8974,-1.9018,-1.9045,-1.9036,-1.9078,-1.9104,-1.9104,-1.9104,-1.9104,-1.9104,-1.9104,-1.9104,-1.9104,-1.9104,-1.9136,-1.9198,0.0,-1.4643,-1.4118,-1.2595,-1.2281,-1.1719,-1.0198,-0.9971,-1.0218,0.0,-1.1031,-1.1008,-1.094,-1.0854,-1.0494,-0.9703,-0.9549,-0.9197,-0.8474,-0.8429,-0.8429,-0.8429,-0.8429,-0.8763,-0.9486,0.0,0.0,0.0,0.0,0.0,0.0,0.0,0.0,0.0,-0.8361,-0.8827,-0.9504,-0.9504,-1.0426,-1.1898,-1.1895,-1.3305,-1.5412,-1.5436,-1.5908,-1.6552,-1.6499,-1.6396,-1.6236,-1.5998,-1.4851,-1.3388,-1.2644,-1.1881,-1.1223,-1.123,-1.1735,-1.2318,-1.2419,-1.3005,-1.3597,-1.3613,-1.3659,0.0,-1.3709,-1.4213,-1.4725,-1.4863,-1.5461,-1.6256,-1.717,-1.7409,-1.7745,-1.861,-1.8708,-1.8717,-1.8869,-1.8887,-1.8904,-1.8984,-1.8993,-1.9018,-1.9078,-1.9096,-1.9104,-1.9104,-1.9104,-1.9104,-1.9104,-1.9104,-1.9104,-1.9104,-1.9104,-1.9104,-1.9104,-1.9104,-1.9104,-1.9104,-1.9104,-1.9104,-1.9104,-1.9104,-1.9104,-1.9104,-1.9104,-1.9104,-1.9104,-1.9104,-1.9104,-1.9104,-1.9104,-1.9104,-1.9104,-1.9095,-1.9178,-1.9307,-1.4614,-1.4614,-1.4298,-1.333,-1.3115,-1.274,-1.1783,-1.1636,-1.1691,-1.1847,-1.1875,-1.1837,-1.1771,-1.1187,-1.0713,-1.0494,-0.9874,-0.9432,-0.9278,-0.9269,-0.9269,-0.9269,-0.9269,-0.9342,-0.9495,-0.9504,0.0,0.0,0.0,0.0,0.0,0.0,0.0,0.0,-0.8713,-0.9351,-0.9504,-0.9504,-1.0426,-1.1898,-1.1898,-1.3344,-1.5537,-1.6133,-1.6833,-1.7593,-1.8048,-1.8125,-1.7879,-1.6984,-1.5625,-1.4166,-1.3422,-1.2668,-1.2068,-1.2073,-1.2174,-1.2452,-1.3161,-1.3475,-1.3609,-1.3668,-1.3691,0.0,-1.3771,-1.3853,-1.4092,-1.469,-1.4992,-1.539,-1.6221,-1.6465,-1.6841,-1.7708,-1.7842,-1.8057,-1.8726,-1.8815,-1.8843,-1.8914,-1.8914,-1.8948,-1.901,-1.907,-1.9104,-1.9104,-1.9104,-1.9104,-1.9104,-1.9104,-1.9104,-1.9104,-1.9104,-1.9104,-1.9104,-1.9104,-1.9104,-1.9104,-1.9104,-1.9104,-1.9104,-1.9104,-1.9104,-1.9104,-1.9104,-1.9104,-1.9104,-1.9104,-1.9104,-1.9104,-1.9104,-1.9104,-1.9095,-1.9101,-1.9183,-1.9323,-1.4599,-1.4572,-1.4301,-1.3493,-1.3325,-1.3029,-1.2224,-1.2104,-1.2242,-1.265,-1.3049,-1.312,-1.2652,-1.2241,-1.1811,-1.1337,-1.0562,-1.01,-1.01,-0.9725,-0.9504,-0.9504,-0.9504,-0.9504,-0.9504,-0.9504,0.0,0.0,0.0,0.0,0.0,0.0,0.0,0.0,-0.8391,-0.9125,-0.9504,-0.9504,-1.0426,-1.1903,-1.1903,-1.3355,-1.5578,-1.6358,-1.7131,-1.7894,-1.8565,-1.8622,-1.8259,-1.7321,-1.6423,-1.5573,-1.4834,-1.4075,-1.3447,-1.3446,-1.3158,-1.2938,-1.3377,-1.3504,-1.352,-1.3632,-1.3687,0.0,0.0,-1.3714,-1.3796,-1.4129,-1.4248,-1.4557,-1.5348,-1.5614,-1.5976,-1.6822,-1.7005,-1.7315,-1.8084,-1.852,-1.8788,-1.8896,-1.887,-1.8896,-1.8993,-1.9036,-1.9062,-1.9096,-1.9094,-1.9101,-1.9101,-1.9136,-1.9153,-1.9153,-1.8763,-1.8555,-1.8549,-1.8514,-1.8496,-1.8507,-1.8914,-1.9104,-1.9104,-1.9104,-1.9104,-1.9104,-1.9104,-1.9104,-1.9104,-1.9104,-1.9104,-1.9104,-1.9104,-1.9095,-1.9101,-1.9143,-1.923,-1.937,-1.4578,-1.4534,-1.4298,-1.3641,-1.3529,-1.3311,-1.2664,-1.2563,-1.2847,-1.3657,-1.4191,-1.4287,-1.3726,-1.3386,-1.2912,-1.2193,-1.1396,-1.0925,-1.0925,-1.0177,-0.9725,-0.9725,-0.9586,-0.9504,-0.9504,-0.9504,0.0,0.0,0.0,0.0,0.0,0.0,-0.7412,-0.7445,0.0,0.0,0.0,-0.95,-1.0435,-1.1901,-1.1898,-1.3437,-1.5802,-1.645,-1.7261,-1.8117,-1.8708,-1.8659,-1.8245,-1.7564,-1.715,-1.6815,-1.6198,-1.5459,-1.4808,-1.4808,-1.4347,-1.3828,-1.3845,-1.3727,-1.3642,-1.3784,-1.3753,-1.3677,0.0,0.0,0.0,-1.3628,-1.3661,-1.39,-1.455,-1.476,-1.5101,-1.5933,-1.617,-1.6519,-1.7279,-1.7888,-1.8404,-1.8834,-1.8842,-1.8861,-1.8966,-1.8992,-1.9045,-1.9096,-1.9101,-1.9107,-1.9115,-1.9174,-1.9233,-1.9233,-1.8456,-1.803,-1.8021,-1.7798,-1.7684,-1.7681,-1.8325,-1.8642,-1.8642,-1.8642,-1.8642,-1.8651,-1.8805,-1.8869,-1.8878,-1.9041,-1.9095,-1.9095,-1.9095,-1.9102,-1.9115,-1.9191,-1.93,-1.9447,-1.4506,-1.4509,-1.447,-1.438,-1.4356,-1.4328,-1.4237,-1.4227,-1.4521,-1.5322,-1.4894,-1.4712,-1.5268,-1.4053,-1.3142,-1.2975,-1.2233,-1.1758,-1.1758,-1.1015,-1.0562,-1.0562,-0.9883,-0.9504,-0.9504,0.0,0.0,0.0,0.0,0.0,0.0,0.0,-0.8178,-0.8213,-0.9008,-0.941,-0.9501,-0.9505,-1.0435,-1.1898,-1.1901,-1.3769,-1.6575,-1.6666,-1.7637,-1.8952,-1.8905,-1.8724,-1.8454,-1.8227,-1.7642,-1.6958,-1.6824,-1.6228,-1.5584,-1.5584,-1.5467,-1.536,-1.5415,-1.4916,-1.4416,-1.4547,-1.409,-1.3629,-1.3685,0.0,-1.3698,-1.3693,0.0,-1.3728,-1.3815,0.0,0.0,-1.5096,-1.5299,-1.5655,-1.6504,-1.665,-1.7203,-1.8636,-1.886,-1.8887,-1.8913,-1.9018,-1.9087,-1.9104,-1.9101,-1.9133,-1.9193,-1.9253,-1.9325,-1.9384,-1.8603,-1.8149,-1.8093,-1.7309,-1.6904,-1.684,-1.6927,-1.6974,-1.6974,-1.6974,-1.6974,-1.701,-1.7735,-1.8035,-1.809,-1.8814,-1.9102,-1.9108,-1.9103,-1.9102,-1.9123,-1.9235,-1.9367,-1.9516,-1.4504,-1.4498,-1.4505,-1.4503,-1.4503,-1.4503,-1.4503,-1.4903,-1.5316,-1.5662,-1.5814,-1.5994,-1.6267,-1.566,-1.5224,-1.5189,-1.4025,-1.3286,-1.3286,-1.2104,-1.1186,-1.0715,-1.0339,-0.9934,-0.9513,-0.9504,0.0,0.0,-0.9161,0.0,0.0,0.0,-0.8743,-0.8359,-0.9632,-1.0168,-1.0172,-1.0682,-1.155,-1.2643,-1.3099,-1.4666,-1.6702,-1.6702,-1.7676,-1.9036,-1.8931,-1.8744,-1.8548,-1.8448,-1.8125,-1.7748,-1.7678,-1.7084,-1.6399,-1.6399,-1.6023,-1.5613,-1.5633,-1.5396,-1.505,-1.4681,-1.4409,-1.4134,-1.3728,-1.367,-1.369,-1.3645,0.0,0.0,0.0,0.0,0.0,0.0,-1.438,-1.4744,-1.5621,-1.5743,-1.6169,-1.7281,-1.7433,-1.7484,-1.7556,-1.7644,-1.7708,-1.7705,-1.821,-1.8544,-1.8623,-1.9127,-1.9206,-1.8781,-1.7979,-1.7306,-1.6775,-1.6355,-1.6129,-1.6076,-1.65,-1.6697,-1.6697,-1.67,-1.6702,-1.672,-1.7056,-1.7472,-1.7935,-1.8313,-1.8745,-1.9158,-1.9207,-1.9222,-1.9227,-1.9318,-1.9471,-1.9628,-1.4501,-1.4505,-1.4503,-1.4503,-1.4503,-1.4567,-1.4796,-1.5316,-1.5864,-1.6298,-1.6661,-1.694,-1.7115,-1.6871,-1.6706,-1.6693,-1.5635,-1.4958,-1.4958,-1.3449,-1.2299,-1.1712,-1.1198,-1.0576,-0.9843,-0.983,-0.9721,0.0,-0.9504,0.0,0.0,0.0,-0.9185,-0.8692,-1.0059,-1.0652,-1.0664,-1.1509,-1.2337,-1.3145,-1.3971,-1.5402,-1.7047,-1.7273,-1.8048,-1.9018,-1.8931,-1.878,-1.8613,-1.8514,-1.8373,-1.8263,-1.817,-1.7701,-1.7168,-1.7168,-1.6712,-1.6204,-1.6204,-1.607,-1.5743,-1.5009,-1.4759,-1.4504,-1.3741,-1.3615,-1.3667,-1.3613,-1.3646,0.0,0.0,0.0,-1.3672,-1.3672,0.0,-1.405,-1.47,-1.4858,-1.5282,-1.6307,-1.6433,-1.6491,-1.6592,-1.6658,-1.6708,-1.6702,-1.757,-1.8133,-1.8202,-1.9043,-1.9172,-1.8378,-1.7566,-1.6742,-1.5862,-1.5568,-1.5395,-1.5328,-1.5843,-1.6092,-1.6067,-1.6066,-1.6069,-1.6078,-1.6297,-1.6733,-1.7305,-1.7798,-1.8372,-1.8945,-1.9239,-1.9374,-1.942,-1.9462,-1.9594,-1.9741,-1.4503,-1.4503,0.0,-1.4503,-1.4503,-1.4759,-1.5536,-1.568,-1.6261,-1.7821,-1.7303,-1.7105,-1.7878,-1.7209,-1.6693,-1.6702,-1.6648,-1.6621,-1.6621,-1.5119,-1.4207,-1.4189,-1.263,-1.1418,-1.0676,-1.0658,-1.0285,-0.9504,-0.9504,0.0,0.0,0.0,0.0,0.0,-1.0262,-1.0601,-1.0645,-1.1463,-1.2267,-1.3082,-1.3949,-1.5728,-1.7945,-1.8733,-1.905,-1.9078,-1.8948,-1.8807,-1.8669,-1.8475,-1.8311,-1.8181,-1.8046,-1.7946,-1.7871,-1.7871,-1.7807,-1.7732,-1.7732,-1.7251,-1.6583,-1.5842,-1.5177,-1.4495,-1.3691,-1.3559,-1.3605,-1.3605,-1.3605,-1.3605,-1.3597,-1.36,-1.3603,-1.3603,-1.3608,0.0,0.0,-1.386,-1.4584,-1.6295,-1.6549,-1.6595,-1.6602,-1.6664,-1.6708,-1.6702,-1.757,-1.8131,-1.8204,-1.9091,-1.9262,-1.8518,-1.7716,-1.6875,-1.5996,-1.5151,-1.4702,-1.4626,-1.4586,-1.4534,-1.4468,-1.4468,-1.4475,-1.452,-1.53,-1.5655,-1.5793,-1.7359,-1.809,-1.8315,-1.916,-1.9574,-1.9696,-1.9696,-1.9735,-1.9813,-1.4503,0.0,-1.4503,-1.4503,-1.4503,-1.4769,-1.5579,-1.6601,-1.7482,-1.8032,-1.8729,-1.9294,-1.9558,-1.9763,-1.9875,-1.9875,-1.8905,-1.8289,-1.8289,-1.6742,-1.5348,-1.4282,-1.3613,-1.2656,-1.1395,-1.1359,-1.1006,-1.0289,-1.0289,-1.0019,0.0,0.0,0.0,0.0,-1.0867,-1.1441,-1.1521,-1.3395,-1.4335,-1.4711,-1.6121,-1.7492,-1.8724,-1.9005,-1.9104,-1.9078,-1.8948,-1.8834,-1.8742,-1.8534,-1.8375,-1.8234,-1.8104,-1.8027,-1.7964,-1.7914,-1.7847,-1.78,-1.78,-1.7669,-1.735,-1.6608,-1.592,-1.5215,-1.4409,-1.4281,-1.4298,-1.4213,-1.4614,-1.4991,-1.499,-1.4554,-1.4195,-1.4195,-1.3828,-1.3559,0.0,-1.379,-1.4141,-1.4773,-1.4943,-1.5006,-1.5006,-1.5069,-1.5129,-1.517,-1.6499,-1.7352,-1.7476,-1.8869,-1.9064,-1.7751,-1.7438,-1.6631,-1.5215,-1.4914,-1.4734,-1.4676,-1.4598,-1.4554,-1.4526,-1.4494,-1.4466,-1.4483,-1.4709,-1.5132,-1.5715,-1.6253,-1.718,-1.8305,-1.8689,-1.9214,-1.977,-1.977,-1.9804,-1.9882,-1.5301,-1.5117,-1.4842,-1.4548,-1.4741,-1.5288,-1.639,-1.7674,-1.8629,-1.8915,-2.0053,-2.0824,-2.0824,-2.1225,-2.1504,-2.1504,-2.0291,-1.953,-1.953,-1.7963,-1.6549,-1.5497,-1.5039,-1.4099,-1.255,-1.2523,-1.205,-1.1093,-1.0833,-1.0429,0.0,0.0,0.0,0.0,0.0,-1.1853,-1.1961,-1.4386,-1.5403,-1.5554,-1.7232,-1.838,-1.9104,-1.9104,-1.9104,-1.9078,-1.8948,-1.8843,-1.8724,-1.8524,-1.8375,-1.8243,-1.8113,-1.8027,-1.7964,-1.7914,-1.7847,-1.78,-1.78,-1.7847,-1.7724,-1.6974,-1.649,-1.5974,-1.5166,-1.5014,-1.5023,-1.4943,-1.5343,-1.5691,-1.5707,-1.5044,-1.45,-1.4499,-1.3922,-1.3487,0.0,-1.3714,-1.3856,-1.3954,-1.4098,-1.4207,-1.4229,-1.4274,-1.4331,-1.4387,-1.5685,-1.666,-1.7083,-1.8482,-1.8671,-1.7337,-1.7299,-1.6497,-1.4818,-1.4799,-1.4779,-1.4741,-1.4691,-1.4655,-1.4634,-1.4592,-1.4574,-1.4574,-1.45,-1.4798,-1.5373,-1.5652,-1.6451,-1.7553,-1.8262,-1.889,-1.9451,-1.9764,-1.9896,-1.995,-1.6752,-1.6282,-1.5527,-1.4796,-1.5307,-1.6344,-1.7922,-1.884,-1.9647,-2.0465,-2.1204,-2.1662,-2.1662,-2.1633,-2.1604,-2.1604,-2.088,-2.04,-2.0364,-1.882,-1.7853,-1.7697,-1.6831,-1.564,-1.4143,-1.4064,-1.3341,-1.1908,-1.1169,-1.0768,0.0,0.0,0.0,0.0,-1.118,-1.1859,-1.1967,-1.4423,-1.5509,-1.5717,-1.7323,-1.8416,-1.9104,-1.9104,-1.9104,-1.9078,-1.8948,-1.8825,-1.8669,-1.8466,-1.832,-1.8181,-1.8046,-1.7964,-1.7903,-1.7903,-1.7847,-1.78,-1.78,-1.7847,-1.7732,-1.7025,-1.6888,-1.6693,-1.5928,-1.5748,-1.5748,-1.5748,-1.5782,-1.5799,-1.5799,-1.5145,-1.4601,-1.4563,-1.3895,-1.3421,-1.3496,-1.3616,-1.3741,-1.3881,-1.4068,-1.4223,-1.4291,-1.4305,-1.4331,-1.4387,-1.5212,-1.611,-1.7055,-1.7987,-1.8135,-1.7327,-1.7299,-1.6502,-1.4818,-1.4799,-1.4799,-1.4799,-1.4803,-1.4769,-1.4698,-1.4699,-1.4702,-1.4697,-1.4624,-1.4639,-1.4753,-1.5523,-1.5909,-1.6173,-1.7827,-1.8575,-1.8811,-1.9685,-2.0002,-2.0006,-1.6862,-1.6734,-1.6722,-1.7108,-1.7353,-1.7821,-1.8847,-1.9675,-2.0501,-2.1345,-2.2072,-2.2491,-2.2491,-2.2923,-2.3207,-2.3207,-2.2528,-2.183,-2.1233,-2.0138,-1.8914,-1.7612,-1.7223,-1.658,-1.5573,-1.4969,-1.4258,-1.3438,-1.2752,-1.1822,-1.0696,0.0,0.0,0.0,0.0,-1.1887,-1.2072,-1.5087,-1.706,-1.8192,-1.8616,-1.8923,-1.9104,-1.9104,-1.9104,-1.9078,-1.8948,-1.8852,-1.8742,-1.8534,-1.8385,-1.8255,-1.8115,-1.8027,-1.7964,-1.7914,-1.7847,-1.78,-1.78,-1.7847,-1.7852,-1.7664,-1.7262,-1.683,-1.6576,-1.6523,-1.6504,-1.6457,-1.6877,-1.7264,-1.7264,-1.6639,-1.5963,-1.5409,-1.4243,-1.3413,-1.3421,-1.3536,-1.3682,-1.381,-1.3959,-1.4105,-1.4207,-1.4268,-1.4331,-1.4387,-1.5212,-1.611,-1.7055,-1.7987,-1.8135,-1.7327,-1.7299,-1.6502,-1.4818,-1.4799,-1.4794,-1.4799,-1.4794,-1.4794,-1.4775,-1.4775,-1.4769,-1.4773,-1.4701,-1.4706,-1.4787,-1.5003,-1.5468,-1.6118,-1.6625,-1.7615,-1.8873,-1.9699,-2.0028,-2.0083,-1.7877,-1.8232,-1.8727,-1.9533,-1.9696,-1.9739,-1.9812,-2.0832,-2.1768,-2.2263,-2.2932,-2.3359,-2.333,-2.3643,-2.3827,-2.3806,-2.3134,-2.2499,-2.2018,-2.0794,-1.9621,-1.8553,-1.8014,-1.7365,-1.6549,-1.5784,-1.5066,-1.4444,-1.3465,-1.2574,-1.1736,0.0,0.0,0.0,0.0,-1.2417,-1.2605,-1.5456,-1.7589,-1.9053,-1.9053,-1.907,0.0,-1.9104,-1.9104,-1.9078,-1.8948,-1.8861,-1.8769,-1.86,-1.8445,-1.8328,-1.8224,-1.8136,-1.8087,-1.8037,-1.7933,-1.7836,-1.7836,-1.7847,-1.7867,-1.7867,-1.7572,-1.7277,-1.7256,-1.7237,-1.7237,-1.7188,-1.7515,-1.78,-1.78,-1.7204,-1.6451,-1.5714,-1.4903,-1.4251,-1.393,-1.3974,-1.397,-1.3782,-1.3902,-1.405,-1.4194,-1.4259,-1.4334,-1.439,-1.4849,-1.5548,-1.6523,-1.7434,-1.7577,-1.6798,-1.7126,-1.6502,-1.4818,-1.4799,-1.4799,-1.4799,-1.4799,-1.4804,-1.4804,-1.4804,-1.4794,-1.4794,-1.4789,-1.4813,-1.4841,-1.4841,-1.5128,-1.5617,-1.6068,-1.7073,-1.8326,-1.8783,-1.944,-2.0098,-1.9425,-2.0118,-2.083,-2.1543,-2.1806,-2.1676,-2.0917,-2.2052,-2.3033,-2.3125,-2.3702,-2.4074,-2.3996,-2.3927,-2.3867,-2.3806,-2.3216,-2.2769,-2.2609,-2.1223,-2.0209,-1.979,-1.8917,-1.8058,-1.7243,-1.6407,-1.5697,-1.5133,-1.3789,-1.3123,-1.3067,0.0,0.0,0.0,0.0,-1.3268,-1.3687,-1.5733,-1.7525,-1.9001,-1.9001,-1.9045,-1.9104,-1.9104,-1.9104,-1.9078,-1.8948,-1.8861,-1.8788,-1.8655,-1.8521,-1.8406,-1.8329,-1.8253,-1.8202,-1.8192,-1.8048,-1.7903,-1.7892,-1.7836,-1.78,-1.78,-1.78,-1.78,-1.78,-1.78,-1.78,-1.78,-1.78,-1.78,-1.78,-1.7204,-1.6485,-1.585,-1.5578,-1.5232,-1.4588,-1.4466,-1.4272,-1.3761,-1.388,0.0,-1.4187,-1.4259,-1.4331,-1.4389,-1.4402,-1.4838,-1.5846,-1.6733,-1.6911,-1.6278,-1.6939,-1.6549,-1.4987,-1.4855,-1.4799,-1.4799,-1.4799,-1.4799,-1.4799,-1.4799,-1.4799,-1.4799,-1.4869,-1.4896,-1.4896,-1.49,-1.4907,-1.4985,-1.5813,-1.6657,-1.7428,-1.7428,-1.8414,-1.9788,-2.0951,-2.1058,-2.1222,-2.1414,-2.2098,-2.2565,-2.2419,-2.274,-2.3226,-2.3829,-2.4021,-2.4055,-2.3927,-2.3907,-2.3867,-2.3806,-2.3678,-2.3322,-2.2636,-2.2219,-2.1285,-1.9697,-1.9358,-1.8778,-1.7868,-1.6521,-1.5832,-1.5819,-1.4482,-1.3545,-1.3019,0.0,0.0,0.0,0.0,-1.4183,-1.6005,-1.6437,-1.7525,-1.9001,-1.9001,-1.9045,-1.9104,-1.9104,-1.9104,-1.9078,-1.8948,-1.8896,-1.8851,-1.8656,-1.8588,-1.8531,-1.8358,-1.8258,-1.8192,-1.8125,-1.8009,-1.7892,-1.7825,-1.7811,-1.78,-1.78,-1.78,-1.78,-1.78,-1.78,-1.78,-1.78,-1.78,-1.78,-1.78,-1.7204,-1.6665,-1.6538,-1.5485,-1.4647,-1.452,-1.4033,-1.3689,-1.37,-1.388,-1.4054,-1.4187,-1.4259,-1.4331,-1.4389,-1.4402,-1.4838,-1.5846,-1.6733,-1.7173,-1.7093,-1.7224,-1.6845,-1.5883,-1.516,-1.4799,-1.4799,-1.4799,-1.4799,-1.4799,-1.4799,-1.4799,-1.4799,-1.4869,-1.4896,-1.4896,-1.4899,-1.4933,-1.5004,-1.5157,-1.5755,-1.653,-1.6532,-1.7172,-1.8134,-2.1774,-2.1844,-2.2021,-2.2508,-2.2969,-2.3284,-2.3314,-2.3363,-2.3567,-2.399,-2.4084,-2.4055,-2.3957,-2.3977,-2.3957,-2.3856,-2.3856,-2.3659,-2.3201,-2.2622,-2.1858,-2.0841,-1.9835,-1.9047,-1.8529,-1.7072,-1.6204,-1.5947,-1.4994,-1.4193,-1.3566,-1.3674,-1.3525,-1.3178,0.0,-1.5079,-1.6516,-1.6894,-1.7786,-1.8949,-1.8958,-1.9008,-1.9101,-1.9104,-1.9095,-1.9076,-1.8948,-1.8896,-1.8869,-1.8714,-1.8629,-1.8581,-1.8494,-1.8385,-1.8287,-1.8215,-1.8076,-1.7933,-1.7909,-1.7845,-1.78,-1.78,-1.78,-1.78,-1.78,-1.7507,-1.7227,-1.7227,-1.7227,-1.7227,-1.7227,-1.6629,-1.613,-1.613,-1.5528,-1.4935,-1.4554,-1.4245,-1.3981,-1.3726,-1.388,-1.4054,-1.4187,-1.4259,-1.4315,-1.4346,-1.4378,-1.4634,-1.5151,-1.6426,-1.6799,-1.6031,-1.6853,-1.6699,-1.5437,-1.501,-1.4799,-1.4799,-1.4799,-1.4799,-1.4799,-1.4799,-1.4799,-1.4799,-1.4868,-1.49,-1.4905,-1.4938,-1.4971,-1.5001,-1.4999,-1.5274,-1.568,-1.5678,-1.6227,-1.7102,-2.2369,-2.2494,-2.2745,-2.3471,-2.3629,-2.3657,-2.373,-2.3751,-2.3813,-2.3935,-2.4015,-2.4035,-2.3955,-2.4025,-2.4016,-2.3896,-2.3886,-2.3822,-2.3698,-2.2901,-2.2261,-2.1884,-2.0321,-1.9304,-1.901,-1.7556,-1.6573,-1.6115,-1.5505,-1.4905,-1.4344,-1.4466,-1.4515,-1.4535,-1.5205,-1.5929,-1.6671,-1.7249,-1.8039,-1.8905,-1.8922,-1.899,-1.9099,-1.9103,-1.9094,-1.9058,-1.8939,-1.8887,-1.886,-1.8734,-1.866,-1.8622,-1.8599,-1.8511,-1.8385,-1.8299,-1.8161,-1.8024,-1.7994,-1.792,-1.7833,-1.7833,-1.7833,-1.7833,-1.7833,-1.726,-1.6718,-1.6718,-1.6589,-1.6479,-1.6479,-1.5994,-1.5595,-1.5595,-1.5468,-1.5164,-1.458,-1.4433,-1.4221,-1.3752,-1.388,-1.4052,-1.4194,-1.4259,-1.43,-1.43,-1.4359,-1.4431,-1.4495,-1.615,-1.6472,-1.5098,-1.652,-1.6577,-1.5095,-1.4893,-1.4799,-1.4799,-1.4799,-1.4799,-1.4799,-1.4799,-1.4799,-1.4799,-1.4868,-1.4908,-1.4931,-1.4982,-1.5001,-1.5003,-1.5003,-1.5044,-1.5103,-1.5103,-1.5531,-1.621,-2.3045,-2.2981,-2.3007,-2.3211,-2.3348,-2.3453,-2.3519,-2.358,-2.3669,-2.3806,-2.3882,-2.3885,-2.3827,-2.3934,-2.3957,-2.3816,-2.3806,-2.375,-2.3618,-2.3356,-2.2785,-2.1857,-2.0828,-1.9875,-1.902,-1.7554,-1.6794,-1.6807,-1.6197,-1.5634,-1.5101,-1.5172,-1.5208,-1.5244,-1.5912,-1.6647,-1.74,-1.7471,-1.8039,-1.8913,-1.8975,-1.9034,-1.9099,-1.9103,-1.9062,-1.9001,-1.8931,-1.8861,-1.8806,-1.8725,-1.8706,-1.8678,-1.8627,-1.8511,-1.8375,-1.8248,-1.8142,-1.8081,-1.8024,-1.7994,-1.7983,-1.7983,-1.7983,-1.7983,-1.7983,-1.7363,-1.6795,-1.6795,-1.6211,-1.5697,-1.5697,-1.5646,-1.5595,-1.5595,-1.5045,-1.458,-1.4512,-1.4033,-1.3703,-1.3699,-1.3877,-1.4048,-1.4194,-1.4259,-1.43,-1.43,-1.4359,-1.4431,-1.4495,-1.615,-1.6724,-1.5904,-1.6816,-1.6873,-1.5992,-1.5188,-1.4799,-1.4799,-1.4799,-1.4799,-1.4799,-1.4799,-1.4799,-1.4799,-1.4868,-1.493,-1.4994,-1.4998,-1.5001,-1.5003,-1.5003,-1.5044,-1.5103,-1.5103,-1.5149,-1.5226,-2.2999,-2.2961,-2.2974,-2.3061,-2.3123,-2.3184,-2.3253,-2.328,-2.3319,-2.3365,-2.3616,-2.3766,-2.3743,-2.3863,-2.3905,-2.3809,-2.3762,-2.3666,-2.3496,-2.3289,-2.2954,-2.2429,-2.1543,-2.0843,-2.039,-1.9365,-1.8421,-1.7558,-1.74,-1.6822,-1.5859,-1.5969,-1.6,-1.5988,-1.6656,-1.7126,-1.7416,-1.794,-1.8449,-1.8914,-1.8975,-1.9043,-1.909,-1.9008,-1.8966,-1.8931,-1.8825,-1.8743,-1.8687,-1.8657,-1.8638,-1.8629,-1.8561,-1.8445,-1.8328,-1.8272,-1.8178,-1.8083,-1.807,-1.8027,-1.8002,-1.8002,-1.8002,-1.7883,-1.7439,-1.672,-1.6001,-1.5521,-1.4813,-1.4412,-1.4868,-1.458,-1.4276,-1.4276,-1.4031,-1.3836,-1.3837,-1.3699,-1.3639,-1.3746,-1.3939,-1.41,-1.4185,-1.4259,-1.43,-1.43,-1.4359,-1.4428,-1.4498,-1.6151,-1.6541,-1.5322,-1.6589,-1.6661,-1.5329,-1.4968,-1.4799,-1.4799,-1.4799,-1.4799,-1.4799,-1.4841,-1.4864,-1.4858,-1.4889,-1.4942,-1.4998,-1.5001,-1.4999,-1.5003,-1.5006,-1.5042,-1.5103,-1.5103,-1.5099,-1.5097,-2.2872,-2.2846,-2.2859,-2.2923,-2.2936,-2.2961,-2.3024,-2.3036,-2.3036,-2.3036,-2.3316,-2.3513,-2.3578,-2.3736,-2.381,-2.372,-2.3684,-2.3587,-2.336,-2.3172,-2.2986,-2.2816,-2.1966,-2.146,-2.1366,-2.0624,-1.9735,-1.8713,-1.8812,-1.8344,-1.7294,-1.7443,-1.7344,-1.708,-1.7744,-1.7889,-1.7666,-1.8317,-1.8724,-1.8914,-1.8975,-1.9043,-1.9083,-1.8922,-1.8852,-1.8798,-1.8697,-1.8612,-1.8536,-1.8532,-1.8529,-1.8509,-1.8483,-1.8396,-1.8304,-1.8298,-1.8215,-1.8132,-1.8132,-1.8089,-1.8065,-1.8065,-1.8065,-1.786,-1.7096,-1.6318,-1.5425,-1.439,-1.3761,-1.3557,-1.4081,-1.3752,-1.3396,-1.3396,-1.3396,-1.3413,-1.3453,-1.3557,-1.3691,-1.3846,-1.4005,-1.413,-1.4223,-1.4268,-1.43,-1.43,-1.4359,-1.4426,-1.4497,-1.6154,-1.6396,-1.4854,-1.6425,-1.6502,-1.4818,-1.4799,-1.4799,-1.4799,-1.4818,-1.4827,-1.4827,-1.4878,-1.49,-1.4897,-1.4919,-1.4959,-1.4997,-1.5003,-1.5006,-1.5027,-1.5028,-1.5057,-1.5097,-1.5097,-1.5106,-1.5097,-2.2803,-2.2751,-2.2716,-2.279,-2.2803,-2.2829,-2.2885,-2.2898,-2.2898,-2.2898,-2.2961,-2.3086,-2.3289,-2.3535,-2.3654,-2.3517,-2.3558,-2.349,-2.3217,-2.3082,-2.2936,-2.2803,-2.1966,-2.1498,-2.1498,-2.0715,-2.0321,-2.0364,-2.0445,-2.0198,-1.9659,-1.9804,-1.9398,-1.8594,-1.9276,-1.9124,-1.8397,-1.8536,-1.8716,-1.8904,-1.8966,-1.9045,-1.9079,-1.8878,-1.8715,-1.8603,-1.8601,-1.8523,-1.8396,-1.8396,-1.8361,-1.8317,-1.8374,-1.8352,-1.8296,-1.8296,-1.8244,-1.82,-1.82,-1.82,-1.82,-1.82,-1.82,-1.7993,-1.7172,-1.6377,-1.5343,-1.3735,-1.3404,-1.3405,-1.3413,-1.3413,-1.3396,-1.3396,-1.3404,-1.3445,-1.3581,-1.3659,-1.3766,-1.397,-1.4059,-1.4154,-1.4291,-1.4305,-1.43,-1.43,-1.4359,-1.4426,-1.4497,-1.6154,-1.6396,-1.4854,-1.6425,-1.6502,-1.4818,-1.4799,-1.4799,-1.4799,-1.4869,-1.4906,-1.4896,-1.4905,-1.4903,-1.4901,-1.4973,-1.4997,-1.5003,-1.5,-1.5036,-1.5103,-1.5103,-1.5101,-1.5102,-1.5102,-1.5103,-1.5097,-2.2725,-2.2712,-2.272,-2.2725,-2.2725,-2.2738,-2.2764,-2.2756,-2.2756,-2.2756,-2.2829,-2.2885,-2.2948,-2.3244,-2.3386,-2.3301,-2.3316,-2.3256,-2.3082,-2.2936,-2.282,-2.2738,-2.2474,-2.2324,-2.2324,-2.2013,-2.1678,-2.1286,-2.1304,-2.1097,-2.065,-2.0702,-2.0526,-2.0151,-1.9765,-1.9428,-1.9124,-1.8763,-1.8696,-1.8843,-1.8905,-1.8941,-1.8941,-1.8741,-1.8609,-1.8515,-1.8428,-1.8365,-1.8329,-1.8329,-1.8296,-1.8242,-1.8265,-1.8255,-1.8223,-1.8223,-1.8221,-1.82,-1.82,-1.82,-1.82,-1.82,-1.82,-1.7993,-1.7182,-1.5954,-1.4691,-1.3675,-1.3429,-1.3405,-1.3404,-1.3396,-1.3429,-1.352,-1.3535,-1.3565,-1.3659,-1.3805,-1.3932,-1.3995,-1.4143,-1.4247,-1.4298,-1.4305,-1.43,-1.43,-1.4868,-1.5248,-1.531,-1.6451,-1.6641,-1.5652,-1.6708,-1.6519,-1.4878,-1.4868,-1.4868,-1.4868,-1.4886,-1.49,-1.4903,-1.4952,-1.4973,-1.497,-1.4994,-1.4996,-1.5004,-1.5049,-1.5083,-1.5103,-1.5105,-1.5099,-1.5096,-1.5106,-1.513,-1.5172,-2.2699,-2.2699,-2.2699,-2.2699,-2.2699,-2.2699,-2.2699,-2.2699,-2.2699,-2.2699,-2.2738,-2.2764,-2.2764,-2.2974,-2.3107,-2.3086,-2.3111,-2.3074,-2.2936,-2.2855,-2.2777,-2.2699,-2.2716,-2.2751,-2.2769,-2.2764,-2.2582,-2.2263,-2.2364,-2.2272,-2.1998,-2.1998,-2.1759,-2.1286,-2.0694,-2.0086,-1.9477,-1.9117,-1.8895,-1.877,-1.8806,-1.8806,-1.877,-1.859,-1.8482,-1.8413,-1.8304,-1.826,-1.8255,-1.8255,-1.8223,-1.82,-1.82,-1.82,-1.82,-1.82,-1.82,-1.82,-1.82,-1.82,-1.82,-1.82,-1.82,-1.7924,-1.6829,-1.5559,-1.4392,-1.3649,-1.3446,-1.3413,-1.3429,-1.3462,-1.351,-1.3616,-1.3678,-1.3738,-1.3795,-1.3938,-1.4063,-1.4107,-1.4221,-1.4304,-1.4301,-1.4296,-1.43,-1.43,-1.5127,-1.5794,-1.6164,-1.7077,-1.7108,-1.6076,-1.6875,-1.6549,-1.4924,-1.4895,-1.4904,-1.4904,-1.4931,-1.4942,-1.494,-1.4974,-1.5003,-1.5006,-1.5025,-1.5045,-1.5036,-1.5081,-1.5101,-1.5101,-1.5102,-1.5106,-1.5096,-1.51,-1.514,-1.52,-2.2699,-2.2699,-2.2699,-2.2699,-2.2699,-2.2699,-2.2699,-2.2699,-2.2699,-2.2699,-2.2699,-2.2699,-2.2699,-2.2764,-2.2829,-2.2872,-2.2957,-2.2936,-2.2816,-2.2803,-2.2764,-2.2712,-2.2777,-2.2846,-2.2923,-2.2974,-2.3074,-2.3217,-2.3481,-2.3569,-2.3505,-2.3505,-2.2987,-2.2066,-2.1874,-2.0996,-1.965,-1.9668,-1.9346,-1.8847,-1.8847,-1.881,-1.8743,-1.8594,-1.8509,-1.8442,-1.8316,-1.8278,-1.8269,-1.8217,-1.82,-1.82,-1.82,-1.82,-1.82,-1.82,-1.82,-1.82,-1.82,-1.82,-1.82,-1.82,-1.82,-1.7812,-1.6321,-1.531,-1.4469,-1.3743,-1.3496,-1.3429,-1.3504,-1.3567,-1.3653,-1.3783,-1.3875,-1.3963,-1.4078,-1.4109,-1.4161,-1.4291,-1.4311,-1.4308,-1.4315,-1.4306,-1.4306,-1.4306,-1.522,-1.6118,-1.6875,-1.787,-1.7724,-1.6231,-1.6968,-1.6597,-1.4918,-1.4908,-1.4908,-1.4913,-1.4968,-1.5001,-1.4998,-1.5004,-1.5011,-1.5011,-1.5073,-1.5103,-1.5094,-1.5099,-1.5106,-1.5106,-1.5106,-1.5106,-1.5096,-1.5113,-1.5146,-1.5196,-2.2699,-2.2699,-2.2699,-2.2699,-2.2699,-2.2699,-2.2699,-2.2699,-2.2699,-2.2699,-2.2699,-2.2699,-2.2699,-2.2712,-2.2725,-2.2751,-2.2816,-2.2833,-2.2803,-2.2751,-2.2738,-2.2769,-2.2833,-2.2957,-2.3132,-2.3135,-2.3232,-2.3427,-2.3598,-2.3631,-2.3582,-2.3519,-2.3251,-2.2809,-2.211,-2.1572,-2.1154,-2.0644,-2.0394,-2.031,-2.0363,-2.0342,-2.0258,-2.0131,-2.004,-1.9903,-1.9274,-1.9045,-1.895,-1.839,-1.82,-1.82,-1.82,-1.82,-1.82,-1.82,-1.82,-1.82,-1.82,-1.82,-1.82,-1.82,-1.82,-1.7942,-1.6967,-1.6093,-1.5309,-1.4564,-1.3956,-1.3578,-1.364,-1.371,-1.3992,-1.4728,-1.4397,-1.4291,-1.497,-1.4594,-1.4277,-1.4364,-1.4374,-1.4381,-1.4378,-1.4378,-1.4378,-1.4378,-1.5773,-1.6478,-1.6176,-1.7636,-1.8034,-1.7051,-1.7271,-1.6621,-1.4992,-1.4985,-1.4978,-1.498,-1.4992,-1.5,-1.5004,-1.5049,-1.5083,-1.5083,-1.5091,-1.5099,-1.5099,-1.5102,-1.5106,-1.5106,-1.5106,-1.5099,-1.5113,-1.5159,-1.5189,-1.5215,-2.2699,-2.2699,-2.2699,-2.2699,-2.2699,-2.2699,-2.2699,-2.2699,-2.2699,-2.2699,-2.2699,-2.2699,-2.2699,-2.2699,-2.2699,-2.2699,-2.2729,-2.2742,-2.2742,-2.2725,-2.2725,-2.2803,-2.2923,-2.3095,-2.3289,-2.3374,-2.3501,-2.3638,-2.3741,-2.3727,-2.3605,-2.3528,-2.3336,-2.3031,-2.253,-2.2094,-2.1713,-2.1359,-2.1048,-2.0802,-2.0844,-2.0791,-2.0702,-2.0636,-2.0547,-2.0402,-1.9958,-1.9792,-1.97,-1.895,-1.87,-1.864,-1.8312,-1.82,-1.82,-1.82,-1.82,-1.82,-1.82,-1.82,-1.82,-1.82,-1.82,-1.7993,-1.7182,-1.6662,-1.6032,-1.4924,-1.4409,-1.4175,-1.4279,-1.437,-1.4745,-1.569,-1.5251,-1.4954,-1.542,-1.4833,-1.4356,-1.4402,-1.4399,-1.4399,-1.4399,-1.4399,-1.4399,-1.4399,-1.5646,-1.6248,-1.5919,-1.7197,-1.7603,-1.6822,-1.6857,-1.6288,-1.5009,-1.5002,-1.5,-1.4998,-1.5032,-1.5049,-1.5049,-1.5081,-1.5101,-1.5105,-1.5102,-1.5106,-1.5106,-1.5106,-1.5106,-1.5106,-1.5103,-1.5097,-1.5108,-1.5183,-1.5217,-1.5251,-2.2699,-2.2699,-2.2699,-2.2699,-2.2699,-2.2699,-2.2699,-2.2699,-2.2699,-2.2699,-2.2699,-2.2699,-2.2699,-2.2699,-2.2699,-2.2712,-2.2712,-2.2712,-2.2699,-2.2712,-2.2751,-2.2829,-2.3024,-2.3229,-2.3441,-2.3625,-2.3757,-2.3804,-2.3845,-2.3768,-2.3573,-2.3494,-2.331,-2.3011,-2.2936,-2.255,-2.1971,-2.1983,-2.1654,-2.1136,-2.1136,-2.1056,-2.0953,-2.0941,-2.0867,-2.0722,-2.0618,-2.0575,-2.0463,-1.9714,-1.9398,-1.9191,-1.8562,-1.8286,-1.82,-1.82,-1.82,-1.82,-1.82,-1.82,-1.82,-1.82,-1.82,-1.8019,-1.7337,-1.7093,-1.66,-1.5191,-1.4848,-1.4855,-1.4995,-1.5141,-1.5575,-1.6631,-1.6229,-1.5782,-1.5791,-1.5098,-1.4551,-1.4429,-1.442,-1.442,-1.442,-1.442,-1.442,-1.442,-1.5276,-1.5785,-1.5716,-1.6603,-1.6771,-1.603,-1.6197,-1.5889,-1.5025,-1.5015,-1.5019,-1.5019,-1.5073,-1.5097,-1.5097,-1.5099,-1.5106,-1.5106,-1.5096,-1.5096,-1.5099,-1.5103,-1.5103,-1.5097,-1.511,-1.5121,-1.5123,-1.5186,-1.5251,-1.53,-2.2699,-2.2699,-2.2699,-2.2699,-2.2699,-2.2699,-2.2699,-2.2699,-2.2699,-2.2699,-2.2699,-2.2699,-2.2699,-2.2699,-2.2716,-2.2777,-2.2782,-2.2764,-2.2699,-2.2742,-2.2833,-2.2961,-2.316,-2.3386,-2.3645,-2.38,-2.3852,-2.3797,-2.3745,-2.3656,-2.3517,-2.3324,-2.3193,-2.3074,-2.2957,-2.2837,-2.2724,-2.2795,-2.2754,-2.2665,-2.2665,-2.2616,-2.255,-2.2478,-2.241,-2.2259,-2.1639,-2.1406,-2.1294,-2.0501,-1.9829,-1.9286,-1.9174,-1.87,-1.82,-1.82,-1.82,-1.82,-1.82,-1.82,-1.82,-1.82,-1.82,-1.8166,-1.8045,-1.7492,-1.6769,-1.5963,-1.5306,-1.4936,-1.5129,-1.5281,-1.5879,-1.7442,-1.7089,-1.6625,-1.6689,-1.6014,-1.5249,-1.4573,-1.4482,-1.4482,-1.4482,-1.4482,-1.4482,-1.4482,-1.5302,-1.5532,-1.492,-1.5715,-1.5861,-1.5133,-1.5874,-1.5914,-1.5087,-1.5078,-1.5085,-1.5085,-1.5099,-1.5102,-1.5102,-1.5102,-1.5106,-1.5106,-1.5097,-1.51,-1.5104,-1.5098,-1.5095,-1.5108,-1.5159,-1.5177,-1.5189,-1.5264,-1.5286,-1.5315,-2.2699,-2.2699,-2.2699,-2.2699,-2.2699,-2.2699,-2.2699,-2.2699,-2.2699,-2.2699,-2.2699,-2.2699,-2.2699,-2.2699,-2.2725,-2.2795,-2.2833,-2.2872,-2.291,-2.291,-2.2986,-2.3147,-2.3351,-2.3571,-2.3801,-2.3825,-2.3803,-2.3752,-2.3634,-2.3522,-2.3392,-2.3265,-2.3135,-2.3036,-2.2974,-2.2974,-2.3008,-2.2999,-2.3036,-2.3098,-2.3024,-2.2961,-2.2898,-2.2829,-2.2764,-2.2664,-2.2311,-2.219,-2.2078,-2.1311,-2.082,-2.0389,-1.9562,-1.9071,-1.8709,-1.8321,-1.82,-1.82,-1.82,-1.82,-1.82,-1.82,-1.82,-1.82,-1.82,-1.7947,-1.7381,-1.6242,-1.6124,-1.6184,-1.5939,-1.636,-1.7149,-1.8399,-1.798,-1.7504,-1.7537,-1.6456,-1.5526,-1.5191,-1.4759,-1.4503,-1.4503,-1.4503,-1.4503,-1.4503,-1.4912,-1.5014,-1.472,-1.5116,-1.5212,-1.4907,-1.5391,-1.5483,-1.5105,-1.5102,-1.5106,-1.5106,-1.5106,-1.5106,-1.5106,-1.5103,-1.5097,-1.5097,-1.5136,-1.5146,-1.5149,-1.5149,-1.5146,-1.5158,-1.5191,-1.5222,-1.5263,-1.5293,-1.5323,-1.5363,-2.2699,-2.2699,-2.2699,-2.2699,-2.2699,-2.2699,-2.2699,-2.2699,-2.2699,-2.2699,-2.2699,-2.2699,-2.2699,-2.2712,-2.2764,-2.2833,-2.2923,-2.3036,-2.3208,-2.3175,-2.3211,-2.3363,-2.356,-2.3728,-2.3867,-2.3804,-2.3748,-2.3676,-2.3542,-2.3427,-2.3336,-2.3265,-2.318,-2.3086,-2.3061,-2.3082,-2.3123,-2.3074,-2.3086,-2.3135,-2.3024,-2.2944,-2.2872,-2.2803,-2.2742,-2.2699,-2.2699,-2.2699,-2.2612,-2.2044,-2.1733,-2.1354,-1.9993,-1.9438,-1.9165,-1.8416,-1.82,-1.82,-1.82,-1.82,-1.82,-1.82,-1.82,-1.82,-1.82,-1.8244,-1.7873,-1.6348,-1.6624,-1.7011,-1.6581,-1.7106,-1.7957,-1.9014,-1.8708,-1.8219,-1.7828,-1.6684,-1.5779,-1.546,-1.4879,-1.4503,-1.4503,-1.4503,-1.4503,-1.4503,-1.455,-1.4609,-1.4667,-1.4736,-1.4822,-1.4919,-1.504,-1.5101,-1.5102,-1.5106,-1.5106,-1.5106,-1.5106,-1.5096,-1.5099,-1.5097,-1.5107,-1.5127,-1.5184,-1.5202,-1.5195,-1.5219,-1.5215,-1.5218,-1.5219,-1.5246,-1.5302,-1.5317,-1.5361,-1.5398,-2.2699,-2.2699,-2.2699,-2.2699,-2.2699,-2.2699,-2.2699,-2.2699,-2.2699,-2.2699,-2.2699,-2.2699,-2.2699,-2.2764,-2.2846,-2.2974,-2.3098,-2.3292,-2.3547,-2.3614,-2.3625,-2.358,-2.377,-2.3865,-2.3806,-2.3738,-2.3667,-2.3616,-2.3473,-2.3439,-2.3473,-2.3348,-2.3313,-2.3369,-2.3241,-2.3193,-2.3193,-2.3193,-2.3123,-2.3011,-2.2944,-2.2868,-2.2803,-2.2729,-2.2699,-2.2699,-2.2699,-2.2699,-2.269,-2.2638,-2.2156,-2.1453,-2.0596,-1.9843,-1.9165,-1.8416,-1.82,-1.82,-1.82,-1.82,-1.82,-1.82,-1.82,-1.82,-1.82,-1.8244,-1.7883,-1.6394,-1.6247,-1.6408,-1.6488,-1.6664,-1.73,-1.885,-1.9107,-1.8583,-1.7016,-1.6807,-1.6252,-1.4776,-1.4537,-1.4503,-1.4503,-1.4503,-1.4503,-1.4503,-1.4498,-1.4541,-1.46,-1.4666,-1.4804,-1.499,-1.5061,-1.5101,-1.5102,-1.5106,-1.5106,-1.5106,-1.5106,-1.5099,-1.5104,-1.5101,-1.5133,-1.5189,-1.5204,-1.5204,-1.5204,-1.5272,-1.5289,-1.5291,-1.529,-1.5299,-1.5307,-1.5369,-1.5403,-1.5401,-2.2699,-2.2729,-2.2764,-2.2764,-2.2803,-2.2816,-2.2777,-2.2764,-2.2751,-2.272,-2.2738,-2.2764,-2.2764,-2.2859,-2.2974,-2.3111,-2.3283,-2.3463,-2.3655,-2.3801,-2.3873,-2.3852,-2.3876,-2.3896,-2.3856,-2.3712,-2.3629,-2.3605,-2.3505,-2.3496,-2.3567,-2.3513,-2.3476,-2.3462,-2.3369,-2.3301,-2.3265,-2.3217,-2.3156,-2.3049,-2.2936,-2.2859,-2.2795,-2.2725,-2.2699,-2.2699,-2.2699,-2.2699,-2.2699,-2.2699,-2.2509,-2.2147,-2.138,-2.0613,-1.9751,-1.8553,-1.82,-1.82,-1.82,-1.82,-1.82,-1.82,-1.82,-1.82,-1.82,-1.825,-1.802,-1.705,-1.6976,-1.698,-1.6576,-1.6586,-1.6837,-1.7445,-1.7568,-1.7374,-1.6733,-1.6291,-1.584,-1.5316,-1.4803,-1.4503,-1.4503,-1.4503,-1.4503,-1.4503,-1.4501,-1.4526,-1.4604,-1.4697,-1.4836,-1.4985,-1.5023,-1.506,-1.5102,-1.5106,-1.5106,-1.5106,-1.5103,-1.5097,-1.5101,-1.5142,-1.5178,-1.5197,-1.5243,-1.5265,-1.5264,-1.5291,-1.5301,-1.5298,-1.5348,-1.5362,-1.5369,-1.5393,-1.5404,-1.5397,-2.2756,-2.2816,-2.2855,-2.2842,-2.2893,-2.2898,-2.2808,-2.2803,-2.2782,-2.2738,-2.2777,-2.2816,-2.2859,-2.2974,-2.3123,-2.328,-2.3461,-2.3633,-2.3776,-2.3957,-2.4055,-2.4055,-2.3986,-2.3927,-2.3927,-2.3736,-2.3636,-2.3658,-2.3614,-2.3636,-2.3694,-2.3694,-2.3658,-2.3587,-2.3499,-2.3395,-2.3256,-2.3205,-2.3107,-2.2999,-2.2906,-2.282,-2.2756,-2.2725,-2.2699,-2.2699,-2.2699,-2.2699,-2.2699,-2.2699,-2.2699,-2.2569,-2.1828,-2.0889,-1.9809,-1.8562,-1.82,-1.82,-1.82,-1.82,-1.82,-1.82,-1.82,-1.82,-1.82,-1.8251,-1.8111,-1.7436,-1.7232,-1.705,-1.6587,-1.6334,-1.6272,-1.6497,-1.6565,-1.6514,-1.6258,-1.5821,-1.5483,-1.5343,-1.4839,-1.4503,-1.4503,-1.4503,-1.4503,-1.4503,-1.4501,-1.4537,-1.4628,-1.4742,-1.4859,-1.4998,-1.5002,-1.503,-1.5102,-1.5106,-1.5096,-1.5099,-1.5101,-1.5108,-1.5129,-1.5199,-1.5228,-1.5229,-1.5278,-1.5307,-1.5329,-1.5328,-1.5329,-1.5338,-1.5384,-1.5398,-1.5403,-1.5401,-1.5396,-1.54,-2.2898,-2.2957,-2.2974,-2.291,-2.2961,-2.2957,-2.282,-2.2803,-2.2803,-2.2803,-2.2803,-2.2846,-2.2986,-2.3123,-2.3283,-2.3483,-2.3624,-2.3795,-2.3996,-2.4122,-2.4199,-2.4199,-2.4065,-2.3996,-2.3996,-2.3806,-2.3724,-2.3806,-2.3806,-2.3836,-2.3907,-2.3907,-2.3854,-2.3784,-2.3658,-2.3455,-2.3205,-2.3123,-2.2986,-2.2803,-2.2803,-2.2764,-2.2699,-2.2699,-2.2699,-2.2699,-2.2699,-2.2699,-2.2699,-2.2699,-2.2699,-2.2569,-2.1832,-2.0544,-1.9154,-1.8416,-1.82,-1.82,-1.82,-1.82,-1.82,-1.82,-1.82,-1.82,-1.82,-1.8251,-1.8111,-1.7456,-1.6773,-1.6343,-1.6469,-1.5836,-1.554,-1.6258,-1.6487,-1.6304,-1.5503,-1.5513,-1.532,-1.459,-1.4494,-1.4503,-1.4503,-1.4503,-1.4503,-1.4503,-1.4501,-1.4561,-1.4693,-1.4757,-1.4858,-1.4998,-1.5002,-1.503,-1.5102,-1.5106,-1.5103,-1.5094,-1.5101,-1.5142,-1.5197,-1.5267,-1.5299,-1.5303,-1.5299,-1.5343,-1.5396,-1.5396,-1.5404,-1.5396,-1.5397,-1.5397,-1.5397,-1.5403,-1.54,-1.5399,-2.3111,-2.3205,-2.3265,-2.3193,-2.3205,-2.3168,-2.3024,-2.2974,-2.2936,-2.2936,-2.3024,-2.3123,-2.3265,-2.3444,-2.3594,-2.3698,-2.3825,-2.3986,-2.4132,-2.418,-2.4199,-2.4199,-2.4122,-2.4074,-2.4074,-2.3917,-2.3867,-2.3946,-2.3946,-2.3967,-2.4045,-2.3996,-2.3916,-2.3792,-2.3656,-2.3441,-2.3205,-2.3123,-2.2986,-2.2803,-2.2803,-2.2764,-2.2699,-2.2699,-2.2699,-2.2699,-2.2699,-2.2699,-2.2699,-2.2699,-2.2699,-2.2474,-2.1173,-2.0449,-1.9826,-1.8571,-1.82,-1.82,-1.82,-1.82,-1.82,-1.82,-1.82,-1.82,-1.82,-1.8251,-1.8268,-1.81,-1.7539,-1.6923,-1.6452,-1.5697,-1.5049,-1.4701,-1.4763,-1.4777,-1.4596,-1.4676,-1.4688,-1.4517,-1.4494,-1.4503,-1.4503,-1.4503,-1.4503,-1.4503,-1.4587,-1.468,-1.4766,-1.4831,-1.491,-1.5002,-1.5055,-1.5081,-1.5102,-1.5106,-1.5103,-1.5097,-1.5149,-1.5182,-1.5198,-1.527,-1.5299,-1.5299,-1.5355,-1.5378,-1.54,-1.5398,-1.5397,-1.5397,-1.5402,-1.54,-1.54,-1.5399,-1.54,-1.5396,-2.3359,-2.344,-2.3504,-2.3432,-2.3421,-2.3363,-2.3196,-2.3123,-2.3086,-2.3119,-2.3217,-2.3336,-2.3499,-2.3658,-2.378,-2.3867,-2.4006,-2.4103,-2.419,-2.4199,-2.4199,-2.4199,-2.4161,-2.4132,-2.4132,-2.4026,-2.4006,-2.4084,-2.4084,-2.4094,-2.4132,-2.4074,-2.3957,-2.3795,-2.3658,-2.3441,-2.3147,-2.3061,-2.2923,-2.2764,-2.2764,-2.2738,-2.2699,-2.2699,-2.2699,-2.2699,-2.2699,-2.2699,-2.2699,-2.2699,-2.2699,-2.2431,-2.0897,-2.0394,-2.011,-1.8631,-1.82,-1.82,-1.82,-1.82,-1.82,-1.82,-1.82,-1.82,-1.82,-1.8251,-1.8319,-1.8385,-1.7871,-1.7259,-1.6783,-1.5813,-1.4946,-1.4445,-1.422,-1.4132,-1.4227,-1.4347,-1.445,-1.4498,-1.45,-1.4503,-1.4503,-1.4503,-1.452,-1.458,-1.4648,-1.4737,-1.4835,-1.4902,-1.497,-1.5045,-1.5083,-1.5101,-1.5103,-1.5104,-1.5107,-1.514,-1.518,-1.5212,-1.5239,-1.5279,-1.5313,-1.5335,-1.5381,-1.5395,-1.5398,-1.5396,-1.5404,-1.5402,-1.5395,-1.5401,-1.5397,-1.54,-1.5398,-1.54,-2.3628,-2.3682,-2.371,-2.3649,-2.3625,-2.3549,-2.3363,-2.3289,-2.3256,-2.3324,-2.3386,-2.351,-2.3711,-2.3791,-2.3886,-2.4006,-2.4132,-2.4199,-2.4199,-2.4199,-2.4199,-2.4199,-2.4199,-2.4199,-2.4199,-2.4142,-2.4132,-2.4199,-2.4199,-2.4199,-2.4199,-2.4132,-2.3996,-2.3795,-2.3662,-2.3412,-2.3086,-2.2957,-2.282,-2.2699,-2.2699,-2.2699,-2.2699,-2.2699,-2.2699,-2.2699,-2.2699,-2.2699,-2.2699,-2.2699,-2.2664,-2.2337,-2.0872,-2.0351,-2.0015,-1.8614,-1.82,-1.82,-1.82,-1.82,-1.82,-1.82,-1.82,-1.82,-1.82,-1.8251,-1.8319,-1.8385,-1.7914,-1.746,-1.7317,-1.6149,-1.5178,-1.5108,-1.4542,-1.4158,-1.4287,-1.4426,-1.4498,-1.4497,-1.4503,-1.4503,-1.4503,-1.4508,-1.4559,-1.4688,-1.4712,-1.4771,-1.4901,-1.4971,-1.5038,-1.5103,-1.5097,-1.5102,-1.5097,-1.5108,-1.5136,-1.52,-1.5207,-1.5236,-1.5302,-1.5315,-1.5342,-1.5399,-1.5398,-1.5403,-1.5405,-1.54,-1.5397,-1.5403,-1.5396,-1.5399,-1.54,-1.5399,-1.5402,-1.5403,-2.3827,-2.3896,-2.3907,-2.3854,-2.3751,-2.3666,-2.3625,-2.3558,-2.3535,-2.3603,-2.3673,-2.3771,-2.3925,-2.3986,-2.4074,-2.4151,-2.418,-2.4199,-2.4199,-2.4199,-2.4199,-2.4199,-2.4199,-2.4199,-2.4199,-2.4189,-2.4189,-2.4199,-2.4199,-2.4199,-2.4199,-2.4132,-2.3996,-2.3795,-2.3662,-2.3412,-2.3086,-2.2957,-2.282,-2.2699,-2.2699,-2.2699,-2.2699,-2.2699,-2.2699,-2.2699,-2.2699,-2.2699,-2.2699,-2.2699,-2.2319,-2.1664,-2.0696,-1.9998,-1.9364,-1.8459,-1.82,-1.82,-1.82,-1.82,-1.82,-1.82,-1.82,-1.82,-1.82,-1.8251,-1.83,-1.8319,-1.8295,-1.8064,-1.742,-1.6571,-1.5769,-1.5193,-1.4583,-1.4228,-1.4361,-1.445,-1.4497,-1.4503,-1.4503,-1.4503,-1.4503,-1.4554,-1.4612,-1.4688,-1.4799,-1.4891,-1.4974,-1.504,-1.5083,-1.5099,-1.5099,-1.5101,-1.5095,-1.5151,-1.5193,-1.5196,-1.5248,-1.5289,-1.5301,-1.5351,-1.5391,-1.5402,-1.5402,-1.5405,-1.5403,-1.5402,-1.5398,-1.54,-1.54,-1.54,-1.5397,-1.5401,-1.5404,-1.5399,-2.4108,-2.4065,-2.4065,-2.4006,-2.3907,-2.3825,-2.3791,-2.3738,-2.3727,-2.3789,-2.3845,-2.3927,-2.4035,-2.4113,-2.4161,-2.4199,-2.4199,-2.4199,-2.4199,-2.4199,-2.4199,-2.4199,-2.4199,-2.4199,-2.4199,-2.4199,-2.4199,-2.4199,-2.4199,-2.4199,-2.4199,-2.4132,-2.4006,-2.3846,-2.3714,-2.3478,-2.3193,-2.3049,-2.2898,-2.2751,-2.2751,-2.2725,-2.2699,-2.2699,-2.2699,-2.2699,-2.2699,-2.2699,-2.2699,-2.2699,-2.2207,-2.1458,-2.0644,-1.9886,-1.9165,-1.8416,-1.82,-1.82,-1.82,-1.82,-1.8211,-1.8242,-1.8253,-1.8242,-1.8211,-1.8248,-1.8294,-1.8294,-1.8365,-1.8284,-1.7853,-1.6913,-1.6078,-1.573,-1.4838,-1.4254,-1.4377,-1.4465,-1.4503,-1.4503,-1.4503,-1.4514,-1.4539,-1.4607,-1.4687,-1.479,-1.4859,-1.4942,-1.5044,-1.5079,-1.5101,-1.5103,-1.51,-1.5121,-1.5151,-1.518,-1.5216,-1.5251,-1.5279,-1.5301,-1.5301,-1.5368,-1.5398,-1.5401,-1.54,-1.54,-1.5396,-1.54,-1.54,-1.5399,-1.5398,-1.5396,-1.54,-1.5404,-1.5398,-1.54,-2.473,-2.4612,-2.4593,-2.4534,-2.4466,-2.4406,-2.4347,-2.4178,-2.4086,-2.4127,-2.4078,-2.4064,-2.4103,-2.417,-2.4199,-2.4199,-2.4199,-2.4199,-2.4199,-2.4199,-2.4199,-2.4199,-2.4199,-2.4199,-2.4199,-2.4199,-2.4199,-2.4199,-2.4199,-2.4199,-2.4199,-2.4142,-2.4045,-2.3907,-2.3779,-2.3571,-2.3316,-2.318,-2.2999,-2.2816,-2.2795,-2.2764,-2.2699,-2.2699,-2.2699,-2.2699,-2.2699,-2.2699,-2.2699,-2.2699,-2.2121,-2.1277,-2.061,-1.9809,-1.8993,-1.8381,-1.82,-1.82,-1.82,-1.82,-1.8221,-1.8275,-1.8296,-1.8295,-1.8225,-1.8256,-1.8298,-1.8298,-1.8304,-1.83,-1.831,-1.7271,-1.6387,-1.6338,-1.5262,-1.442,-1.4414,-1.4464,-1.4503,-1.4503,-1.4514,-1.4539,-1.4611,-1.4681,-1.477,-1.4887,-1.4912,-1.4974,-1.5087,-1.5094,-1.5099,-1.5104,-1.5114,-1.5143,-1.5197,-1.5206,-1.5238,-1.5299,-1.5313,-1.5325,-1.5323,-1.5367,-1.5405,-1.5399,-1.5402,-1.5399,-1.54,-1.5399,-1.5396,-1.5403,-1.5401,-1.5396,-1.54,-1.5398,-1.54,-1.5399,-2.629,-2.6282,-2.6262,-2.6262,-2.6211,-2.6159,-2.6149,-2.5545,-2.5099,-2.5118,-2.4553,-2.418,-2.4189,-2.419,-2.4199,-2.4199,-2.4199,-2.4199,-2.4199,-2.4199,-2.4199,-2.4199,-2.4199,-2.4199,-2.4199,-2.4199,-2.4199,-2.4199,-2.4199,-2.4199,-2.4199,-2.4199,-2.4103,-2.3986,-2.3855,-2.3675,-2.3458,-2.3268,-2.3074,-2.2872,-2.282,-2.2764,-2.2699,-2.2699,-2.2699,-2.2699,-2.2699,-2.2699,-2.2699,-2.2699,-2.1751,-2.0532,-2.0429,-1.9456,-1.8329,-1.8226,-1.82,-1.82,-1.82,-1.82,-1.8221,-1.8275,-1.8296,-1.8298,-1.8296,-1.8288,-1.8299,-1.8299,-1.8299,-1.8319,-1.8385,-1.7756,-1.7064,-1.656,-1.583,-1.5132,-1.4569,-1.4494,-1.4503,-1.4503,-1.4545,-1.4607,-1.4682,-1.4755,-1.4823,-1.4894,-1.4948,-1.5019,-1.51,-1.5105,-1.5099,-1.5104,-1.5159,-1.5191,-1.5198,-1.5265,-1.5288,-1.5303,-1.536,-1.5389,-1.5392,-1.5403,-1.5399,-1.5401,-1.5398,-1.54,-1.5398,-1.5405,-1.5399,-1.5401,-1.5398,-1.5402,-1.5404,-1.5403,-1.5402,-1.5399,-2.6695,-2.6593,-2.6593,-2.6593,-2.6582,-2.6396,-2.5948,-2.5583,-2.5188,-2.4738,-2.44,-2.4199,-2.4199,-2.4199,-2.4199,-2.4199,-2.4199,-2.4199,-2.4199,-2.4199,-2.4199,-2.4199,-2.4199,-2.4199,-2.4199,-2.4199,-2.4199,-2.4199,-2.4199,-2.4199,-2.4199,-2.4199,-2.4151,-2.4045,-2.3957,-2.3794,-2.36,-2.3444,-2.3229,-2.2999,-2.2898,-2.2795,-2.2699,-2.2699,-2.2699,-2.2699,-2.2699,-2.2699,-2.2699,-2.2699,-2.1966,-2.0992,-2.0532,-1.9674,-1.8745,-1.8374,-1.8263,-1.8255,-1.826,-1.8262,-1.8263,-1.8342,-1.8361,-1.8363,-1.8397,-1.8349,-1.8299,-1.8294,-1.8272,-1.8253,-1.8328,-1.7796,-1.7162,-1.6586,-1.5936,-1.5265,-1.4587,-1.4494,-1.4505,-1.4545,-1.4624,-1.468,-1.4747,-1.4822,-1.4881,-1.4951,-1.5023,-1.5066,-1.5105,-1.5099,-1.512,-1.5146,-1.518,-1.5222,-1.5255,-1.529,-1.5317,-1.5362,-1.5395,-1.5397,-1.5403,-1.5399,-1.5401,-1.5398,-1.54,-1.5399,-1.5396,-1.5399,-1.5403,-1.5399,-1.54,-1.5404,-1.5401,-1.5401,-1.5398,-1.5404]},{"header":{"parameterUnit":"m.s-1","parameterCategory":1,"la1":30.6,"la2":28.766,"lo1":-90.7593,"lo2":-88.6598,"dy":0.0162,"dx":0.0183,"nx":116,"ny":114,"refTime":"2024-07-02T00:00:00:Z","depth":0,"parameterNumber":3,"parameterNumberName":"V-component_of_WINDS"},"data":[0.0,0.0,0.0,0.0,0.0,0.0,0.0,0.0,0.0,0.0,0.0,0.0,0.0,0.0,0.0,0.0,0.0,0.0,0.0,0.0,0.0,0.0,0.0,0.0,0.0,0.0,0.0,0.0,0.0,0.0,0.0,0.0,0.0,0.0,0.0,0.0,0.0,0.0,0.0,0.0,0.0,0.0,0.0,0.0,0.0,0.0,0.0,0.0,0.0,0.0,0.0,0.0,0.0,0.0,0.0,0.0,0.0,0.0,0.0,0.0,0.0,0.0,0.0,0.0,0.0,0.0,0.0,0.0,0.0,0.0,0.0,0.0,0.0,0.0,0.0,0.0,0.0,0.0,0.0,0.0,0.0,0.0,0.0,0.0,0.0,0.0,0.0,0.0,0.0,0.0,0.0,0.0,0.0,0.0,0.0,0.0,0.0,0.0,0.0,0.0,0.0,0.0,0.0,0.0,0.0,0.0,0.0,0.0,0.0,0.0,0.0,0.0,0.0,0.0,0.0,0.0,0.0,0.0,0.0,0.0,0.0,0.0,0.0,0.0,0.0,0.0,0.0,0.0,0.0,0.0,0.0,0.0,0.0,0.0,0.0,0.0,0.0,0.0,0.0,0.0,0.0,0.0,0.0,0.0,0.0,0.0,0.0,0.0,0.0,0.0,0.0,0.0,0.0,0.0,0.0,0.0,0.0,0.0,0.0,0.0,0.0,0.0,0.0,0.0,0.0,0.0,0.0,0.0,0.0,0.0,0.0,0.0,0.0,0.0,0.0,0.0,0.0,0.0,0.0,0.0,0.0,0.0,0.0,0.0,0.0,0.0,0.0,0.0,0.0,0.0,0.0,0.0,0.0,0.0,0.0,0.0,0.0,0.0,0.0,0.0,0.0,0.0,0.0,0.0,0.0,0.0,0.0,0.0,0.0,0.0,0.0,0.0,0.0,0.0,0.0,0.0,0.0,0.0,0.0,0.0,0.0,0.0,0.0,0.0,0.0,0.0,0.0,0.0,0.0,0.0,0.0,0.0,0.0,0.0,0.0,0.0,0.0,0.0,0.0,0.0,0.0,0.0,0.0,0.0,0.0,0.0,0.0,0.0,0.0,0.0,0.0,0.0,0.0,0.0,0.0,0.0,0.0,0.0,0.0,0.0,0.0,0.0,0.0,0.0,0.0,0.0,0.0,0.0,0.0,0.0,0.0,0.0,0.0,0.0,0.0,0.0,0.0,0.0,0.0,0.0,0.0,0.0,0.0,0.0,0.0,0.0,0.0,0.0,0.0,0.0,0.0,0.0,0.0,0.0,0.0,0.0,0.0,0.0,0.0,0.0,0.0,0.0,0.0,0.0,0.0,0.0,0.0,0.0,0.0,0.0,0.0,0.0,0.0,0.0,0.0,0.0,0.0,0.0,0.0,0.0,0.0,0.0,0.0,0.0,0.0,0.0,0.0,0.0,0.0,0.0,0.0,0.0,0.0,0.0,0.0,0.0,0.0,0.0,0.0,0.0,0.0,0.0,0.0,0.0,0.0,0.0,0.0,0.0,0.0,0.0,0.0,0.0,0.0,0.0,0.0,0.0,0.0,0.0,0.0,0.0,0.0,0.0,0.0,0.0,0.0,0.0,0.0,0.0,0.0,0.0,0.0,0.0,0.0,0.0,0.0,0.0,0.0,0.0,0.0,0.0,0.0,0.0,0.0,0.0,0.0,0.0,0.0,0.0,0.0,0.0,0.0,0.0,0.0,0.0,0.0,0.0,0.0,0.0,0.0,0.0,0.0,0.0,0.0,0.0,0.0,0.0,0.0,0.0,0.0,0.0,0.0,0.0,0.0,0.0,0.0,0.0,0.0,0.0,0.0,0.0,0.0,0.0,0.0,0.0,0.0,0.0,0.0,0.0,0.0,0.0,0.0,0.0,0.0,0.0,0.0,0.0,0.0,0.0,0.0,0.0,0.0,0.0,0.0,0.0,0.0,0.0,0.0,0.0,0.0,0.0,0.0,0.0,0.0,0.0,0.0,0.0,0.0,0.0,0.0,0.0,0.0,0.0,0.0,0.0,0.0,0.0,0.0,0.0,0.0,0.0,0.0,0.0,0.0,0.0,0.0,0.0,0.0,0.0,0.0,0.0,0.0,0.0,0.0,0.0,0.0,0.0,0.0,0.0,0.0,0.0,0.0,0.0,0.0,0.0,0.0,0.0,0.0,0.0,0.0,0.0,0.0,0.0,0.0,0.0,0.0,0.0,0.0,0.0,0.0,0.0,0.0,0.0,0.0,0.0,0.0,0.0,0.0,0.0,0.0,0.0,0.0,0.0,0.0,0.0,0.0,0.0,0.0,0.0,0.0,0.0,0.0,0.0,0.0,0.0,0.0,0.0,0.0,0.0,0.0,0.0,0.0,0.0,0.0,0.0,0.0,0.0,0.0,0.0,0.0,0.0,0.0,0.0,0.0,0.0,0.0,0.0,0.0,0.0,0.0,0.0,0.0,0.0,0.0,0.0,0.0,0.0,0.0,0.0,0.0,0.0,0.0,0.0,0.0,0.0,0.0,0.0,0.0,0.0,0.0,0.0,0.0,0.0,0.0,0.0,0.0,0.0,0.0,0.0,0.0,0.0,0.0,0.0,0.0,0.0,0.0,0.0,0.0,0.0,0.0,0.0,0.0,0.0,0.0,0.0,0.0,0.0,0.0,0.0,0.0,0.0,0.0,0.0,0.0,0.0,0.0,0.0,0.0,0.0,0.0,0.0,0.0,0.0,0.0,0.0,0.0,0.0,0.0,0.0,0.0,0.0,0.0,0.0,0.0,0.0,0.0,0.0,0.0,0.0,0.0,0.0,0.0,0.0,0.0,0.0,0.0,0.0,0.0,0.0,0.0,0.0,0.0,0.0,0.0,0.0,0.0,0.0,0.0,0.0,0.0,0.0,0.0,0.0,0.0,0.0,0.0,0.0,0.0,0.0,0.0,0.0,0.0,0.0,0.0,0.0,0.0,0.0,0.0,0.0,0.0,0.0,0.0,0.0,0.0,0.0,0.0,0.0,0.0,0.0,0.0,0.0,0.0,0.0,0.0,0.0,0.0,0.0,0.0,0.0,0.0,0.0,0.0,0.0,0.0,0.0,0.0,0.0,0.0,0.0,0.0,0.0,0.0,0.0,0.0,0.0,0.0,0.0,0.0,0.0,0.0,0.0,0.0,0.0,0.0,0.0,0.0,0.0,0.0,0.0,0.0,0.0,0.0,0.0,0.0,0.0,0.0,0.0,0.0,0.0,0.0,0.0,0.0,0.0,0.0,0.0,0.0,0.0,0.0,0.0,0.0,0.0,0.0,0.0,0.0,0.0,0.0,0.0,0.0,0.0,0.0,0.0,0.0,0.0,0.0,0.0,0.0,0.0,0.0,0.0,0.0,0.0,0.0,0.0,0.0,0.0,0.0,0.0,0.0,0.0,0.0,0.0,0.0,0.0,0.0,0.0,0.0,0.0,0.0,0.0,0.0,0.0,0.0,0.0,0.0,0.0,0.0,0.0,0.0,0.0,0.0,0.0,0.0,0.0,0.0,0.0,0.0,0.0,0.0,0.0,0.0,0.0,0.0,0.0,0.0,0.0,0.0,0.0,0.0,0.0,0.0,0.0,0.0,0.0,0.0,0.0,0.0,0.0,0.0,0.0,0.0,0.0,0.0,0.0,0.0,0.0,0.0,0.0,0.0,0.0,0.0,0.0,0.0,0.0,0.0,0.0,0.0,0.0,0.0,0.0,0.0,0.0,0.0,0.0,0.0,0.0,0.0,0.0,0.0,0.0,0.0,0.0,0.0,0.0,0.0,0.0,0.0,0.0,0.0,0.0,0.0,0.0,0.0,0.0,0.0,0.0,0.0,0.0,0.0,0.0,0.0,0.0,0.0,0.0,0.0,0.0,0.0,0.0,0.0,0.0,0.0,0.0,0.0,0.0,0.0,0.0,0.0,0.0,0.0,0.0,0.0,0.0,0.0,0.0,0.0,0.0,0.0,0.0,0.0,0.0,0.0,0.0,0.0,0.0,0.0,0.0,0.0,0.0,0.0,0.0,0.0,0.0,0.0,0.0,0.0,0.0,0.0,0.0,0.0,0.0,0.0,0.0,0.0,0.0,0.0,0.0,0.0,0.0,0.0,0.0,0.0,0.0,0.0,0.0,0.0,0.0,0.0,0.0,0.0,0.0,0.0,0.0,0.0,0.0,0.0,0.0,0.0,0.0,0.0,0.0,0.0,0.0,0.0,0.0,0.0,0.0,0.0,0.0,0.0,0.0,0.0,0.0,0.0,0.0,0.0,0.0,0.0,0.0,0.0,0.0,0.0,0.0,0.0,0.0,0.0,0.0,0.0,0.0,0.0,0.0,0.0,0.0,0.0,0.0,0.0,0.0,0.0,0.0,0.0,0.0,0.0,0.0,0.0,0.0,0.0,0.0,0.0,0.0,0.0,0.0,0.0,0.0,0.0,0.0,0.0,0.0,0.0,0.0,0.0,0.0,0.0,0.0,0.0,0.0,0.0,0.0,0.0,0.0,0.0,0.0,0.0,0.0,0.0,0.0,0.0,0.0,0.0,0.0,0.0,0.0,0.0,0.0,0.0,0.0,0.0,0.0,0.0,0.0,0.0,0.0,0.0,0.0,0.0,0.0,0.0,0.0,0.0,0.0,0.0,0.0,0.0,0.0,0.0,0.0,0.0,0.0,0.0,0.0,0.0,0.0,0.0,0.0,0.0,0.0,0.0,0.0,0.0,0.0,0.0,0.0,0.0,0.0,0.0,0.0,0.0,0.0,0.0,0.0,0.0,0.0,0.0,0.0,0.0,0.0,0.0,0.0,0.0,0.0,0.0,0.0,0.0,0.0,0.0,0.0,0.0,0.0,0.0,0.0,0.0,0.0,0.0,0.0,0.0,0.0,0.0,0.0,0.0,0.0,0.0,0.0,0.0,0.0,0.0,0.0,0.0,0.0,0.0,0.0,0.0,0.0,0.0,0.0,0.0,0.0,0.0,0.0,0.0,0.0,0.0,0.0,0.0,0.0,0.0,0.0,0.0,0.0,0.0,0.0,0.0,0.0,0.0,0.0,0.0,0.0,0.0,0.0,0.0,0.0,0.0,0.0,0.0,0.0,0.0,0.0,0.0,0.0,0.0,0.0,0.0,0.0,0.0,0.0,0.0,0.0,0.0,0.0,0.0,0.0,0.0,0.0,0.0,0.0,0.0,0.0,0.0,0.0,0.0,0.0,0.0,0.0,0.0,0.0,0.0,0.0,0.0,0.0,0.0,0.0,0.0,0.0,0.0,0.0,0.0,0.0,0.0,0.0,0.0,0.0,0.0,0.0,0.0,0.0,0.0,0.0,0.0,0.0,0.0,0.0,0.0,0.0,0.0,0.0,0.0,0.0,0.0,0.0,0.0,0.0,0.0,0.0,0.0,0.0,0.0,0.0,0.0,0.0,0.0,0.0,0.0,0.0,0.0,0.0,0.0,0.0,0.0,0.0,0.0,0.0,0.0,0.0,0.0,0.0,0.0,0.0,0.0,0.0,0.0,0.0,0.0,0.0,0.0,0.0,0.0,0.0,0.0,0.0,0.0,0.0,0.0,0.0,0.0,0.0,0.0,0.0,0.0,0.0,0.0,0.0,0.0,0.0,0.0,0.0,0.0,0.0,0.0,0.0,0.0,0.0,0.0,0.0,0.0,0.0,0.0,0.0,0.0,0.0,0.0,0.0,0.0,0.0,0.0,0.0,0.0,0.0,0.0,0.0,0.0,0.0,0.0,0.0,0.0,0.0,0.0,0.0,0.0,0.0,0.0,0.0,0.0,0.0,0.0,0.0,0.0,0.0,0.0,0.0,0.0,0.0,0.0,0.0,0.0,0.0,0.0,0.0,0.0,0.0,0.0,0.0,0.0,0.0,0.0,0.0,0.0,0.0,0.0,0.0,0.0,0.0,0.0,0.0,0.0,0.0,0.0,0.0,0.0,0.0,0.0,0.0,0.0,0.0,0.0,0.0,0.0,0.0,0.0,0.0,0.0,0.0,0.0,0.0,0.0,0.0,0.0,0.0,0.0,0.0,0.0,0.0,0.0,0.0,0.0,0.0,-0.7463,-0.727,0.0,0.0,0.0,0.0,0.0,0.0,0.0,0.0,0.0,0.0,0.0,0.0,0.0,0.0,0.0,0.0,0.0,0.0,0.0,0.0,0.0,0.0,0.0,-0.4738,-0.4632,-0.4478,-0.4585,-0.4593,-0.4438,0.0,0.0,0.0,0.0,0.0,-0.5446,-0.5446,-0.5469,-0.5502,-0.5502,-0.5502,-0.5507,-0.5701,-0.5561,-0.5131,0.0,0.0,0.0,0.0,0.0,0.0,0.0,0.0,0.0,0.0,0.0,0.0,0.0,0.0,0.0,0.0,0.0,0.0,0.0,0.0,0.0,0.0,0.0,0.0,0.0,0.0,0.0,0.0,0.0,0.0,0.0,0.0,0.0,0.0,0.0,0.0,0.0,0.0,0.0,0.0,0.0,0.0,0.0,0.0,0.0,0.0,0.0,0.0,0.0,0.0,0.0,0.0,0.0,0.0,0.0,0.0,0.0,0.0,0.0,0.0,0.0,0.0,0.0,0.0,0.0,0.0,0.0,0.0,0.0,0.0,-0.8332,-0.7992,0.0,0.0,0.0,0.0,0.0,0.0,0.0,0.0,0.0,0.0,0.0,0.0,0.0,0.0,0.0,0.0,0.0,0.0,0.0,0.0,0.0,-0.4783,-0.4788,-0.4737,-0.4578,-0.4266,-0.4355,-0.4284,-0.3963,-0.4427,0.0,0.0,0.0,-0.5446,-0.5502,-0.5571,-0.5607,-0.5607,-0.569,-0.5732,-0.5737,-0.6065,-0.6044,-0.5732,-0.5737,0.0,0.0,0.0,0.0,0.0,0.0,0.0,0.0,0.0,0.0,0.0,0.0,0.0,0.0,0.0,0.0,0.0,0.0,0.0,0.0,0.0,0.0,0.0,0.0,0.0,0.0,0.0,0.0,0.0,0.0,0.0,0.0,0.0,0.0,0.0,0.0,0.0,0.0,0.0,0.0,0.0,0.0,0.0,0.0,0.0,0.0,0.0,0.0,0.0,0.0,0.0,0.0,0.0,0.0,0.0,0.0,0.0,0.0,0.0,0.0,0.0,0.0,0.0,-1.0608,-1.086,-1.0854,-1.0752,-1.0728,-1.0654,-0.9287,-0.8956,-0.933,-0.8887,0.0,0.0,0.0,0.0,0.0,0.0,0.0,0.0,0.0,0.0,0.0,0.0,0.0,0.0,0.0,0.0,0.0,0.0,0.0,-0.4707,-0.4715,-0.4705,-0.4722,-0.4784,-0.4862,-0.491,-0.4915,-0.5101,0.0,0.0,-0.539,-0.5492,-0.5502,-0.5842,-0.6018,-0.6018,-0.6433,-0.6629,-0.6629,-0.668,-0.6686,-0.6629,-0.6688,-0.678,-0.6884,0.0,0.0,0.0,0.0,0.0,0.0,0.0,0.0,0.0,0.0,0.0,0.0,0.0,0.0,0.0,0.0,0.0,0.0,0.0,0.0,0.0,0.0,0.0,0.0,0.0,0.0,0.0,0.0,0.0,0.0,0.0,0.0,0.0,0.0,0.0,0.0,0.0,0.0,0.0,0.0,0.0,-0.5678,-0.668,0.0,0.0,0.0,0.0,0.0,0.0,0.0,0.0,0.0,0.0,0.0,0.0,0.0,-0.9764,-1.0292,-1.0764,-1.1045,-1.1113,-1.1658,-1.19,-1.1888,-1.1423,-1.1211,-1.1176,-1.0567,0.0,-1.0401,-1.0332,0.0,0.0,0.0,0.0,0.0,0.0,0.0,0.0,0.0,0.0,0.0,0.0,0.0,0.0,0.0,0.0,0.0,0.0,0.0,0.0,0.0,-0.4794,-0.4853,-0.4951,-0.5015,-0.5068,-0.5093,-0.5437,-0.5637,-0.5637,-0.5979,-0.6171,-0.6171,-0.6384,-0.6494,-0.6494,-0.6695,-0.6798,-0.6804,-0.7074,-0.7218,-0.7261,-0.7631,-0.7582,-0.7194,-0.6855,0.0,0.0,0.0,0.0,0.0,0.0,0.0,0.0,0.0,0.0,0.0,0.0,0.0,0.0,0.0,0.0,0.0,0.0,0.0,0.0,0.0,0.0,0.0,0.0,0.0,0.0,0.0,0.0,0.0,0.0,0.0,0.0,0.0,0.0,0.0,0.0,0.0,0.0,0.0,-0.5932,-0.667,-0.7399,-0.7283,-0.7299,0.0,0.0,0.0,0.0,0.0,0.0,0.0,0.0,0.0,-1.0305,-1.0534,-1.1055,-1.1888,-1.2107,-1.233,-1.2605,-1.2823,-1.2946,-1.294,-1.2703,-1.2594,-1.2588,-1.2294,-1.2171,-1.2099,-1.1045,-1.0344,-0.9907,0.0,0.0,0.0,0.0,-0.9089,-0.9452,0.0,0.0,0.0,0.0,0.0,0.0,0.0,0.0,0.0,0.0,0.0,0.0,-0.4764,-0.4868,-0.4956,-0.5015,-0.5088,-0.5117,0.0,-0.5526,-0.5817,-0.5916,-0.6321,-0.6603,-0.6725,-0.6893,-0.7043,-0.7162,-0.7162,-0.7162,-0.7167,-0.7514,-0.7709,-0.7795,-0.8282,-0.8195,-0.7665,-0.7382,-0.7395,0.0,0.0,0.0,0.0,0.0,0.0,0.0,0.0,0.0,0.0,0.0,0.0,0.0,0.0,0.0,0.0,0.0,0.0,0.0,0.0,0.0,0.0,0.0,0.0,0.0,0.0,0.0,0.0,0.0,0.0,0.0,0.0,0.0,0.0,0.0,0.0,0.0,0.0,-0.6799,-0.7277,-0.7909,-0.7839,-0.7887,0.0,0.0,0.0,0.0,0.0,0.0,-1.0154,-1.0447,-1.0935,-1.1693,-1.1836,-1.2278,-1.3073,-1.321,-1.3463,-1.382,-1.3925,-1.3977,-1.3977,-1.3851,-1.3793,-1.3788,-1.3523,-1.339,-1.3297,-1.1865,-1.1189,-1.103,-1.0583,-1.0586,-1.0766,-1.0311,-1.0426,-1.0819,0.0,0.0,0.0,0.0,0.0,0.0,0.0,0.0,0.0,0.0,0.0,-0.4561,-0.4691,-0.4882,-0.5025,-0.5093,-0.5156,-0.5166,0.0,0.0,-0.5593,-0.5977,-0.6083,-0.6338,-0.6788,-0.724,-0.768,-0.8134,-0.8134,-0.8134,-0.8134,-0.816,-0.8207,-0.8268,-0.8426,-0.8581,-0.871,-0.8571,-0.8585,-0.8645,0.0,0.0,0.0,0.0,0.0,0.0,0.0,0.0,0.0,0.0,0.0,0.0,0.0,0.0,0.0,0.0,0.0,0.0,0.0,0.0,0.0,0.0,0.0,0.0,0.0,0.0,0.0,0.0,0.0,0.0,0.0,0.0,0.0,0.0,0.0,0.0,0.0,0.0,0.0,-0.8339,-0.7964,0.0,0.0,0.0,0.0,-1.0418,-1.0895,-1.1176,-1.1228,-1.218,-1.2762,-1.2814,-1.3256,-1.3501,-1.3552,-1.4079,-1.4349,-1.4377,-1.4815,-1.5028,-1.5016,-1.4563,-1.4372,-1.4321,-1.3688,-1.339,-1.3378,-1.3169,-1.2804,-1.2393,-1.2365,-1.2288,-1.2196,-1.2174,-1.2403,-1.2769,0.0,0.0,0.0,-0.416,-0.4131,-0.4119,-0.416,-0.4168,-0.4207,-0.4293,-0.4376,-0.4499,0.0,-0.4882,-0.5025,-0.5093,-0.5166,-0.519,-0.5166,0.0,-0.5926,-0.6369,-0.6737,-0.7184,-0.7685,-0.7869,-0.8026,-0.8206,-0.8206,-0.8206,-0.8206,-0.8206,-0.8267,-0.8374,-0.8547,-0.8784,-0.9043,-0.8728,-0.8724,-0.8873,-0.8275,-0.7805,0.0,0.0,0.0,0.0,0.0,0.0,0.0,0.0,0.0,0.0,0.0,0.0,0.0,0.0,0.0,0.0,0.0,0.0,0.0,0.0,0.0,0.0,0.0,0.0,0.0,0.0,0.0,0.0,0.0,0.0,0.0,0.0,0.0,0.0,0.0,0.0,0.0,-0.9805,-0.9721,0.0,-1.0294,-1.0441,-1.0809,-1.1515,-1.2049,-1.2456,-1.2766,-1.3133,-1.3515,-1.386,-1.4038,-1.4258,-1.4563,-1.4752,-1.485,-1.4855,-1.5028,-1.5108,-1.5102,-1.493,-1.485,-1.4822,-1.445,-1.4294,-1.4289,-1.4072,-1.3568,-1.2945,-1.291,-1.2797,-1.2669,-1.2634,-1.2665,-1.2706,-0.4108,-0.4042,0.0,-0.4021,-0.398,-0.3953,-0.4021,-0.4031,-0.4086,-0.4211,-0.433,-0.4473,-0.4681,-0.4897,-0.5049,-0.5093,-0.5166,-0.5205,-0.5205,-0.5532,-0.6006,-0.6601,-0.7302,-0.7832,-0.8196,-0.8206,-0.8206,-0.8206,-0.8206,-0.8206,-0.8206,-0.823,-0.831,-0.8449,-0.8654,-0.8929,-0.9249,-0.9031,-0.9083,-0.9267,-0.8861,-0.8483,-0.8133,0.0,0.0,0.0,0.0,0.0,0.0,0.0,0.0,0.0,0.0,0.0,0.0,0.0,0.0,0.0,0.0,0.0,0.0,0.0,0.0,0.0,0.0,0.0,0.0,0.0,0.0,0.0,0.0,0.0,0.0,0.0,0.0,0.0,0.0,-0.9148,-0.982,-1.0781,-1.0902,-1.103,-1.1359,-1.1658,-1.2054,-1.2567,-1.3101,-1.3544,-1.3845,-1.4017,-1.4264,-1.462,-1.4637,-1.4786,-1.5108,-1.5108,-1.5108,-1.5108,-1.5108,-1.5108,-1.5108,-1.5108,-1.5085,-1.5034,-1.4863,-1.4776,-1.473,-1.45,-1.4092,-1.3596,-1.3558,-1.3466,-1.333,-1.3292,-1.3188,-1.3079,-0.3984,-0.3946,-0.39,-0.389,-0.3839,-0.3821,-0.388,-0.39,-0.3948,-0.4078,-0.4281,-0.4483,-0.4681,-0.4936,-0.5103,-0.5103,-0.5166,-0.52,-0.52,-0.5336,-0.5817,-0.6691,-0.767,-0.8206,-0.8206,-0.8206,-0.8206,-0.8206,-0.8206,-0.8206,-0.8206,-0.8262,-0.8386,-0.8534,-0.8739,-0.905,-0.9426,-0.9569,-0.9742,-0.9881,-0.9485,-0.9356,-0.9354,0.0,0.0,0.0,0.0,0.0,0.0,0.0,0.0,0.0,0.0,0.0,0.0,0.0,0.0,0.0,0.0,0.0,0.0,0.0,0.0,0.0,0.0,0.0,0.0,0.0,0.0,0.0,0.0,0.0,0.0,0.0,0.0,0.0,-0.9175,-0.9569,-1.0236,-1.1257,-1.1377,-1.179,-1.282,-1.2929,-1.3136,-1.3581,-1.4115,-1.4413,-1.4413,-1.4855,-1.5108,-1.5108,-1.5108,-1.5108,-1.5108,-1.5108,-1.5108,-1.5079,-1.5079,-1.5085,-1.5085,-1.5085,-1.5034,-1.4886,-1.4811,-1.473,-1.4581,-1.4448,-1.4396,-1.4396,-1.4396,-1.4303,-1.4199,-1.4199,-1.4093,-1.3997,-0.3925,-0.3877,-0.3797,-0.3699,-0.3668,-0.3661,-0.3675,-0.3803,-0.3931,-0.4022,-0.4287,-0.4535,-0.4681,-0.4936,-0.5103,-0.5103,-0.5166,-0.5219,-0.5267,-0.5674,-0.6315,-0.7233,-0.7876,-0.8206,-0.8206,-0.8206,-0.8206,-0.8206,-0.8206,-0.8206,-0.8206,-0.8262,-0.8584,-0.9093,-0.9441,-0.9715,-0.9918,-1.0205,-1.0236,-1.011,-1.005,-0.9836,-0.9547,0.0,0.0,0.0,0.0,0.0,0.0,0.0,0.0,0.0,0.0,0.0,0.0,0.0,0.0,0.0,0.0,0.0,0.0,0.0,0.0,0.0,0.0,0.0,0.0,0.0,0.0,0.0,0.0,0.0,0.0,0.0,-0.9816,-1.0695,-1.0695,-1.1136,-1.1848,-1.2846,-1.2967,-1.3076,-1.3389,-1.3768,-1.405,-1.4182,-1.4631,-1.4913,-1.4913,-1.5039,-1.5108,-1.5108,-1.5108,-1.5108,-1.5108,-1.5108,-1.5057,-1.4954,-1.4954,-1.4926,-1.4886,-1.4886,-1.4863,-1.4811,-1.4702,-1.4627,-1.4581,-1.435,-1.4246,-1.4246,-1.4246,-1.4163,-1.4033,-1.3957,-1.3834,-1.3721,-0.3821,-0.3745,-0.364,-0.3535,-0.3521,-0.3521,-0.3556,-0.3727,-0.3887,-0.3984,-0.4311,-0.46,-0.4729,-0.4956,-0.5098,-0.5103,-0.5137,-0.5269,-0.5537,-0.6243,-0.6894,-0.7478,0.0,-0.8206,-0.8206,-0.8206,-0.8206,-0.8206,-0.8206,-0.8314,-0.8531,-0.8658,-0.9096,-0.9774,-1.0158,-1.0415,-1.0573,-1.0889,-1.0981,-1.0909,-1.0834,-1.0524,-1.0115,-1.0288,-0.9981,-0.9453,-0.9488,-0.9298,-0.8976,-0.8616,0.0,0.0,0.0,0.0,0.0,0.0,0.0,0.0,0.0,0.0,0.0,0.0,0.0,0.0,0.0,0.0,0.0,0.0,0.0,0.0,0.0,0.0,0.0,0.0,-1.1089,-1.1865,-1.2513,-1.2668,-1.3032,-1.3834,-1.3946,-1.4006,-1.4207,-1.4511,-1.4689,-1.4689,-1.4953,-1.5108,-1.5108,-1.5108,-1.5108,-1.5108,-1.5108,-1.5108,-1.5108,-1.5108,-1.5028,-1.4903,-1.4903,-1.4857,-1.4805,-1.4805,-1.4759,-1.4707,-1.4575,-1.4477,-1.4425,-1.4186,-1.4116,-1.4116,0.0,0.0,0.0,0.0,-1.3668,-1.3592,-0.3689,-0.3587,-0.3471,-0.3401,-0.3398,-0.3422,-0.3481,-0.3664,-0.3846,-0.3974,-0.4336,-0.4638,-0.4773,-0.4971,-0.5093,-0.5093,-0.5093,-0.5357,-0.5955,-0.6878,-0.7456,-0.7571,-0.7983,-0.8206,-0.8206,-0.8206,0.0,0.0,0.0,0.0,0.0,-0.9197,-0.9726,-1.0526,-1.0845,-1.1118,-1.1317,-1.1593,-1.1818,-1.1924,-1.1716,-1.1355,-1.0921,-1.0984,-1.0725,-1.032,-1.032,-0.9954,-0.9443,-0.9363,0.0,0.0,0.0,0.0,0.0,0.0,0.0,0.0,0.0,0.0,0.0,0.0,0.0,0.0,0.0,0.0,0.0,0.0,0.0,0.0,0.0,0.0,0.0,0.0,-1.2276,-1.285,-1.4217,-1.405,-1.3943,-1.4413,-1.4471,-1.4637,-1.5068,-1.5108,-1.5108,-1.5108,-1.5108,-1.5108,-1.5108,-1.5108,0.0,0.0,0.0,-1.5085,-1.5085,-1.5068,-1.4994,-1.4863,-1.4863,-1.4811,-1.473,-1.473,-1.4655,-1.4534,-1.4407,-1.428,-1.4181,-1.4033,-1.3973,-1.3968,-1.3968,-1.3897,-1.3768,-1.3644,-1.3592,-1.3592,-0.3566,-0.3517,-0.346,-0.3342,-0.3363,-0.3401,-0.3411,-0.364,-0.3832,-0.3914,-0.4273,-0.457,-0.4702,-0.4896,-0.502,-0.502,-0.5068,-0.5514,0.0,0.0,-0.7599,-0.8037,-0.8154,-0.8206,0.0,0.0,0.0,0.0,0.0,0.0,0.0,0.0,-0.9956,-1.1142,-1.147,-1.1733,-1.1946,-1.2329,-1.2355,-1.2162,-1.238,-1.2121,-1.1573,-1.127,-1.113,-1.1088,-1.1088,-1.1043,-1.089,-1.0348,-1.0204,-1.0124,-0.9396,0.0,0.0,0.0,0.0,0.0,0.0,0.0,0.0,0.0,0.0,0.0,0.0,0.0,0.0,0.0,0.0,0.0,0.0,0.0,0.0,-1.2224,-1.3295,-1.4117,-1.4366,-1.4637,-1.4855,-1.4959,-1.497,-1.5005,-1.5102,-1.5108,-1.5108,-1.5108,-1.5108,-1.5108,-1.5108,-1.5108,-1.5108,-1.5108,-1.5006,-1.4932,-1.4932,-1.4897,-1.4794,-1.4662,-1.4662,0.0,-1.4326,-1.4326,-1.4239,-1.4109,-1.4091,-1.4062,-1.4038,-1.3892,-1.3768,-1.3697,-1.3792,-1.3768,-1.3644,-1.3621,-1.3592,-1.3592,-0.3478,-0.3422,-0.3376,-0.3317,-0.3328,-0.3363,-0.3398,-0.3629,-0.3821,-0.389,-0.4191,-0.4455,-0.4588,-0.4778,-0.4907,-0.4951,-0.5447,0.0,0.0,-0.7261,-0.7804,-0.8135,0.0,0.0,0.0,0.0,0.0,0.0,0.0,0.0,0.0,0.0,-1.0665,-1.1763,-1.2104,-1.2402,-1.2672,-1.3014,-1.3131,-1.31,-1.3147,-1.3052,-1.2821,-1.2044,-1.1796,-1.1813,-1.1514,-1.1433,-1.1445,-1.1115,-1.102,-1.0928,-1.0225,-0.9725,-0.9318,0.0,0.0,0.0,0.0,0.0,0.0,0.0,0.0,0.0,0.0,0.0,0.0,0.0,0.0,-1.0543,-1.1143,0.0,-1.2483,-1.3061,-1.3904,-1.4554,-1.4734,-1.4959,-1.5108,-1.5108,-1.5108,-1.5079,-1.5011,-1.5006,-1.5006,-1.5006,-1.5006,-1.5034,-1.5108,-1.5034,-1.5006,-1.5006,-1.4909,-1.4846,-1.4846,-1.4822,-1.473,-1.4604,-1.4604,-1.4454,-1.4199,-1.4199,-1.414,-1.3997,-1.3921,-1.3897,-1.3897,-1.3768,-1.3668,-1.3621,-1.3663,-1.3668,-1.3592,-1.3592,-1.3592,-1.3592,-0.3482,-0.3394,-0.3331,-0.331,-0.3296,-0.3317,-0.3376,-0.3587,-0.378,-0.3873,-0.4103,-0.4309,-0.4451,-0.4654,-0.485,0.0,0.0,0.0,0.0,0.0,0.0,0.0,0.0,0.0,0.0,0.0,0.0,0.0,0.0,0.0,0.0,0.0,0.0,-1.2246,-1.2556,-1.292,-1.3284,-1.3537,-1.3815,-1.4057,-1.3907,-1.4013,-1.4119,-1.3086,-1.2565,-1.234,-1.1848,-1.1643,-1.1601,-1.1601,-1.1626,-1.1541,-1.0975,-1.0619,-1.0301,-0.9662,-0.9194,0.0,0.0,0.0,0.0,0.0,0.0,0.0,0.0,-1.0964,-1.1279,-1.1275,-1.161,-1.2,-1.2295,-1.2803,-1.3343,-1.3867,-1.4371,-1.4801,-1.5067,-1.5085,-1.5057,-1.5057,-1.5057,-1.5011,-1.4892,-1.4875,-1.4875,-1.4875,-1.4875,-1.4926,-1.5045,-1.4949,-1.4875,-1.4875,-1.4782,-1.473,-1.473,-1.4661,-1.4586,-1.4488,-1.4488,-1.4361,-1.4111,-1.4111,-1.4046,-1.3921,-1.3821,-1.3768,-1.3739,-1.3644,-1.3592,-1.3592,-1.3592,-1.3592,-1.3592,-1.3592,-1.3592,-1.3592,-0.3664,-0.3563,-0.3442,-0.3318,-0.3295,-0.3303,-0.3307,-0.3433,-0.3601,-0.3794,-0.3997,-0.4171,-0.4309,-0.4552,-0.4932,-0.5475,0.0,0.0,0.0,0.0,0.0,0.0,0.0,0.0,0.0,0.0,0.0,0.0,0.0,0.0,0.0,0.0,0.0,-1.2395,-1.2591,-1.2995,-1.3486,-1.3751,-1.4056,-1.4383,-1.4646,-1.4887,-1.4998,-1.4334,-1.3378,-1.2398,-1.2318,-1.2001,-1.1604,-1.1604,-1.1689,-1.1739,-1.1549,-1.1033,-1.0441,-1.0183,0.0,-0.8887,-0.8812,-0.9436,-1.0378,-1.1453,-1.172,-1.174,0.0,-1.1856,-1.2037,-1.2493,-1.2639,-1.2804,-1.3177,-1.3931,-1.4417,-1.4197,-1.4852,-1.5331,-1.5119,-1.5006,-1.4932,-1.4932,-1.4932,-1.4897,-1.4822,-1.4799,-1.4799,-1.4799,-1.4799,-1.4822,-1.4822,-1.4822,-1.4799,-1.4799,-1.4575,-1.4448,-1.4448,-1.4203,-1.4091,-1.4067,-1.4067,-1.3986,-1.3839,-1.3839,-1.3768,-1.3644,-1.3621,-1.3615,-1.3615,-1.3621,-1.3592,-1.3592,-1.3592,-1.3592,-1.3592,-1.3592,-1.3592,-1.3592,-0.3699,-0.3622,-0.3528,-0.3435,-0.3348,-0.3296,-0.3298,-0.3418,-0.3545,-0.3664,-0.3859,-0.4066,-0.4279,-0.4577,-0.4997,-0.561,-0.6093,-0.6576,-0.7105,-0.7551,0.0,0.0,0.0,0.0,0.0,0.0,0.0,0.0,0.0,0.0,0.0,0.0,0.0,-1.2407,-1.2697,-1.3087,-1.3588,-1.3832,-1.4153,-1.4474,-1.4779,-1.5025,-1.5178,-1.4956,-1.4094,-1.2931,-1.2535,-1.2062,0.0,0.0,-1.1659,-1.1725,-1.1681,-1.1366,-1.0987,-1.0829,-1.0393,0.0,-1.0251,-1.0619,-1.1216,-1.2392,-1.2704,-1.2775,-1.304,-1.3103,-1.316,-1.3344,-1.3386,-1.3483,-1.386,-1.4387,-1.4735,-1.467,-1.5069,-1.5295,-1.5034,-1.4909,-1.48,-1.4725,-1.4651,-1.4633,-1.4678,-1.4678,-1.4678,-1.4678,-1.4678,-1.473,-1.4805,-1.473,-1.4655,-1.4581,-1.4373,-1.4262,-1.4174,-1.4067,-1.3997,-1.3997,-1.3997,-1.3921,-1.3792,-1.3792,-1.3721,-1.3592,-1.3592,-1.3592,-1.3592,-1.3592,-1.3592,-1.3592,-1.3592,-1.3592,-1.3592,-1.3592,-1.3592,-1.3592,-0.3748,-0.3682,-0.3608,-0.3541,-0.3405,-0.331,-0.3325,-0.3397,-0.3496,-0.364,-0.3796,-0.4028,-0.4348,-0.4734,-0.5209,-0.5814,-0.6276,-0.6747,-0.7232,-0.7577,-0.7788,-0.7797,0.0,0.0,0.0,0.0,0.0,0.0,0.0,0.0,0.0,0.0,0.0,-1.2443,-1.2756,-1.319,-1.3705,-1.3973,-1.4292,-1.4625,-1.4872,-1.5071,-1.5208,-1.5073,-1.4348,-1.3336,-1.2845,-1.2204,0.0,0.0,-1.163,-1.167,-1.1667,-1.153,-1.1342,-1.1174,-1.1014,-1.1075,-1.1743,-1.1944,-1.22,-1.3246,-1.3501,-1.359,-1.3914,-1.398,-1.3947,-1.3854,-1.3838,-1.3917,-1.4241,-1.4569,-1.4843,-1.4986,-1.5189,-1.5249,-1.4932,-1.4851,-1.473,-1.4581,-1.443,-1.4378,-1.4436,-1.4436,-1.4436,-1.4436,-1.4436,-1.4493,-1.4568,-1.4488,-1.4389,-1.4285,-1.4163,-1.4046,-1.3949,-1.3921,-1.3897,-1.3897,-1.3897,-1.3844,-1.3744,-1.3744,-1.3692,-1.3592,-1.3592,-1.3592,-1.3592,-1.3592,-1.3592,-1.3592,-1.3592,-1.3592,-1.3592,-1.3592,-1.3592,-1.3592,-0.388,-0.379,-0.3675,-0.3612,-0.343,-0.3317,-0.3387,-0.3342,-0.3426,-0.3748,-0.3856,-0.4076,-0.4538,-0.5066,-0.5621,-0.6222,-0.6648,-0.7118,-0.7652,-0.7691,-0.7739,-0.7797,-0.7812,0.0,0.0,0.0,0.0,0.0,0.0,0.0,0.0,0.0,0.0,-1.2502,-1.2773,-1.3265,-1.3914,-1.4187,-1.4518,-1.4917,-1.5109,-1.523,-1.5225,-1.458,-1.3934,-1.3394,-1.3385,0.0,0.0,0.0,-1.1597,-1.1604,-1.1601,-1.1455,0.0,-1.0998,-1.1181,-1.173,-1.2913,-1.3292,-1.3496,-1.411,-1.4273,-1.4257,-1.4196,-1.4187,-1.4138,-1.3947,-1.3898,-1.3985,-1.4241,-1.4569,-1.4843,-1.4986,-1.5292,-1.535,-1.4954,-1.4851,-1.4702,-1.4448,-1.4303,-1.4163,-1.402,-1.402,-1.402,-1.402,-1.402,-1.402,-1.4015,-1.402,-1.402,-1.4015,-1.3868,-1.3815,-1.3821,-1.3692,-1.3615,-1.3615,-1.3615,-1.3615,-1.3621,-1.3621,-1.3592,-1.3592,-1.3592,-1.3592,-1.3592,-1.3592,-1.3592,-1.3592,-1.3592,-1.3592,-1.3592,-1.3592,-1.3592,-1.3592,-0.3709,-0.3633,-0.3566,-0.3541,-0.3407,-0.3322,-0.339,-0.3342,-0.3373,-0.358,-0.3936,0.0,0.0,0.0,0.0,0.0,-0.6753,-0.7063,-0.7598,-0.7588,-0.7622,-0.7734,-0.7739,-0.798,0.0,0.0,0.0,0.0,0.0,0.0,0.0,0.0,0.0,-1.252,-1.3017,-1.3482,-1.3924,-1.4289,-1.4608,-1.4917,-1.5124,-1.523,-1.5225,-1.4558,-1.3906,-1.3284,0.0,0.0,0.0,0.0,-1.1601,-1.1601,-1.1597,0.0,0.0,-1.1392,-1.1874,-1.2554,-1.3453,-1.3743,-1.3942,-1.4547,-1.4692,-1.4653,-1.4442,-1.4353,-1.4254,-1.402,-1.3934,-1.3985,-1.4241,-1.4644,-1.4974,-1.5113,-1.5352,-1.5367,-1.4954,-1.4697,-1.4477,-1.4303,-1.4064,-1.391,-1.3868,-1.3949,-1.3997,-1.3997,-1.3997,-1.3997,-1.3997,-1.3997,-1.3968,-1.3868,-1.3821,-1.3768,-1.3668,-1.3615,-1.3592,-1.3592,-1.3592,-1.3592,-1.3592,-1.3592,-1.3592,-1.3592,-1.3592,-1.3592,-1.3592,-1.3592,-1.3592,-1.3592,-1.3592,-1.3592,-1.3592,-1.3592,-1.3592,-1.3592,-0.3552,-0.3472,-0.3436,-0.3436,-0.3336,0.0,0.0,0.0,0.0,0.0,0.0,0.0,0.0,0.0,0.0,0.0,0.0,-0.7159,-0.7506,-0.749,-0.7495,-0.7583,-0.7612,-0.786,-0.8387,-0.8802,-0.9266,0.0,0.0,0.0,0.0,0.0,0.0,0.0,-1.3058,-1.3522,-1.3924,-1.4305,-1.4624,-1.4865,-1.4813,-1.4832,-1.4775,-1.3888,-1.327,0.0,0.0,0.0,0.0,-1.153,-1.1549,-1.153,-1.153,0.0,0.0,-1.2249,-1.2796,-1.3318,-1.4095,-1.4353,-1.4527,-1.494,-1.5025,-1.4941,-1.4702,-1.4567,-1.4415,-1.4121,-1.3977,-1.3985,-1.4241,-1.4638,-1.4994,-1.5169,-1.5367,-1.5367,-1.4954,-1.4622,-1.4326,-1.414,-1.3934,-1.3768,-1.3739,-1.3821,-1.3868,-1.3868,-1.3868,-1.3868,-1.3868,-1.3868,-1.3821,-1.3739,-1.3721,-1.3697,-1.3592,-1.3592,-1.3592,-1.3592,-1.3592,-1.3592,-1.3592,-1.3592,-1.3592,-1.3592,-1.3592,-1.3592,-1.3592,-1.3592,-1.3592,-1.3592,-1.3592,-1.3592,-1.3592,-1.3592,-1.3592,-1.3592,-0.3408,-0.3331,-0.3293,0.0,0.0,0.0,0.0,0.0,0.0,0.0,0.0,0.0,0.0,0.0,0.0,0.0,0.0,0.0,-0.7386,0.0,0.0,-0.7401,-0.745,-0.7706,-0.8161,-0.8371,-0.871,0.0,0.0,0.0,0.0,0.0,0.0,0.0,-1.2834,-1.3304,-1.3822,-1.4157,-1.4453,-1.4654,-1.4219,-1.4041,-1.3891,-1.2664,0.0,0.0,0.0,0.0,0.0,0.0,0.0,0.0,0.0,0.0,0.0,-1.3437,-1.3821,-1.4027,-1.4795,-1.511,-1.523,-1.5298,-1.5245,-1.5154,-1.4948,-1.4786,-1.459,-1.4261,-1.4023,-1.3978,-1.4202,-1.4525,-1.4832,-1.5112,-1.5326,-1.5321,-1.4949,-1.4599,-1.4285,-1.4015,-1.3868,-1.3744,-1.3615,-1.3592,-1.3592,-1.3592,-1.3592,-1.3592,-1.3592,-1.3592,-1.3592,-1.3592,-1.3592,-1.3592,-1.3592,-1.3592,-1.3592,-1.3592,-1.3592,-1.3592,-1.3592,-1.3592,-1.3592,-1.3592,-1.3592,-1.3592,-1.3592,-1.3592,-1.3592,-1.3592,-1.3592,-1.3592,-1.3592,-1.3592,-1.3592,-1.3592,0.0,0.0,0.0,0.0,0.0,0.0,0.0,0.0,0.0,0.0,0.0,0.0,0.0,0.0,0.0,0.0,0.0,0.0,-0.7249,0.0,0.0,0.0,0.0,0.0,-0.7742,-0.8096,0.0,0.0,0.0,0.0,0.0,0.0,0.0,0.0,0.0,-1.2123,-1.2511,-1.2838,-1.308,-1.3232,0.0,-1.3185,-1.3046,0.0,0.0,0.0,0.0,0.0,0.0,0.0,0.0,0.0,0.0,-1.3033,-1.3417,-1.3702,-1.4181,-1.4697,-1.5051,-1.5254,-1.5351,-1.5374,-1.5321,-1.5215,-1.4963,-1.4718,-1.4467,-1.4121,-1.3927,-1.3793,-1.3644,-1.3938,-1.4268,-1.443,-1.4711,-1.4853,-1.4698,-1.4419,-1.4158,-1.3886,-1.3739,-1.3644,-1.3592,-1.3592,-1.3592,-1.3592,-1.3592,-1.3592,-1.3592,-1.3592,-1.3592,-1.3592,-1.3592,-1.3592,-1.3592,-1.3592,-1.3592,-1.3592,-1.3592,-1.3592,-1.3592,-1.3592,-1.3592,-1.3592,-1.3592,-1.3592,-1.3592,-1.3592,-1.3592,-1.3592,-1.3592,-1.3592,-1.3592,-1.3592,-1.3592,-1.3592,0.0,0.0,0.0,0.0,0.0,0.0,0.0,0.0,0.0,0.0,0.0,0.0,0.0,0.0,0.0,0.0,0.0,0.0,0.0,0.0,0.0,0.0,0.0,0.0,0.0,0.0,0.0,0.0,0.0,0.0,0.0,0.0,0.0,0.0,0.0,-1.1475,-1.1795,0.0,0.0,0.0,0.0,0.0,0.0,0.0,0.0,0.0,0.0,0.0,0.0,0.0,0.0,-1.2714,-1.3281,-1.3643,-1.3893,-1.4121,0.0,-1.4871,-1.5057,-1.5164,-1.5232,-1.5299,-1.5239,-1.511,-1.4871,-1.4631,-1.4363,-1.4036,-1.3641,-1.3359,-1.3319,-1.3394,-1.3619,-1.4044,-1.4274,-1.4446,-1.4578,-1.4262,-1.3975,-1.3821,-1.3692,-1.3592,-1.3592,-1.3592,-1.3592,-1.3592,-1.3592,-1.3592,-1.3592,-1.3592,-1.3592,-1.3592,-1.3592,-1.3592,-1.3592,-1.3592,-1.3592,-1.3592,-1.3592,-1.3592,-1.3592,-1.3592,-1.3592,-1.3592,-1.3592,-1.3592,-1.3592,-1.3592,-1.3592,-1.3592,-1.3592,-1.3592,-1.3592,-1.3592,-1.3592,-1.3592,0.0,0.0,0.0,0.0,0.0,0.0,0.0,0.0,0.0,-0.3542,-0.4328,-0.5031,0.0,0.0,0.0,0.0,0.0,0.0,0.0,0.0,0.0,0.0,0.0,0.0,0.0,0.0,0.0,0.0,0.0,0.0,0.0,0.0,0.0,0.0,0.0,0.0,0.0,0.0,0.0,0.0,0.0,0.0,0.0,0.0,0.0,0.0,0.0,0.0,0.0,0.0,-1.2879,-1.3102,-1.3725,-1.3898,-1.3963,-1.4476,-1.4644,-1.4685,-1.4866,-1.4914,-1.4967,-1.5072,-1.5019,-1.4866,-1.4662,-1.4401,-1.4107,-1.3805,-1.3145,-1.2695,-1.2908,-1.2795,-1.2878,-1.3586,-1.3805,-1.3994,-1.4363,-1.4061,-1.3792,-1.3768,-1.3663,-1.3592,-1.3592,-1.3592,-1.3592,-1.3592,-1.3592,-1.3592,-1.3592,-1.3592,-1.3592,-1.3592,-1.3592,-1.3592,-1.3592,-1.3592,-1.3592,-1.3592,-1.3592,-1.3592,-1.3592,-1.3592,-1.3592,-1.3592,-1.3592,-1.3592,-1.3592,-1.3592,-1.3592,-1.3592,-1.3592,-1.3592,-1.3592,-1.3592,-1.3592,-1.3592,0.0,0.0,0.0,0.0,0.0,0.0,0.0,0.0,0.0,0.0,0.0,0.0,0.0,0.0,0.0,0.0,0.0,0.0,0.0,0.0,0.0,0.0,0.0,0.0,0.0,0.0,0.0,0.0,0.0,0.0,0.0,0.0,0.0,0.0,0.0,0.0,0.0,0.0,0.0,0.0,0.0,0.0,0.0,0.0,0.0,0.0,0.0,0.0,0.0,0.0,-1.2785,-1.3604,-1.4321,-1.4391,-1.4228,-1.4266,-1.4326,-1.4374,-1.4415,-1.4506,-1.4596,-1.4618,-1.4522,-1.4376,-1.4243,-1.3658,0.0,-1.2938,-1.2321,-1.1766,-1.1653,-1.1771,-1.1959,-1.214,-1.2748,-1.3221,-1.3333,-1.3621,-1.3768,-1.3644,-1.3615,-1.3592,-1.3592,-1.3592,-1.3592,-1.3592,-1.3592,-1.3592,-1.3592,-1.3592,-1.3592,-1.3592,-1.3592,-1.3592,-1.3592,-1.3592,-1.3592,-1.3592,-1.3592,-1.3592,-1.3592,-1.3592,-1.3592,-1.3592,-1.3592,-1.3592,-1.3592,-1.3592,-1.3592,-1.3592,-1.3592,-1.3592,-1.3592,-1.3592,-1.3592,-1.3592,0.0,0.0,0.0,0.0,0.0,0.0,0.0,0.0,0.0,0.0,-0.4089,0.0,0.0,0.0,0.0,0.0,0.0,0.0,0.0,0.0,0.0,0.0,0.0,0.0,0.0,-0.7224,-0.7377,0.0,0.0,0.0,0.0,0.0,0.0,0.0,0.0,0.0,0.0,0.0,0.0,0.0,0.0,0.0,0.0,0.0,0.0,0.0,0.0,0.0,0.0,0.0,-1.2218,-1.3176,-1.4024,-1.4203,-1.4072,-1.4013,-1.4013,-1.4056,-1.4072,-1.4141,-1.4192,-1.4192,-1.4141,-1.3963,-1.3531,0.0,0.0,-1.2236,-1.1576,-1.1092,-1.1143,-1.102,-1.1092,-1.1609,-1.2242,-1.277,-1.3049,-1.3447,-1.3663,-1.3621,-1.3592,-1.3592,-1.3592,-1.3592,-1.3592,-1.3592,-1.3592,-1.3592,-1.3592,-1.3592,-1.3592,-1.3592,-1.3592,-1.3592,-1.3592,-1.3592,-1.3592,-1.3592,-1.3592,-1.3592,-1.3592,-1.3592,-1.3592,-1.3592,-1.3592,-1.3592,-1.3592,-1.3592,-1.3592,-1.3592,-1.3592,-1.3592,-1.3592,-1.3592,-1.3568,-1.3491,0.0,0.0,0.0,0.0,0.0,0.0,0.0,0.0,-0.3269,-0.345,-0.3965,-0.4541,-0.5122,-0.5859,0.0,0.0,0.0,0.0,0.0,0.0,0.0,0.0,0.0,0.0,0.0,0.0,0.0,-0.7475,0.0,0.0,0.0,0.0,0.0,0.0,-0.8844,0.0,0.0,0.0,0.0,0.0,0.0,0.0,0.0,0.0,0.0,0.0,0.0,0.0,0.0,0.0,-1.1532,-1.2386,-1.3206,-1.3594,-1.3748,-1.3681,-1.3681,-1.3731,-1.3775,-1.3791,-1.3808,-1.3808,-1.3791,-1.3601,-1.2881,-1.2598,-1.2283,-1.1476,-1.079,-1.0355,-1.0502,-1.027,-1.0294,-1.1061,-1.1714,-1.2304,-1.2848,-1.3232,-1.3483,-1.3581,-1.3592,-1.3592,-1.3592,-1.3592,-1.3592,-1.3592,-1.3592,-1.3592,-1.3592,-1.3592,-1.3592,-1.3592,-1.3592,-1.3592,-1.3592,-1.3592,-1.3592,-1.3592,-1.3592,-1.3592,-1.3592,-1.3592,-1.3592,-1.3592,-1.3592,-1.3592,-1.3592,-1.3592,-1.3592,-1.3592,-1.3568,-1.3568,-1.3544,-1.3496,-1.3401,-1.33,0.0,0.0,0.0,0.0,0.0,0.0,0.0,0.0,-0.3248,-0.339,-0.3776,-0.424,-0.4787,-0.5715,0.0,0.0,0.0,0.0,0.0,0.0,0.0,0.0,0.0,0.0,0.0,0.0,0.0,-0.7415,-0.7539,0.0,0.0,0.0,0.0,0.0,0.0,-0.9006,-0.9307,0.0,0.0,0.0,0.0,0.0,0.0,0.0,0.0,0.0,0.0,0.0,0.0,0.0,0.0,-1.1492,-1.1948,-1.2623,-1.3267,-1.3267,0.0,0.0,-1.3435,-1.3493,-1.3537,-1.3537,-1.3493,-1.3272,-1.2589,0.0,-1.1326,-1.0566,-0.9879,-0.9335,-0.9056,-0.9314,-0.9631,-0.9844,-1.063,-1.1492,-1.2266,-1.2705,-1.3121,-1.354,-1.3592,-1.3592,-1.3592,-1.3592,-1.3592,-1.3592,-1.3592,-1.3592,-1.3592,-1.3592,-1.3592,-1.3592,-1.3592,-1.3592,-1.3592,-1.3592,-1.3592,-1.3592,-1.3592,-1.3592,-1.3592,-1.3592,-1.3592,-1.3592,-1.3592,-1.3592,-1.3592,-1.3592,-1.3592,-1.3592,-1.3467,-1.3415,-1.3391,-1.3147,-1.3055,-1.3007,0.0,0.0,0.0,0.0,0.0,0.0,0.0,-0.3069,-0.3248,-0.338,-0.3678,-0.4022,-0.4395,-0.5158,0.0,0.0,0.0,0.0,0.0,0.0,0.0,0.0,0.0,0.0,0.0,0.0,0.0,-0.7288,-0.7451,0.0,0.0,0.0,0.0,0.0,0.0,-0.8844,-0.9122,0.0,0.0,0.0,0.0,0.0,0.0,0.0,0.0,0.0,0.0,0.0,-0.9868,0.0,0.0,0.0,-1.0712,-1.1222,0.0,0.0,-1.2995,-1.3047,-1.3093,-1.3127,-1.3138,-1.3138,-1.3093,-1.2801,-1.1891,-1.1415,-1.0873,-0.9891,-0.9321,-0.8951,-0.8767,-0.8987,-0.9302,-0.9645,-1.0391,-1.121,-1.2061,-1.2488,-1.2914,-1.3416,-1.3491,-1.3515,-1.3592,-1.3592,-1.3592,-1.3592,-1.3592,-1.3592,-1.3592,-1.3592,-1.3592,-1.3592,-1.3592,-1.3592,-1.3592,-1.3592,-1.3592,-1.3592,-1.3592,-1.3592,-1.3592,-1.3592,-1.3592,-1.3592,-1.3592,-1.3592,-1.3592,-1.3592,-1.3539,-1.3467,-1.3338,-1.3175,-1.3021,-1.2866,-1.2671,-1.2421,0.0,0.0,0.0,0.0,0.0,0.0,-0.2923,-0.3087,-0.3237,-0.3351,-0.3619,-0.3897,-0.4142,-0.466,-0.5145,-0.5544,0.0,0.0,0.0,0.0,0.0,0.0,0.0,0.0,0.0,0.0,0.0,-0.7254,-0.7421,-0.7563,0.0,0.0,-0.798,-0.8182,0.0,0.0,0.0,0.0,0.0,0.0,0.0,0.0,0.0,0.0,0.0,0.0,0.0,0.0,0.0,0.0,0.0,0.0,0.0,0.0,0.0,0.0,-1.2439,-1.248,-1.2696,-1.2744,-1.2744,-1.2744,-1.2726,-1.2403,-1.1299,-1.0947,-1.0513,-0.9367,-0.8896,-0.869,-0.8598,-0.8689,-0.8952,-0.9526,-1.0028,-1.0751,-1.1872,-1.2238,-1.2625,-1.3272,-1.3338,-1.3391,-1.352,-1.3592,-1.3592,-1.3592,-1.3592,-1.3592,-1.3592,-1.3592,-1.3592,-1.3592,-1.3592,-1.3592,-1.3592,-1.3592,-1.3592,-1.3592,-1.3592,-1.3592,-1.3592,-1.3592,-1.3592,-1.3592,-1.3592,-1.3592,-1.3592,-1.3568,-1.3467,-1.3314,-1.3132,-1.2895,-1.2637,-1.2421,-1.215,-1.1823,0.0,0.0,0.0,0.0,0.0,0.0,0.0,-0.3114,-0.3219,-0.3292,-0.3594,-0.388,-0.4082,-0.4344,-0.4594,-0.4792,0.0,0.0,0.0,0.0,0.0,0.0,0.0,0.0,0.0,0.0,0.0,0.0,0.0,-0.7563,-0.77,-0.7773,-0.7908,-0.8109,0.0,0.0,0.0,0.0,0.0,0.0,0.0,0.0,0.0,0.0,0.0,0.0,0.0,0.0,0.0,0.0,0.0,0.0,0.0,-0.9413,-0.9688,0.0,-1.1562,-1.1734,-1.226,-1.2413,-1.2413,-1.2413,-1.2389,-1.2118,-1.0957,-1.0603,-1.0157,-0.895,-0.8595,-0.8471,-0.8328,-0.8258,-0.8468,-0.9281,-0.9352,-0.9929,-1.1654,-1.1905,-1.2232,-1.3107,-1.3189,-1.3261,-1.3391,-1.3515,-1.3592,-1.3592,-1.3592,-1.3592,-1.3592,-1.3592,-1.3592,-1.3592,-1.3592,-1.3592,-1.3592,-1.3592,-1.3592,-1.3592,-1.3592,-1.3592,-1.3592,-1.3592,-1.3592,-1.3592,-1.3592,-1.3592,-1.3592,-1.3467,-1.3314,-1.317,-1.2837,-1.2529,-1.2254,-1.1703,-1.1427,-1.1247,0.0,0.0,0.0,0.0,0.0,0.0,0.0,0.0,-0.3219,-0.3292,-0.3467,-0.3675,-0.387,-0.4175,-0.4404,-0.4518,0.0,0.0,0.0,0.0,0.0,0.0,0.0,0.0,0.0,0.0,0.0,0.0,0.0,0.0,0.0,-0.7725,-0.7788,-0.7894,-0.7989,-0.8152,0.0,0.0,0.0,0.0,0.0,0.0,-0.845,0.0,0.0,0.0,0.0,0.0,0.0,0.0,0.0,0.0,0.0,0.0,0.0,-0.9621,-1.0268,-1.0751,-1.0966,-1.1022,-1.1022,-1.1022,-1.0995,-1.0768,-1.0056,-0.9777,-0.9453,-0.8652,-0.8384,-0.8263,-0.8178,-0.8337,-0.8663,-0.9246,-0.9734,-1.0443,-1.1605,-1.1871,-1.2199,-1.2793,-1.29,-1.3011,-1.3242,-1.3391,-1.3491,-1.3592,-1.3592,-1.3592,-1.3592,-1.3592,-1.3592,-1.3592,-1.3592,-1.3592,-1.3592,-1.3592,-1.3592,-1.3592,-1.3592,-1.3592,-1.3592,-1.3592,-1.3592,-1.3592,-1.3592,-1.3544,-1.3438,-1.3314,-1.3108,-1.2813,-1.2446,-1.1997,-1.1573,-1.1221,-1.09,-1.0569,0.0,0.0,0.0,0.0,0.0,0.0,0.0,0.0,-0.3219,-0.3254,-0.3286,-0.338,-0.3551,-0.3872,-0.4116,-0.4207,0.0,0.0,0.0,0.0,0.0,0.0,0.0,0.0,0.0,0.0,0.0,0.0,0.0,0.0,0.0,0.0,0.0,-0.7773,-0.7836,0.0,0.0,0.0,0.0,0.0,0.0,0.0,-0.7951,0.0,0.0,0.0,0.0,0.0,0.0,0.0,0.0,0.0,0.0,0.0,0.0,0.0,-0.9047,-0.9507,-1.003,-1.0162,-1.0162,-1.0135,-1.0129,-0.9976,-0.9432,-0.9253,-0.9023,-0.8451,-0.8239,-0.8191,-0.8272,-0.844,-0.877,-0.9381,-0.9982,-1.0661,-1.1542,-1.1858,-1.2148,-1.2579,-1.2696,-1.2856,-1.3108,-1.3295,-1.3438,-1.3515,-1.3515,-1.3515,-1.3515,-1.3515,-1.3544,-1.3592,-1.3592,-1.3592,-1.3592,-1.3592,-1.3592,-1.3592,-1.3592,-1.3592,-1.3592,-1.3592,-1.3592,-1.3592,-1.3592,-1.3491,0.0,-1.3127,-1.2822,-1.2431,-1.1977,-1.1498,-1.1019,-1.0688,-1.0364,-1.0084,0.0,0.0,0.0,0.0,0.0,0.0,0.0,0.0,0.0,0.0,0.0,-0.3043,-0.3168,-0.3478,0.0,0.0,0.0,0.0,0.0,0.0,0.0,0.0,0.0,0.0,0.0,0.0,0.0,-0.7598,-0.7598,-0.7637,-0.77,0.0,0.0,0.0,0.0,0.0,0.0,0.0,0.0,0.0,-0.7081,-0.7176,0.0,0.0,0.0,0.0,0.0,0.0,0.0,0.0,0.0,0.0,0.0,0.0,0.0,0.0,0.0,0.0,0.0,-0.9669,-0.9647,-0.9577,-0.962,-0.9541,-0.9051,-0.8941,0.0,-0.8275,-0.8125,-0.8191,-0.852,-0.8552,-0.8808,-0.965,-1.013,-1.067,-1.1493,-1.1832,-1.2134,-1.2433,-1.2583,-1.2749,-1.2963,-1.3214,-1.3372,-1.3391,-1.3391,-1.3391,-1.3391,-1.3391,-1.3467,-1.3592,-1.3592,-1.3592,-1.3592,-1.3592,-1.3592,-1.3592,-1.3592,-1.3592,-1.3592,-1.3592,-1.3592,-1.3592,-1.3592,-1.342,-1.317,-1.2876,-1.249,-1.2002,-1.1477,-1.1019,-1.059,-1.0154,-0.9899,-0.9766,0.0,0.0,0.0,0.0,0.0,0.0,0.0,0.0,0.0,0.0,0.0,-0.2956,-0.3033,-0.3258,0.0,0.0,0.0,0.0,0.0,0.0,0.0,0.0,0.0,0.0,0.0,0.0,0.0,-0.7598,-0.7598,-0.7637,-0.77,-0.77,0.0,0.0,0.0,0.0,0.0,0.0,0.0,0.0,-0.6016,-0.6159,0.0,0.0,0.0,0.0,-0.7999,-0.7999,0.0,0.0,0.0,0.0,0.0,0.0,0.0,0.0,-0.7932,-0.7972,-0.8272,0.0,-0.8343,-0.8323,-0.8343,-0.8343,0.0,-0.8319,-0.8254,-0.8015,0.0,-0.8048,-0.838,-0.8687,-0.9045,-0.9569,-1.0572,-1.1371,-1.1577,-1.1967,-1.2215,-1.219,-1.2298,-1.25,-1.2754,-1.3022,-1.3181,-1.3242,-1.3242,-1.3242,-1.3242,-1.3338,-1.3415,-1.3443,-1.3544,-1.3592,-1.3592,-1.3592,-1.3592,-1.3592,-1.3592,-1.3592,-1.3592,-1.3592,-1.3592,-1.3592,-1.3491,-1.33,-1.2997,-1.2593,-1.2101,-1.1603,-1.1044,-1.0565,-1.0128,-0.9925,-0.9762,-0.9647,0.0,0.0,0.0,0.0,0.0,0.0,0.0,0.0,0.0,0.0,0.0,0.0,0.0,0.0,0.0,0.0,0.0,0.0,0.0,0.0,0.0,0.0,0.0,0.0,0.0,0.0,0.0,0.0,0.0,-0.7661,0.0,0.0,0.0,0.0,0.0,0.0,0.0,0.0,0.0,0.0,-0.6188,0.0,0.0,0.0,0.0,0.0,-0.7663,-0.7718,0.0,-0.786,-0.7836,-0.7797,0.0,0.0,0.0,0.0,-0.7836,-0.7812,-0.7845,-0.7884,-0.7898,-0.786,-0.7884,-0.7912,-0.799,0.0,0.0,0.0,0.0,-0.8313,-0.8611,-0.898,-0.943,-1.0021,-1.0884,-1.1655,-1.2059,-1.2258,-1.2352,-1.2298,-1.2352,-1.2505,-1.2783,-1.2983,-1.3123,-1.3147,-1.3142,-1.3142,-1.3142,-1.3252,-1.3338,-1.3391,-1.3539,-1.3592,-1.3592,-1.3592,-1.3592,-1.3592,-1.3592,-1.3592,-1.3592,-1.3592,-1.3568,-1.3491,-1.3367,-1.3108,-1.2744,-1.2298,-1.1748,-1.1171,-1.0697,-1.0265,-0.9899,-0.9762,-0.9673,-0.9588,0.0,0.0,0.0,0.0,0.0,0.0,0.0,0.0,0.0,0.0,0.0,0.0,0.0,0.0,0.0,0.0,0.0,0.0,0.0,0.0,0.0,0.0,0.0,0.0,0.0,0.0,0.0,0.0,0.0,0.0,0.0,0.0,-0.7637,0.0,0.0,0.0,0.0,0.0,0.0,-0.7329,-0.6795,0.0,0.0,0.0,0.0,0.0,0.0,0.0,0.0,-0.7713,-0.7728,-0.7754,-0.7705,0.0,0.0,0.0,0.0,0.0,-0.7744,-0.7792,-0.7846,-0.7881,-0.7935,-0.7974,-0.7989,0.0,0.0,0.0,0.0,0.0,-0.906,-0.9399,-0.9872,-1.0638,-1.1199,-1.1808,-1.259,-1.2603,-1.2529,-1.2505,-1.2529,-1.2627,-1.2856,-1.2978,-1.3061,-1.3061,-1.3061,-1.3061,-1.3061,-1.3142,-1.3261,-1.3367,-1.3515,-1.3592,-1.3592,-1.3592,-1.3592,-1.3592,-1.3592,-1.3592,-1.3592,-1.3592,-1.352,-1.3391,-1.3218,-1.289,-1.2426,-1.1977,-1.1402,-1.0794,-1.0389,-1.0032,-0.9766,-0.9647,-0.9588,-0.9588,0.0,0.0,0.0,0.0,0.0,0.0,0.0,0.0,0.0,0.0,0.0,0.0,0.0,0.0,0.0,0.0,0.0,0.0,0.0,0.0,0.0,0.0,0.0,0.0,0.0,0.0,0.0,0.0,0.0,0.0,-0.6609,-0.7012,-0.7374,0.0,0.0,0.0,0.0,0.0,0.0,-0.7192,-0.6706,0.0,0.0,0.0,0.0,0.0,0.0,0.0,0.0,-0.7206,-0.7394,-0.7632,-0.7618,0.0,0.0,0.0,0.0,0.0,-0.7544,-0.7559,-0.7689,-0.8184,-0.8323,-0.8334,-0.8402,0.0,0.0,0.0,0.0,0.0,0.0,-0.9949,-1.0366,-1.0932,-1.1619,-1.223,-1.2633,-1.2681,-1.2632,-1.25,-1.2603,-1.2681,-1.273,-1.2852,-1.2929,-1.2929,-1.2929,-1.2929,-1.2929,-1.3113,-1.3218,-1.3237,-1.3462,-1.3592,-1.3592,-1.3592,-1.3592,-1.3592,-1.3592,-1.3592,-1.3592,-1.3592,-1.352,-1.3391,-1.3016,-1.2662,-1.2274,-1.1528,-1.0972,-1.0522,-1.0058,-0.9788,-0.9618,-0.9614,-0.9588,-0.9588,0.0,0.0,0.0,0.0,0.0,0.0,0.0,0.0,0.0,0.0,0.0,0.0,0.0,0.0,0.0,0.0,0.0,0.0,0.0,0.0,0.0,0.0,0.0,0.0,0.0,0.0,0.0,0.0,0.0,-0.6401,-0.6404,-0.688,-0.731,-0.77,0.0,0.0,0.0,0.0,-0.7557,-0.7505,0.0,0.0,0.0,0.0,0.0,0.0,0.0,0.0,0.0,0.0,-0.68,-0.6917,-0.7022,0.0,0.0,0.0,0.0,0.0,-0.7235,-0.7254,-0.7405,-0.7948,-0.8185,-0.837,-0.8701,-0.8816,0.0,0.0,0.0,0.0,0.0,-1.0312,-1.0706,-1.1414,-1.2002,-1.2479,-1.2774,-1.2808,-1.2783,-1.273,-1.2779,-1.2808,-1.2808,-1.2856,-1.2905,-1.2905,-1.2905,-1.2905,-1.2905,-1.3089,-1.3189,-1.3189,-1.3467,-1.3592,-1.3592,-1.3592,-1.3592,-1.3592,-1.3592,-1.3592,-1.3592,-1.3515,-1.3377,-1.3166,-1.271,-1.2274,-1.1823,-1.1146,-1.062,-1.0209,-0.9899,-0.9706,-0.9588,-0.9588,-0.9588,-0.9588,0.0,0.0,0.0,0.0,0.0,0.0,0.0,0.0,0.0,0.0,0.0,0.0,0.0,0.0,0.0,0.0,0.0,0.0,0.0,0.0,0.0,0.0,0.0,0.0,0.0,0.0,-0.6432,-0.6089,-0.6089,-0.6205,-0.6411,-0.6772,-0.7208,0.0,0.0,0.0,0.0,0.0,-0.7768,-0.7773,0.0,0.0,0.0,0.0,0.0,0.0,0.0,0.0,0.0,0.0,0.0,0.0,0.0,0.0,0.0,-0.6595,-0.6706,-0.6781,-0.6806,-0.6891,-0.7094,-0.7589,-0.801,-0.8412,-0.8858,-0.9094,-0.9244,0.0,0.0,0.0,-1.0493,-1.0798,-1.1223,-1.1963,-1.2349,-1.2632,-1.2856,-1.2905,-1.2905,-1.2905,-1.2905,-1.2905,-1.2905,-1.2905,-1.2905,-1.2905,-1.2905,-1.2905,-1.2905,-1.3074,-1.3185,-1.3185,-1.3396,-1.352,-1.352,-1.352,-1.3539,-1.3592,-1.3592,-1.3592,-1.3544,-1.3443,-1.3262,-1.2939,-1.2451,-1.1952,-1.1402,-1.0845,-1.0338,-0.9951,-0.9818,-0.9677,-0.9588,-0.9588,-0.9588,-0.9588,0.0,0.0,0.0,0.0,0.0,0.0,0.0,0.0,0.0,0.0,0.0,0.0,0.0,0.0,0.0,0.0,0.0,0.0,0.0,0.0,0.0,0.0,0.0,0.0,0.0,-0.5785,-0.5525,-0.5194,-0.5194,-0.5601,-0.6406,-0.6428,-0.6901,-0.77,0.0,0.0,0.0,0.0,-0.771,-0.771,-0.77,0.0,0.0,0.0,0.0,0.0,0.0,0.0,0.0,0.0,0.0,0.0,0.0,0.0,-0.5659,-0.5621,-0.5825,-0.6097,-0.6223,-0.6442,-0.6764,-0.7299,-0.8012,-0.8615,-0.8785,-0.9196,0.0,-0.9567,0.0,-1.0503,-1.0959,-1.1633,-1.222,-1.2585,-1.2662,-1.273,-1.2881,-1.2905,-1.2905,-1.2905,-1.2905,-1.2905,-1.2905,-1.2905,-1.2905,-1.2905,-1.2905,-1.2905,-1.2905,-1.3032,-1.3104,-1.3104,-1.319,-1.3242,-1.3242,-1.3242,-1.3338,-1.3592,-1.3592,-1.3539,-1.3415,-1.3391,-1.3214,-1.2881,-1.2352,-1.1798,-1.1247,-1.0594,-1.0136,-0.9795,-0.9673,-0.9614,-0.9588,-0.9588,-0.9588,-0.9588,0.0,0.0,0.0,0.0,0.0,0.0,0.0,0.0,0.0,0.0,0.0,0.0,0.0,0.0,0.0,0.0,0.0,0.0,0.0,0.0,0.0,0.0,0.0,-0.4673,-0.5267,-0.5372,-0.5266,-0.4976,-0.5054,-0.5545,-0.6394,-0.6394,0.0,0.0,0.0,0.0,0.0,0.0,0.0,-0.77,-0.77,-0.717,0.0,0.0,0.0,0.0,0.0,0.0,0.0,0.0,-0.5253,-0.529,-0.5301,-0.5207,-0.5179,-0.5568,-0.5749,-0.5882,-0.6183,-0.6364,-0.658,-0.6983,-0.7624,0.0,0.0,-0.9601,-1.0257,-1.039,-1.0797,-1.1237,-1.1491,-1.2013,-1.244,-1.2554,-1.2578,-1.2652,-1.2856,-1.2905,-1.2905,-1.2905,-1.2905,-1.2905,-1.2905,-1.2905,-1.2905,-1.2905,-1.2905,-1.2905,-1.2905,-1.3032,-1.3109,-1.3109,-1.3166,-1.3189,-1.3189,-1.3189,-1.3261,-1.3338,-1.3338,-1.3314,-1.3266,-1.3219,-1.3041,-1.2759,-1.2204,-1.1673,-1.112,-1.0543,-1.011,-0.9795,-0.9647,-0.9588,-0.9588,-0.9588,-0.9588,-0.9588,0.0,0.0,0.0,0.0,0.0,0.0,0.0,0.0,0.0,0.0,0.0,0.0,0.0,0.0,0.0,0.0,0.0,0.0,0.0,0.0,0.0,0.0,0.0,-0.4237,-0.4673,-0.4897,-0.4987,-0.4937,-0.5044,-0.5545,-0.6401,0.0,0.0,0.0,0.0,0.0,0.0,0.0,0.0,0.0,-0.7457,-0.7067,0.0,0.0,0.0,0.0,0.0,0.0,0.0,0.0,-0.4897,-0.4769,-0.4803,-0.4709,-0.4681,-0.523,-0.5424,-0.5537,-0.5996,-0.6223,-0.6437,-0.684,0.0,0.0,-0.8912,-0.9859,-1.0655,-1.0994,-1.1448,-1.1859,-1.2039,-1.2358,-1.2554,-1.2554,-1.2554,-1.2627,-1.2856,-1.2905,-1.2905,-1.2905,-1.2905,-1.2905,-1.2905,-1.2905,-1.2905,-1.2905,-1.2905,-1.2905,-1.2905,-1.2983,-1.3032,-1.3032,-1.3074,-1.3108,-1.3108,-1.3108,-1.3108,-1.3108,-1.3108,-1.3137,-1.3166,-1.3118,-1.2929,-1.2607,-1.2076,-1.1548,-1.1044,-1.0441,-1.0029,-0.9736,-0.9644,-0.9588,-0.9588,-0.9588,-0.9588,-0.9588,0.0,0.0,0.0,0.0,0.0,0.0,0.0,0.0,0.0,0.0,0.0,0.0,0.0,0.0,0.0,0.0,0.0,0.0,0.0,0.0,0.0,0.0,0.0,-0.3994,-0.4197,-0.433,-0.4598,-0.5,-0.5069,-0.5545,-0.6392,-0.5983,0.0,0.0,0.0,0.0,0.0,0.0,0.0,0.0,-0.6909,-0.6816,-0.6394,0.0,0.0,0.0,0.0,0.0,0.0,0.0,-0.4863,-0.4661,-0.4463,0.0,0.0,-0.443,-0.4697,-0.503,-0.5554,-0.5949,-0.634,-0.6873,0.0,0.0,-0.9072,-0.9933,-1.0674,-1.13,-1.183,-1.2298,-1.2648,-1.2705,-1.2705,-1.2705,-1.2705,-1.273,-1.2881,-1.2905,-1.2905,-1.2905,-1.2905,-1.2905,-1.2905,-1.2905,-1.2905,-1.2905,-1.2905,-1.2905,-1.2905,-1.2905,-1.2905,-1.2905,-1.2905,-1.2905,-1.2905,-1.2905,-1.2905,-1.2905,-1.2905,-1.2959,-1.3109,-1.3109,-1.2881,-1.2475,-1.1923,-1.1473,-1.1049,-1.0304,-0.9836,-0.9588,-0.9588,-0.9588,-0.9588,-0.9588,-0.9588,-0.9588,0.0,0.0,0.0,0.0,0.0,0.0,0.0,0.0,0.0,0.0,0.0,0.0,0.0,0.0,0.0,0.0,0.0,0.0,0.0,0.0,0.0,0.0,0.0,0.0,0.0,0.0,-0.4739,-0.5,-0.5069,-0.5405,0.0,0.0,0.0,-0.6594,0.0,0.0,0.0,0.0,0.0,0.0,-0.6558,-0.6528,-0.6372,0.0,0.0,0.0,0.0,0.0,0.0,0.0,0.0,0.0,-0.4574,0.0,-0.4668,-0.5034,-0.5326,-0.563,-0.6066,-0.6438,0.0,-0.7242,0.0,0.0,0.0,-1.043,0.0,-1.1988,-1.2306,-1.2401,-1.2432,-1.2426,-1.2426,-1.2426,-1.2426,-1.248,-1.2603,-1.2705,-1.2754,-1.2754,-1.2832,-1.2905,-1.2905,-1.2905,-1.2905,-1.2905,-1.2905,-1.2905,-1.2905,-1.2905,-1.2905,-1.2905,-1.2905,-1.2905,-1.2905,-1.2905,-1.2905,-1.2905,-1.2905,-1.2929,-1.2954,-1.2954,-1.2779,-1.248,-1.2022,-1.1623,-1.1171,-1.033,-0.9836,-0.9588,-0.9588,-0.9588,-0.9588,-0.9588,-0.9588,-0.9588,0.0,0.0,0.0,0.0,0.0,0.0,0.0,0.0,0.0,0.0,0.0,0.0,0.0,0.0,0.0,0.0,0.0,0.0,0.0,0.0,0.0,0.0,0.0,0.0,0.0,-0.4747,-0.4991,0.0,0.0,0.0,0.0,0.0,0.0,-0.6078,0.0,-0.5857,0.0,0.0,0.0,0.0,-0.6089,-0.6157,-0.6139,0.0,0.0,0.0,0.0,0.0,0.0,0.0,0.0,0.0,-0.4638,0.0,0.0,-0.5274,-0.557,-0.5859,-0.6278,-0.6622,0.0,-0.7432,-0.8138,-0.9044,-1.0184,-1.093,-1.1551,-1.222,-1.2352,-1.2303,-1.218,-1.215,-1.2126,-1.2076,-1.2105,-1.218,-1.2249,-1.2377,-1.2451,-1.2451,-1.2578,-1.2656,-1.2656,-1.2754,-1.2832,-1.2832,-1.2856,-1.2905,-1.2905,-1.2905,-1.2905,-1.2905,-1.2905,-1.2905,-1.2905,-1.2905,-1.2905,-1.2905,-1.2905,-1.2905,-1.2905,-1.2905,-1.273,-1.2382,-1.1778,-1.1221,-1.0739,-1.0154,-0.9784,-0.9588,-0.9588,-0.9588,-0.9588,-0.9588,-0.9588,-0.9588,0.0,0.0,-0.2081,-0.19,0.0,0.0,0.0,0.0,0.0,0.0,0.0,-0.1731,0.0,0.0,0.0,-0.1801,0.0,0.0,0.0,0.0,0.0,0.0,0.0,0.0,0.0,0.0,0.0,0.0,0.0,0.0,0.0,0.0,-0.5229,-0.5503,0.0,-0.5009,0.0,0.0,0.0,0.0,-0.5562,-0.5769,-0.5798,-0.5759,0.0,0.0,0.0,0.0,0.0,0.0,0.0,0.0,-0.4738,-0.4688,-0.4886,-0.5335,-0.5605,-0.5862,-0.6327,-0.6658,-0.6986,-0.753,-0.8134,-0.8935,-1.0202,-1.1244,-1.1952,-1.1993,-1.2002,-1.1947,-1.1823,-1.1803,-1.1778,-1.1653,-1.1717,-1.1769,-1.1769,-1.1861,-1.1955,-1.1992,-1.212,-1.2207,-1.2249,-1.2505,-1.2652,-1.2656,-1.2803,-1.2881,-1.2881,-1.2881,-1.2905,-1.2905,-1.2905,-1.2905,-1.2905,-1.2905,-1.2905,-1.2905,-1.2905,-1.2905,-1.2905,-1.2881,-1.2627,-1.2175,-1.1301,-1.0565,-1.0003,-0.9847,-0.971,-0.9588,-0.9588,-0.9588,-0.9588,-0.9588,-0.9588,-0.961,0.0,0.0,-0.2414,-0.2425,0.0,0.0,0.0,0.0,-0.1683,-0.1699,-0.1744,-0.1782,-0.1801,-0.1801,0.0,-0.1801,-0.1854,0.0,0.0,0.0,0.0,0.0,0.0,0.0,0.0,0.0,0.0,0.0,0.0,0.0,0.0,0.0,0.0,-0.4887,0.0,-0.4803,0.0,0.0,0.0,-0.5112,-0.521,-0.5474,-0.5764,-0.539,-0.5483,0.0,0.0,0.0,0.0,0.0,0.0,0.0,-0.5257,-0.5418,-0.5617,-0.5875,-0.6092,-0.6339,-0.6755,-0.7062,0.0,-0.7934,-0.8721,-0.9568,-1.0331,-1.0598,-1.0802,-1.1233,-1.1221,-1.115,-1.1124,-1.1124,-1.1099,-1.1074,-1.0916,-1.0809,-1.0809,-1.0792,-1.0849,-1.1135,-1.129,-1.1517,-1.1945,-1.2126,-1.2274,-1.2377,-1.2607,-1.273,-1.273,-1.2832,-1.2905,-1.2905,-1.2905,-1.2905,-1.2905,-1.2905,-1.2905,-1.2905,-1.2905,-1.2905,-1.2905,-1.2779,-1.2352,-1.1648,-1.1124,-1.0565,-1.0003,-0.9847,-0.971,-0.9588,-0.9588,-0.9588,-0.9588,-0.9588,-0.9588,-0.9581,0.0,0.0,0.0,0.0,0.0,0.0,0.0,0.0,-0.1843,-0.1718,-0.1755,-0.1801,-0.1801,-0.1801,0.0,0.0,-0.1801,-0.1801,0.0,0.0,0.0,0.0,0.0,0.0,0.0,0.0,0.0,0.0,0.0,0.0,0.0,0.0,0.0,-0.456,0.0,-0.4614,0.0,0.0,-0.4931,-0.5053,-0.5083,-0.5248,-0.5434,-0.5195,-0.5249,-0.5429,-0.519,0.0,0.0,0.0,0.0,0.0,0.0,0.0,-0.5582,-0.5724,-0.6047,-0.6404,-0.6653,0.0,0.0,-0.8345,0.0,-0.9501,-0.9816,-0.9782,-0.9751,-0.9995,-1.027,-1.0462,-1.0387,-1.0246,-1.0108,-1.0059,-0.9967,-0.9936,-0.9936,-0.9954,-1.0037,-1.0216,-1.0354,-1.0572,-1.0902,-1.111,-1.1305,-1.1479,-1.1672,-1.1813,-1.1851,-1.1972,-1.2157,-1.2406,-1.2482,-1.2637,-1.2905,-1.2905,-1.2905,-1.2905,-1.2905,-1.2803,-1.2607,-1.2406,-1.2026,-1.1477,-1.0871,-1.0385,-0.9973,-0.9784,-0.9673,-0.9588,-0.9588,-0.9588,-0.9588,-0.9588,-0.9526,-0.9383,0.0,0.0,0.0,0.0,0.0,0.0,0.0,0.0,0.0,-0.1734,-0.1755,-0.1801,-0.1801,-0.1801,-0.1801,0.0,0.0,0.0,-0.1801,0.0,0.0,0.0,0.0,0.0,0.0,0.0,0.0,0.0,0.0,0.0,0.0,0.0,0.0,-0.4346,0.0,0.0,0.0,0.0,-0.4779,-0.497,-0.5053,-0.5093,-0.5098,-0.5098,-0.5098,-0.5098,-0.5098,-0.531,-0.5538,-0.5124,0.0,0.0,0.0,0.0,-0.5346,-0.5462,-0.5834,-0.6262,-0.6432,0.0,-0.7686,-0.8595,-0.9002,-0.9175,-0.9194,-0.9063,-0.8925,-0.89,-0.9367,-0.9734,-0.9637,-0.938,-0.9163,-0.9055,-0.909,-0.9143,-0.9143,-0.9203,-0.9274,-0.9337,-0.9436,-0.9593,-0.9769,-1.0047,-1.0277,-1.0467,-1.0647,-1.0754,-1.0812,-1.0972,-1.1242,-1.169,-1.1842,-1.2159,-1.2627,-1.2632,-1.2651,-1.2675,-1.2651,-1.2455,-1.2088,-1.1768,-1.1545,-1.1347,-1.062,-1.0158,-0.9947,-0.9699,-0.9588,-0.9588,-0.9588,-0.9588,-0.9607,-0.9559,-0.9383,-0.9185,0.0,0.0,0.0,0.0,0.0,0.0,0.0,0.0,0.0,0.0,-0.1755,-0.1801,-0.1801,-0.1801,-0.1801,-0.1801,-0.1801,-0.1801,0.0,0.0,0.0,0.0,0.0,0.0,0.0,0.0,0.0,0.0,0.0,0.0,0.0,0.0,0.0,-0.4144,0.0,0.0,0.0,0.0,-0.465,-0.4842,-0.4965,-0.5044,-0.5098,-0.5098,-0.5098,-0.5098,-0.5098,-0.5136,-0.5197,-0.5299,-0.5316,0.0,0.0,0.0,-0.5454,-0.5815,-0.5892,-0.6012,-0.6654,0.0,-0.823,0.0,-0.8795,-0.9051,-0.918,-0.8951,-0.8748,-0.8797,-0.8855,-0.8869,-0.8845,-0.8808,-0.8778,-0.8755,-0.8625,-0.8523,-0.8523,-0.8331,-0.8332,-0.8684,-0.8741,-0.8924,-0.934,-0.9617,-0.9842,-0.9978,-1.0287,-1.0458,-1.0481,-1.0705,-1.0875,-1.0948,-1.1127,-1.133,-1.1503,-1.1578,-1.1667,-1.176,-1.1667,-1.1489,-1.1252,-1.0745,-1.0671,-1.0943,-1.0496,-1.011,-0.9821,-0.9673,-0.9588,-0.9588,-0.9588,-0.9588,-0.9581,-0.9329,-0.9233,-0.9119,0.0,0.0,0.0,0.0,0.0,0.0,0.0,0.0,0.0,0.0,0.0,-0.1801,-0.1801,-0.1801,-0.1801,-0.1801,-0.1801,0.0,0.0,0.0,0.0,0.0,0.0,0.0,0.0,0.0,0.0,0.0,0.0,0.0,0.0,-0.3973,-0.399,0.0,0.0,0.0,0.0,0.0,-0.4527,-0.4752,-0.4803,-0.4946,-0.5103,-0.5103,-0.5103,-0.5098,-0.5098,-0.5098,-0.5117,-0.5208,-0.5186,-0.513,-0.5103,0.0,0.0,0.0,-0.5449,-0.5677,-0.6412,-0.7297,-0.8108,0.0,-0.8772,-0.8998,-0.8977,-0.868,-0.84,-0.8321,-0.8202,-0.8198,-0.8381,-0.8268,-0.8143,-0.8143,-0.8127,-0.8116,-0.8116,-0.8061,-0.8074,-0.8234,-0.8271,-0.8379,-0.8645,-0.8714,-0.884,-0.9042,-0.9123,-0.9205,-0.9265,-0.9504,-0.9757,-1.007,-1.0332,-1.0654,-1.1026,-1.1172,-1.1299,-1.1436,-1.1211,-1.0985,-1.075,-1.0242,-1.0218,-1.0528,-1.0065,-0.9828,-0.9784,-0.9493,-0.9365,-0.9351,-0.9168,-0.9094,-0.908,-0.8952,-0.8811,-0.8586,0.0,0.0,0.0,0.0,0.0,0.0,0.0,0.0,0.0,0.0,0.0,-0.2004,-0.2004,0.0,0.0,0.0,-0.184,0.0,0.0,0.0,0.0,0.0,0.0,0.0,0.0,0.0,0.0,0.0,0.0,0.0,-0.39,-0.39,-0.39,0.0,-0.39,0.0,0.0,0.0,0.0,-0.463,-0.4775,-0.4979,-0.5211,-0.5336,-0.5406,-0.5419,-0.5312,-0.5273,-0.5263,-0.5141,-0.5068,-0.4995,-0.4828,-0.488,0.0,0.0,0.0,-0.5603,0.0,0.0,-0.7861,-0.8417,-0.8756,-0.8951,-0.8908,-0.8582,-0.8205,-0.7974,-0.7812,-0.7767,-0.803,-0.7876,-0.7694,-0.7694,-0.7812,-0.7895,-0.7895,-0.7966,-0.8,-0.8,-0.8,-0.8045,-0.8143,-0.8049,-0.8086,-0.8283,-0.8205,-0.8184,-0.8287,-0.8463,-0.8754,-0.916,-0.9494,-0.9858,-1.0293,-1.0532,-1.0705,-1.0834,-1.0597,-1.0354,-1.0158,-0.9688,-0.9618,-0.9881,-0.9499,-0.9418,-0.9506,-0.9195,-0.9079,-0.9053,-0.8807,-0.8688,-0.8681,-0.8593,-0.8414,-0.8187,0.0,0.0,0.0,0.0,0.0,0.0,0.0,0.0,0.0,0.0,0.0,-0.2558,-0.2558,-0.2334,-0.2177,-0.2177,-0.1945,0.0,0.0,0.0,0.0,0.0,0.0,0.0,0.0,0.0,0.0,0.0,0.0,0.0,-0.39,-0.39,-0.39,-0.39,-0.39,-0.3935,-0.4005,0.0,0.0,-0.4461,-0.4969,-0.5294,-0.553,-0.5975,-0.6217,-0.6284,-0.59,-0.5769,-0.5694,-0.5249,-0.5098,-0.5078,-0.5005,-0.4867,-0.4767,0.0,0.0,0.0,0.0,-0.6796,0.0,-0.8268,-0.8653,-0.8956,-0.9134,-0.8825,-0.8394,-0.8062,-0.785,-0.7698,-0.7713,-0.7705,-0.7694,-0.7694,-0.7812,-0.7895,-0.7895,-0.7966,-0.8,-0.8,-0.8,-0.8,-0.8,-0.8,-0.8,-0.8021,-0.8021,-0.8021,-0.8017,-0.8143,-0.8241,-0.826,-0.8594,-0.881,-0.89,-0.9232,-0.9462,-0.9586,-0.9395,-0.9278,-0.9258,-0.8778,-0.865,-0.8778,-0.8898,-0.8859,-0.8763,-0.8745,-0.8737,-0.8714,-0.8696,-0.8688,-0.8652,-0.8341,-0.8216,-0.8132,0.0,0.0,0.0,0.0,0.0,0.0,0.0,0.0,0.0,0.0,0.0,0.0,0.0,-0.2514,-0.2474,-0.2516,-0.2317,0.0,0.0,0.0,0.0,0.0,0.0,0.0,0.0,0.0,0.0,0.0,0.0,-0.3582,-0.3585,-0.38,-0.39,-0.39,-0.39,-0.3911,-0.3935,-0.3963,0.0,-0.4679,-0.4871,-0.5238,-0.5712,-0.5929,-0.6125,-0.6253,-0.6155,-0.6151,-0.6113,-0.5688,-0.5552,-0.5497,-0.5169,-0.4985,-0.4885,-0.485,-0.5237,-0.5691,-0.5756,0.0,0.0,-0.7912,-0.8428,-0.8838,-0.8876,-0.8753,-0.8541,-0.8201,-0.7978,-0.7795,-0.7712,-0.7694,-0.7694,-0.7694,-0.785,-0.7966,-0.7966,-0.8135,-0.8262,-0.8262,-0.8262,-0.8262,-0.8262,-0.8107,-0.8,-0.8,-0.7884,-0.7808,-0.7808,-0.794,-0.8002,-0.8002,-0.8246,-0.8443,-0.861,-0.8736,-0.8906,-0.9105,-0.8955,-0.8886,-0.8866,-0.8488,-0.8292,-0.824,-0.8155,-0.8342,-0.8674,-0.8462,-0.8377,-0.8355,-0.8143,-0.8063,-0.8048,-0.7935,-0.7887,-0.7826,0.0,0.0,0.0,-0.3636,0.0,-0.3515,-0.2982,-0.3049,-0.307,-0.2802,0.0,0.0,0.0,0.0,-0.2782,-0.2737,-0.2634,0.0,0.0,0.0,0.0,0.0,0.0,0.0,0.0,0.0,0.0,0.0,0.0,0.0,0.0,-0.363,-0.3793,-0.39,-0.39,-0.39,0.0,0.0,-0.4209,-0.4715,-0.4897,-0.5324,-0.5896,-0.6136,-0.6358,-0.6533,-0.6483,-0.6523,-0.6543,-0.6138,-0.6003,-0.5918,-0.5477,-0.5179,-0.497,-0.4817,-0.5178,-0.5642,-0.5688,0.0,0.0,-0.7732,-0.8138,-0.846,-0.8553,-0.8587,-0.8498,-0.8174,-0.8045,-0.7961,-0.7795,-0.7791,-0.777,-0.7712,-0.785,-0.7963,-0.7963,-0.8135,-0.8262,-0.8262,-0.8262,-0.8262,-0.8262,-0.809,-0.7963,-0.7963,-0.7791,-0.7694,-0.7694,-0.7774,-0.7853,-0.7895,-0.8023,-0.8184,-0.8333,-0.8333,-0.8443,-0.8667,-0.8525,-0.8496,-0.8525,-0.8225,-0.8057,-0.7966,-0.777,-0.796,-0.8344,-0.8129,-0.8037,-0.8015,-0.7778,-0.7694,-0.7694,-0.7694,-0.767,-0.76,-0.3921,-0.3969,-0.3931,-0.3661,-0.3666,-0.3527,-0.2995,-0.3247,-0.3406,-0.3143,0.0,0.0,0.0,0.0,0.0,-0.2842,-0.2876,-0.2776,-0.2438,0.0,0.0,0.0,0.0,0.0,0.0,0.0,0.0,0.0,0.0,0.0,0.0,0.0,-0.3578,-0.3886,-0.3893,-0.39,-0.39,-0.39,-0.4133,-0.4552,-0.508,-0.5575,-0.6072,-0.6665,-0.7029,-0.7164,-0.6924,-0.6926,-0.6985,-0.6577,-0.6433,-0.6367,-0.5934,-0.5446,-0.5004,-0.4941,-0.539,-0.5909,0.0,0.0,0.0,-0.7732,-0.7794,-0.7794,-0.8199,-0.8342,-0.8293,-0.7975,-0.8063,-0.8139,-0.7936,-0.7966,-0.7942,-0.7732,-0.7816,-0.7916,-0.7916,-0.7966,-0.8,-0.8,-0.8,-0.8,-0.8,-0.7949,-0.7895,-0.7895,-0.7774,-0.7694,-0.7694,-0.7694,-0.7753,-0.7899,-0.7895,-0.7929,-0.8,-0.8,-0.8049,-0.8192,-0.8049,-0.807,-0.8192,-0.7981,-0.7895,-0.7895,-0.7753,-0.7694,-0.7694,-0.7694,-0.7694,-0.7694,-0.7694,-0.7694,-0.7694,-0.7694,-0.7621,-0.7461,-0.4298,-0.4427,-0.4439,-0.3968,-0.3944,-0.3808,-0.3268,-0.3363,-0.3476,0.0,0.0,0.0,-0.3495,-0.354,-0.3456,-0.3186,-0.322,-0.3119,-0.2787,-0.2765,-0.2912,-0.3249,0.0,0.0,0.0,0.0,0.0,0.0,0.0,0.0,0.0,0.0,0.0,0.0,-0.3793,-0.39,-0.39,-0.39,-0.4242,-0.4798,-0.4952,-0.5465,-0.6206,-0.6705,-0.7022,-0.7252,-0.767,-0.7936,-0.8007,-0.7458,-0.7298,-0.7164,-0.6125,-0.5665,-0.5487,-0.543,-0.5676,-0.6019,-0.6269,0.0,0.0,0.0,0.0,0.0,-0.7777,-0.8004,-0.8175,-0.8119,-0.8052,-0.8012,-0.8104,-0.8053,-0.7979,-0.7921,-0.804,-0.8109,-0.8109,-0.8205,-0.8246,-0.8164,-0.8143,-0.8098,-0.8,-0.7949,-0.7895,-0.7895,-0.7774,-0.7694,-0.7694,-0.7694,-0.7712,-0.7753,-0.7753,-0.777,-0.7787,-0.7787,-0.7853,-0.7981,-0.7953,-0.797,-0.8049,-0.7953,-0.7895,-0.7895,-0.7753,-0.7694,-0.7694,-0.7694,-0.7694,-0.7694,-0.7694,-0.7694,-0.7694,-0.7694,-0.7621,-0.744,-0.4596,-0.4718,-0.4679,-0.4133,-0.4121,-0.3993,-0.3427,-0.3436,-0.3549,0.0,0.0,0.0,-0.3748,-0.3822,-0.3784,-0.3564,-0.3586,-0.3468,-0.3134,-0.3103,-0.3193,-0.3387,-0.3395,-0.3559,0.0,0.0,0.0,0.0,0.0,0.0,0.0,0.0,0.0,0.0,-0.3607,-0.3771,-0.39,-0.39,-0.4267,-0.4866,-0.4883,-0.5453,-0.6314,-0.6643,-0.6985,-0.7352,-0.7857,-0.8175,-0.8345,-0.8128,-0.7895,-0.7549,-0.6626,-0.6183,-0.5981,-0.5949,-0.616,-0.6467,-0.6656,-0.6885,-0.7092,-0.7092,0.0,0.0,-0.7393,-0.7664,-0.7938,-0.7946,-0.794,-0.7975,-0.8103,-0.8047,-0.8013,-0.8071,-0.8188,-0.8254,-0.8122,-0.818,-0.8205,-0.8085,-0.8064,-0.8019,-0.7887,-0.7833,-0.7816,-0.7816,-0.7736,-0.7694,-0.7694,-0.7694,-0.7694,-0.7694,-0.7694,-0.7694,-0.7694,-0.7694,-0.7732,-0.7816,-0.7816,-0.7833,-0.7884,-0.7829,-0.7816,-0.7812,-0.7732,-0.7694,-0.7694,-0.7694,-0.7694,-0.7694,-0.7694,-0.7694,-0.7694,-0.7694,-0.7562,-0.7321,0.0,-0.4864,-0.4741,-0.4245,-0.4259,-0.415,-0.3586,-0.3555,-0.3706,0.0,-0.4042,-0.4075,-0.4145,-0.4126,-0.4055,-0.3957,-0.3919,-0.3774,-0.3478,-0.3459,-0.3459,-0.3459,-0.3459,-0.3596,-0.3893,0.0,0.0,0.0,0.0,0.0,0.0,0.0,0.0,0.0,-0.342,-0.3622,-0.39,-0.39,-0.4252,-0.4807,-0.4866,-0.5494,-0.6404,-0.6572,-0.6958,-0.7434,-0.7759,-0.8041,-0.8317,-0.8664,-0.8317,-0.771,-0.73,-0.6842,-0.6479,-0.6467,-0.6724,-0.7004,-0.7044,-0.7135,-0.7211,-0.7181,-0.7092,0.0,-0.706,-0.736,-0.7625,-0.7614,-0.7793,-0.795,-0.7984,-0.798,-0.7994,-0.814,-0.8256,-0.826,-0.8082,-0.8041,-0.8024,-0.7936,-0.7916,-0.7853,-0.7732,-0.7715,-0.7694,-0.7694,-0.7694,-0.7694,-0.7694,-0.7694,-0.7694,-0.7694,-0.7694,-0.7694,-0.7694,-0.7694,-0.7694,-0.7694,-0.7694,-0.7694,-0.7694,-0.7694,-0.7694,-0.7694,-0.7694,-0.7694,-0.7694,-0.7694,-0.7694,-0.7694,-0.7694,-0.7694,-0.7694,-0.7691,-0.7482,-0.7171,-0.489,-0.489,-0.4819,-0.4541,-0.4564,-0.4512,-0.4173,-0.4178,-0.4255,-0.4312,-0.4322,-0.4367,-0.4489,-0.4266,-0.4139,-0.4213,-0.4027,-0.3871,-0.3808,-0.3804,-0.3804,-0.3804,-0.3804,-0.3834,-0.3897,-0.39,0.0,0.0,0.0,0.0,0.0,0.0,0.0,0.0,-0.3565,-0.3837,-0.39,-0.39,-0.4252,-0.4807,-0.4807,-0.5425,-0.6356,-0.6703,-0.708,-0.749,-0.813,-0.85,-0.8744,-0.9078,-0.8773,-0.8179,-0.7729,-0.7296,-0.695,-0.69,-0.6941,-0.7045,-0.7258,-0.7335,-0.7312,-0.7096,-0.7051,0.0,-0.696,-0.7078,-0.7297,-0.7607,-0.7639,-0.7673,-0.7955,-0.7831,-0.7719,-0.7861,-0.7897,-0.8016,-0.8289,-0.8328,-0.8266,-0.8151,-0.8053,-0.7946,-0.7874,-0.7753,-0.7694,-0.7694,-0.7694,-0.7694,-0.7694,-0.7694,-0.7694,-0.7694,-0.7694,-0.7694,-0.7694,-0.7694,-0.7694,-0.7694,-0.7694,-0.7694,-0.7694,-0.7694,-0.7694,-0.7694,-0.7694,-0.7694,-0.7694,-0.7694,-0.7694,-0.7694,-0.7694,-0.7694,-0.7691,-0.7572,-0.7388,-0.7129,-0.4903,-0.4982,-0.4959,-0.4696,-0.4702,-0.4662,-0.4389,-0.4376,-0.4456,-0.4589,-0.475,-0.484,-0.4809,-0.4653,-0.4548,-0.4552,-0.4281,-0.4094,-0.4094,-0.3979,-0.39,-0.39,-0.39,-0.39,-0.39,-0.39,0.0,0.0,0.0,0.0,0.0,0.0,0.0,0.0,-0.3422,-0.3745,-0.39,-0.39,-0.4252,-0.4794,-0.4794,-0.5396,-0.6334,-0.6671,-0.7052,-0.7481,-0.8121,-0.8659,-0.9054,-0.9089,-0.8987,-0.8766,-0.8328,-0.7943,-0.7647,-0.7608,-0.7482,-0.7376,-0.7511,-0.7524,-0.7456,-0.7248,-0.7144,0.0,0.0,-0.7007,-0.7125,-0.7394,-0.7378,-0.7397,-0.7736,-0.7573,-0.7471,-0.7666,-0.7593,-0.7641,-0.8051,-0.8294,-0.839,-0.8216,-0.8205,-0.8118,-0.7916,-0.7836,-0.7774,-0.7715,-0.7642,-0.7597,-0.7597,-0.7562,-0.7545,-0.7545,-0.7391,-0.7332,-0.74,-0.741,-0.7426,-0.7454,-0.7618,-0.7694,-0.7694,-0.7694,-0.7694,-0.7694,-0.7694,-0.7694,-0.7694,-0.7694,-0.7694,-0.7694,-0.7694,-0.7666,-0.7597,-0.7492,-0.7238,-0.6883,-0.4966,-0.5093,-0.5116,-0.4864,-0.4858,-0.4829,-0.4609,-0.4573,-0.4676,-0.4937,-0.5183,-0.5288,-0.52,-0.5105,-0.5005,-0.4911,-0.459,-0.44,-0.44,-0.4138,-0.3979,-0.3979,-0.3934,-0.39,-0.39,-0.39,0.0,0.0,0.0,0.0,0.0,0.0,-0.3004,-0.3027,0.0,0.0,0.0,-0.3911,-0.4256,-0.4824,-0.4807,-0.5429,-0.6405,-0.6625,-0.7018,-0.7528,-0.8013,-0.8627,-0.9171,-0.9022,-0.9119,-0.9225,-0.8909,-0.8591,-0.8314,-0.8314,-0.8138,-0.7943,-0.7933,-0.7826,-0.7679,-0.7543,-0.7313,-0.7101,0.0,0.0,0.0,-0.7151,-0.7131,-0.7178,-0.7453,-0.7319,-0.7243,-0.7472,-0.7305,-0.729,-0.7648,-0.8058,-0.8291,-0.8238,-0.8315,-0.825,-0.7953,-0.7891,-0.7816,-0.7715,-0.7572,-0.7502,-0.7482,-0.7384,-0.7311,-0.7311,-0.6992,-0.6876,-0.7008,-0.6988,-0.7011,-0.7099,-0.7381,-0.7508,-0.7508,-0.7508,-0.7508,-0.7512,-0.7574,-0.76,-0.7603,-0.7669,-0.7691,-0.7666,-0.7691,-0.7621,-0.7482,-0.7367,-0.7048,-0.6601,-0.5172,-0.5192,-0.5213,-0.5234,-0.5243,-0.5233,-0.5199,-0.5196,-0.5303,-0.5558,-0.5476,-0.5519,-0.5842,-0.5465,-0.5193,-0.5242,-0.4942,-0.4736,-0.4736,-0.4436,-0.4254,-0.4254,-0.4031,-0.39,-0.39,0.0,0.0,0.0,0.0,0.0,0.0,0.0,-0.3377,-0.3444,-0.372,-0.3898,-0.3984,-0.3925,-0.4282,-0.4883,-0.4824,-0.5546,-0.6655,-0.6691,-0.7103,-0.7705,-0.8073,-0.8484,-0.8901,-0.9162,-0.9233,-0.9208,-0.923,-0.8995,-0.8727,-0.8727,-0.8795,-0.8846,-0.8788,-0.8461,-0.8094,-0.796,-0.7551,-0.7171,-0.7105,0.0,-0.7017,-0.709,0.0,-0.7108,-0.7153,0.0,0.0,-0.714,-0.7073,-0.7093,-0.7326,-0.75,-0.7795,-0.8322,-0.8274,-0.8164,-0.8004,-0.7829,-0.7712,-0.7694,-0.7572,-0.7464,-0.7416,-0.7175,-0.701,-0.696,-0.6679,-0.6583,-0.6652,-0.6601,-0.6595,-0.6676,-0.6775,-0.6815,-0.6815,-0.6815,-0.6815,-0.6829,-0.7121,-0.7264,-0.7286,-0.7578,-0.7621,-0.7527,-0.7645,-0.7621,-0.7461,-0.7168,-0.6834,-0.6459,-0.5207,-0.5223,-0.5261,-0.5296,-0.5296,-0.5296,-0.5296,-0.5424,-0.5575,-0.5681,-0.5834,-0.602,-0.6265,-0.6129,-0.6035,-0.6098,-0.5667,-0.5385,-0.5385,-0.4921,-0.4562,-0.437,-0.4283,-0.414,-0.3904,-0.39,0.0,0.0,-0.3759,0.0,0.0,0.0,-0.3621,-0.3527,-0.4027,-0.4264,-0.4304,-0.4425,-0.4755,-0.5204,-0.5326,-0.5907,-0.6706,-0.6706,-0.7164,-0.7836,-0.8011,-0.837,-0.8772,-0.9047,-0.9235,-0.9387,-0.9499,-0.9324,-0.909,-0.909,-0.9042,-0.8992,-0.8958,-0.8822,-0.858,-0.8201,-0.7885,-0.7594,-0.7338,-0.7135,-0.7032,-0.7141,0.0,0.0,0.0,0.0,0.0,0.0,-0.6917,-0.6856,-0.7098,-0.7112,-0.7262,-0.7717,-0.7784,-0.7693,-0.7452,-0.7241,-0.711,-0.7064,-0.7036,-0.698,-0.6824,-0.675,-0.6613,-0.6375,-0.6125,-0.598,-0.5961,-0.5973,-0.605,-0.6191,-0.65,-0.664,-0.664,-0.6684,-0.6706,-0.6713,-0.6848,-0.7015,-0.7201,-0.7306,-0.7384,-0.7426,-0.7325,-0.7259,-0.7189,-0.6912,-0.6562,-0.6142,-0.5242,-0.5261,-0.5296,-0.5296,-0.5296,-0.532,-0.5404,-0.5575,-0.5754,-0.5932,-0.6188,-0.6418,-0.6591,-0.6624,-0.6644,-0.6702,-0.6297,-0.6043,-0.6043,-0.5502,-0.5063,-0.4822,-0.471,-0.4476,-0.4077,-0.4059,-0.4014,0.0,-0.39,0.0,0.0,0.0,-0.3804,-0.3667,-0.4244,-0.4522,-0.4568,-0.4826,-0.5126,-0.5445,-0.5698,-0.6223,-0.6844,-0.6935,-0.7338,-0.7853,-0.7963,-0.8288,-0.8679,-0.8955,-0.9286,-0.9583,-0.9738,-0.9661,-0.9516,-0.9516,-0.9431,-0.9355,-0.9355,-0.9255,-0.9021,-0.8514,-0.8202,-0.7895,-0.7519,-0.7239,-0.7077,-0.7181,-0.716,0.0,0.0,0.0,-0.7174,-0.7174,0.0,-0.6815,-0.6972,-0.6889,-0.6924,-0.7239,-0.7316,-0.7235,-0.7,-0.6815,-0.6666,-0.66,-0.6657,-0.66,-0.6379,-0.6395,-0.6253,-0.5883,-0.5602,-0.542,-0.5346,-0.536,-0.547,-0.5655,-0.6062,-0.6258,-0.6268,-0.6349,-0.637,-0.6374,-0.6481,-0.6655,-0.6882,-0.6988,-0.7075,-0.7107,-0.6931,-0.6813,-0.6711,-0.6559,-0.6249,-0.5871,-0.5296,-0.5296,0.0,-0.5296,-0.5296,-0.539,-0.5655,-0.5688,-0.5919,-0.6486,-0.6534,-0.6588,-0.6863,-0.6779,-0.6702,-0.6706,-0.6684,-0.6673,-0.6673,-0.6166,-0.5867,-0.5859,-0.5361,-0.4891,-0.4491,-0.4483,-0.4287,-0.39,-0.39,0.0,0.0,0.0,0.0,0.0,-0.4343,-0.4568,-0.4711,-0.491,-0.5191,-0.552,-0.5725,-0.6354,-0.7227,-0.7545,-0.7673,-0.7732,-0.7921,-0.8226,-0.8582,-0.9036,-0.9406,-0.9718,-0.9926,-1.0025,-1.006,-1.006,-1.0152,-1.0263,-1.0263,-0.9885,-0.9382,-0.8986,-0.8434,-0.7911,-0.757,-0.7343,-0.7196,-0.7196,-0.7196,-0.7196,-0.7211,-0.7308,-0.7386,-0.7386,-0.7273,0.0,0.0,-0.6891,-0.6898,-0.717,-0.7025,-0.6916,-0.6898,-0.6775,-0.6666,-0.66,-0.6657,-0.6577,-0.6313,-0.6249,-0.6004,-0.5529,-0.5248,-0.5059,-0.4929,-0.485,-0.4902,-0.5036,-0.5237,-0.538,-0.5445,-0.55,-0.5538,-0.5556,-0.595,-0.6088,-0.6082,-0.6663,-0.6718,-0.6441,-0.6504,-0.6313,-0.6022,-0.6022,-0.5893,-0.5658,-0.5296,0.0,-0.5296,-0.5296,-0.5296,-0.5394,-0.5651,-0.6042,-0.6363,-0.6563,-0.7072,-0.7454,-0.7556,-0.7835,-0.803,-0.803,-0.7614,-0.7366,-0.7366,-0.6892,-0.6456,-0.6044,-0.599,-0.5668,-0.5043,-0.5028,-0.4786,-0.4302,-0.4302,-0.4163,0.0,0.0,0.0,0.0,-0.4515,-0.4812,-0.495,-0.5634,-0.5993,-0.6131,-0.6554,-0.7045,-0.7541,-0.7654,-0.7694,-0.7732,-0.7921,-0.8189,-0.8492,-0.8915,-0.9237,-0.9492,-0.9779,-0.9941,-1.0034,-1.0083,-1.0201,-1.0303,-1.0303,-1.0099,-0.9791,-0.9396,-0.8847,-0.8326,-0.8028,-0.7835,-0.7763,-0.7838,-0.808,-0.8267,-0.8309,-0.8109,-0.7929,-0.7929,-0.7625,-0.7343,0.0,-0.6857,-0.6669,-0.6674,-0.6459,-0.6312,-0.6312,-0.6184,-0.6036,-0.588,-0.6148,-0.6145,-0.5784,-0.5949,-0.5783,-0.5195,-0.5083,-0.4887,-0.4579,-0.4595,-0.4646,-0.4733,-0.4938,-0.5065,-0.5144,-0.5204,-0.5283,-0.5379,-0.5554,-0.5733,-0.5876,-0.5996,-0.6105,-0.6169,-0.5937,-0.5828,-0.5809,-0.5809,-0.5655,-0.5374,-0.5588,-0.5521,-0.542,-0.5313,-0.5384,-0.5564,-0.5965,-0.6433,-0.678,-0.6908,-0.7573,-0.8046,-0.8046,-0.8441,-0.8688,-0.8688,-0.8198,-0.7866,-0.7866,-0.7441,-0.7025,-0.6678,-0.6774,-0.6481,-0.5736,-0.5724,-0.5396,-0.4709,-0.4571,-0.4347,0.0,0.0,0.0,0.0,0.0,-0.494,-0.5062,-0.5996,-0.64,-0.6443,-0.6984,-0.7403,-0.7694,-0.7694,-0.7694,-0.7732,-0.7921,-0.8193,-0.8508,-0.8935,-0.9237,-0.9496,-0.9783,-0.9941,-1.0034,-1.0083,-1.0201,-1.0303,-1.0303,-1.0201,-1.0002,-0.9603,-0.9188,-0.8809,-0.8515,-0.8387,-0.8349,-0.8433,-0.8658,-0.8855,-0.8887,-0.8512,-0.8224,-0.8266,-0.7877,-0.7515,0.0,-0.7007,-0.6721,-0.6562,-0.6222,-0.5994,-0.5967,-0.5858,-0.5718,-0.5522,-0.5787,-0.5818,-0.5509,-0.5717,-0.5597,-0.5012,-0.5001,-0.4789,-0.4372,-0.4401,-0.4466,-0.4524,-0.4685,-0.4797,-0.4861,-0.4953,-0.5036,-0.5125,-0.5188,-0.5313,-0.5444,-0.5447,-0.5524,-0.5577,-0.5431,-0.5372,-0.5394,-0.5435,-0.5285,-0.4997,-0.6139,-0.5946,-0.5651,-0.5404,-0.5571,-0.5949,-0.6523,-0.6857,-0.7151,-0.7474,-0.7981,-0.8315,-0.8315,-0.8576,-0.8756,-0.8756,-0.8436,-0.8242,-0.8227,-0.7796,-0.7601,-0.7718,-0.767,-0.7314,-0.6595,-0.6558,-0.6097,-0.5162,-0.4755,-0.4474,0.0,0.0,0.0,0.0,-0.4602,-0.4927,-0.5049,-0.6011,-0.6424,-0.651,-0.7021,-0.7417,-0.7694,-0.7694,-0.7694,-0.7732,-0.7921,-0.821,-0.8557,-0.9032,-0.941,-0.9718,-0.9926,-1.0034,-1.0103,-1.0103,-1.0201,-1.0303,-1.0303,-1.0201,-1.0007,-0.9632,-0.9457,-0.9325,-0.9012,-0.8933,-0.8933,-0.8933,-0.8952,-0.8962,-0.8962,-0.8591,-0.8303,-0.8408,-0.8022,-0.7652,-0.7519,-0.7278,-0.7039,-0.6826,-0.6337,-0.5982,-0.592,-0.5834,-0.5718,-0.5522,-0.5631,-0.5645,-0.55,-0.5564,-0.5415,-0.501,-0.5001,-0.4771,-0.4302,-0.4296,-0.4331,-0.4401,-0.4455,-0.4533,-0.4599,-0.4723,-0.4777,-0.4793,-0.4858,-0.4845,-0.4811,-0.5063,-0.4978,-0.4714,-0.4965,-0.4934,-0.4799,-0.4931,-0.4825,-0.4596,-0.6179,-0.6132,-0.6107,-0.6248,-0.6316,-0.6486,-0.6837,-0.7161,-0.7462,-0.7769,-0.8307,-0.8662,-0.8662,-0.9087,-0.9376,-0.9376,-0.9102,-0.8848,-0.8579,-0.8367,-0.8151,-0.7934,-0.81,-0.8042,-0.7701,-0.7402,-0.6877,-0.6142,-0.5644,-0.5064,-0.4444,0.0,0.0,0.0,0.0,-0.4833,-0.4923,-0.6115,-0.6914,-0.7373,-0.7521,-0.7621,-0.7694,-0.7694,-0.7694,-0.7732,-0.7921,-0.8172,-0.8492,-0.8915,-0.9217,-0.9452,-0.9759,-0.9941,-1.0034,-1.0083,-1.0201,-1.0303,-1.0303,-1.0201,-1.0074,-0.9969,-0.9667,-0.9401,-0.9354,-0.9348,-0.9362,-0.9406,-0.9695,-0.9942,-0.9942,-0.9558,-0.9147,-0.8896,-0.8202,-0.7666,-0.7593,-0.7426,-0.7217,-0.6904,-0.6528,-0.6206,-0.5994,-0.5874,-0.5718,-0.5522,-0.5631,-0.5645,-0.55,-0.5564,-0.5415,-0.501,-0.5001,-0.4771,-0.4302,-0.4296,-0.4312,-0.4331,-0.4347,-0.4382,-0.4447,-0.4482,-0.4533,-0.4587,-0.4653,-0.4637,-0.4574,-0.4605,-0.4618,-0.4622,-0.4474,-0.4433,-0.4466,-0.4752,-0.4716,-0.4521,-0.6617,-0.6726,-0.6909,-0.7206,-0.7217,-0.7184,-0.7211,-0.7608,-0.795,-0.8103,-0.8574,-0.8908,-0.8956,-0.9283,-0.9536,-0.9588,-0.9347,-0.9147,-0.9008,-0.8746,-0.8557,-0.8529,-0.8689,-0.8681,-0.8455,-0.8021,-0.7491,-0.6851,-0.6083,-0.5418,-0.4891,0.0,0.0,0.0,0.0,-0.5033,-0.5141,-0.6323,-0.7196,-0.7795,-0.7795,-0.7753,0.0,-0.7694,-0.7694,-0.7732,-0.7921,-0.8176,-0.8455,-0.8822,-0.9096,-0.9288,-0.9512,-0.9719,-0.9872,-0.9921,-1.0069,-1.022,-1.022,-1.0201,-1.0186,-1.0186,-0.9993,-0.98,-0.9838,-0.9852,-0.9852,-0.9898,-1.0112,-1.0303,-1.0303,-0.9908,-0.9474,-0.9072,-0.8582,-0.8187,-0.7982,-0.7806,-0.7507,-0.7003,-0.6649,-0.6329,-0.6025,-0.587,-0.5737,-0.5596,-0.557,-0.5506,-0.5369,-0.5434,-0.5269,-0.4837,-0.4931,-0.4771,-0.4302,-0.4296,-0.4296,-0.4296,-0.4296,-0.4315,-0.435,-0.435,-0.4382,-0.4417,-0.4398,-0.4353,-0.4326,-0.4256,-0.4249,-0.4276,-0.4137,-0.4099,-0.4147,-0.4336,-0.4399,-0.441,-0.7384,-0.7622,-0.7866,-0.8135,-0.8099,-0.7943,-0.7717,-0.8081,-0.8412,-0.8474,-0.8773,-0.9061,-0.9211,-0.9335,-0.9462,-0.9588,-0.938,-0.9286,-0.9394,-0.9036,-0.8945,-0.9228,-0.9354,-0.9301,-0.9048,-0.8518,-0.7976,-0.7422,-0.6338,-0.5672,-0.5429,0.0,0.0,0.0,0.0,-0.5428,-0.5669,-0.6597,-0.7349,-0.7895,-0.7895,-0.7816,-0.7694,-0.7694,-0.7694,-0.7732,-0.7921,-0.8152,-0.8439,-0.8773,-0.9008,-0.9177,-0.9264,-0.9477,-0.9678,-0.9698,-0.9902,-1.0103,-1.0123,-1.022,-1.0303,-1.0303,-1.0303,-1.0303,-1.0303,-1.0303,-1.0303,-1.0303,-1.0303,-1.0303,-1.0303,-0.9908,-0.9494,-0.9128,-0.8994,-0.8794,-0.8444,-0.8185,-0.7769,-0.7087,-0.6695,0.0,-0.6041,-0.587,-0.5772,-0.5704,-0.551,-0.5346,-0.5206,-0.5256,-0.511,-0.4668,-0.4877,-0.4784,-0.4351,-0.4312,-0.4296,-0.4296,-0.4296,-0.4296,-0.4296,-0.4296,-0.4296,-0.4296,-0.4158,-0.4096,-0.4096,-0.401,-0.3942,-0.3876,-0.3869,-0.3865,-0.3864,-0.3864,-0.4019,-0.4229,-0.8598,-0.8722,-0.8709,-0.8625,-0.8621,-0.8634,-0.8578,-0.8474,-0.8511,-0.885,-0.8951,-0.9084,-0.9335,-0.9387,-0.9462,-0.9588,-0.9566,-0.9482,-0.9405,-0.9489,-0.9504,-0.9448,-0.9783,-0.9906,-0.9803,-0.897,-0.8374,-0.8038,-0.6908,-0.6119,-0.5644,0.0,0.0,0.0,0.0,-0.5875,-0.6732,-0.6914,-0.7349,-0.7895,-0.7895,-0.7816,-0.7694,-0.7694,-0.7694,-0.7732,-0.7921,-0.8094,-0.8295,-0.8749,-0.8916,-0.8988,-0.9228,-0.9403,-0.9571,-0.9739,-0.9932,-1.0123,-1.0239,-1.0283,-1.0303,-1.0303,-1.0303,-1.0303,-1.0303,-1.0303,-1.0303,-1.0303,-1.0303,-1.0303,-1.0303,-0.9908,-0.9573,-0.95,-0.894,-0.8478,-0.8404,-0.7939,-0.7452,-0.7056,-0.6695,-0.6368,-0.6041,-0.587,-0.5772,-0.5704,-0.551,-0.5346,-0.5206,-0.5256,-0.5189,-0.4942,-0.498,-0.485,-0.4554,-0.4383,-0.4296,-0.4296,-0.4296,-0.4296,-0.4296,-0.4296,-0.4296,-0.4296,-0.4158,-0.4096,-0.4096,-0.3975,-0.3845,-0.3723,-0.3674,-0.3692,-0.3721,-0.3665,-0.3709,-0.3834,-0.9411,-0.947,-0.9404,-0.9381,-0.9338,-0.9289,-0.9213,-0.9115,-0.9047,-0.9089,-0.9035,-0.9084,-0.9286,-0.9234,-0.9286,-0.9488,-0.9488,-0.9559,-0.9699,-0.9836,-0.999,-1.0221,-1.0243,-1.0315,-1.0403,-0.9488,-0.8775,-0.8302,-0.7374,-0.6581,-0.5952,-0.5751,-0.555,-0.5391,0.0,-0.6537,-0.7224,-0.7433,-0.7734,-0.8044,-0.7974,-0.7801,-0.7597,-0.767,-0.7666,-0.7635,-0.7897,-0.8045,-0.8156,-0.8553,-0.8737,-0.8838,-0.902,-0.9217,-0.9368,-0.9507,-0.9789,-1.0069,-1.0132,-1.0225,-1.0303,-1.0303,-1.0303,-1.0303,-1.0303,-1.0107,-0.9946,-0.9946,-0.9946,-0.9946,-0.9946,-0.9577,-0.9289,-0.9289,-0.8965,-0.8644,-0.8424,-0.806,-0.7611,-0.7069,-0.6695,-0.6368,-0.6041,-0.587,-0.5784,-0.576,-0.5573,-0.5363,-0.5161,-0.5317,-0.5176,-0.4711,-0.4892,-0.4828,-0.4445,-0.434,-0.4296,-0.4296,-0.4296,-0.4296,-0.4296,-0.4296,-0.4296,-0.4296,-0.4123,-0.4045,-0.4029,-0.3863,-0.3733,-0.3653,-0.3618,-0.3561,-0.3494,-0.3458,-0.3505,-0.3616,-1.0165,-1.0221,-1.0186,-1.0236,-1.0091,-0.995,-0.9799,-0.9747,-0.9621,-0.9368,-0.9188,-0.9136,-0.9316,-0.9162,-0.9159,-0.9413,-0.9439,-0.9625,-1.0029,-1.0196,-1.0469,-1.0911,-1.0663,-1.0618,-1.0783,-0.9882,-0.9139,-0.8591,-0.7858,-0.7109,-0.6367,-0.6159,-0.6068,-0.6095,-0.669,-0.7176,-0.7597,-0.7883,-0.8055,-0.8147,-0.8032,-0.7793,-0.7523,-0.7645,-0.7642,-0.7627,-0.7893,-0.8041,-0.8127,-0.8415,-0.8578,-0.8683,-0.8846,-0.9029,-0.9217,-0.9324,-0.9631,-0.9965,-1.0,-1.0113,-1.0244,-1.0244,-1.0244,-1.0244,-1.0244,-0.989,-0.9579,-0.9579,-0.9529,-0.9466,-0.9466,-0.9211,-0.9004,-0.9004,-0.8931,-0.8755,-0.8439,-0.8145,-0.7721,-0.7083,-0.6695,-0.6349,-0.6025,-0.587,-0.5796,-0.5796,-0.562,-0.5378,-0.5115,-0.5345,-0.5174,-0.449,-0.4815,-0.4793,-0.4364,-0.4323,-0.4296,-0.4296,-0.4296,-0.4296,-0.4296,-0.4296,-0.4296,-0.4296,-0.4088,-0.3977,-0.3931,-0.377,-0.3653,-0.3602,-0.3602,-0.3473,-0.3297,-0.3297,-0.3354,-0.3446,-1.1116,-1.1271,-1.1283,-1.104,-1.0794,-1.0565,-1.0441,-1.0253,-1.0047,-0.9769,-0.9528,-0.9469,-0.9718,-0.9398,-0.9286,-0.9562,-0.9588,-0.9777,-1.0239,-1.0613,-1.0868,-1.0987,-1.0958,-1.0876,-1.0706,-0.9906,-0.9405,-0.922,-0.8477,-0.771,-0.6922,-0.6715,-0.6633,-0.6648,-0.7189,-0.7696,-0.8114,-0.8031,-0.8008,-0.8004,-0.7933,-0.7739,-0.7523,-0.7645,-0.7774,-0.787,-0.7963,-0.8152,-0.8373,-0.8459,-0.85,-0.8561,-0.881,-0.9029,-0.9237,-0.9423,-0.9646,-0.9842,-0.9965,-1.0,-1.0019,-1.0019,-1.0019,-1.0019,-1.0019,-0.9748,-0.9502,-0.9502,-0.9265,-0.9062,-0.9062,-0.9033,-0.9004,-0.9004,-0.8687,-0.8439,-0.84,-0.7859,-0.7344,-0.7036,-0.6656,-0.631,-0.6025,-0.587,-0.5796,-0.5796,-0.562,-0.5378,-0.5115,-0.5345,-0.5253,-0.4692,-0.4881,-0.4858,-0.4567,-0.4391,-0.4296,-0.4296,-0.4296,-0.4296,-0.4296,-0.4296,-0.4296,-0.4296,-0.4088,-0.3896,-0.3721,-0.3705,-0.3653,-0.3602,-0.3602,-0.3473,-0.3297,-0.3297,-0.3272,-0.3236,-1.1498,-1.1573,-1.1548,-1.1372,-1.1247,-1.112,-1.0998,-1.0918,-1.0812,-1.071,-1.0146,-0.9814,-0.9895,-0.955,-0.9417,-0.971,-0.9721,-0.9954,-1.0492,-1.0922,-1.1258,-1.1521,-1.1424,-1.1405,-1.1477,-1.0929,-1.0316,-0.9658,-0.9252,-0.8456,-0.7353,-0.711,-0.704,-0.7139,-0.7723,-0.8123,-0.8377,-0.8413,-0.8311,-0.8102,-0.7957,-0.7742,-0.752,-0.7776,-0.7904,-0.7987,-0.821,-0.8419,-0.859,-0.87,-0.8741,-0.8761,-0.8903,-0.9096,-0.9288,-0.9461,-0.964,-0.9818,-0.9862,-0.9941,-1.0005,-1.0005,-1.0005,-0.9938,-0.9692,-0.9316,-0.8961,-0.8759,-0.8445,-0.83,-0.8584,-0.8418,-0.8222,-0.8222,-0.808,-0.7968,-0.7928,-0.7555,-0.7195,-0.6966,-0.6593,-0.6241,-0.6021,-0.587,-0.5796,-0.5796,-0.562,-0.5412,-0.5223,-0.5404,-0.5215,-0.4593,-0.4855,-0.4817,-0.4432,-0.4345,-0.4296,-0.4296,-0.4296,-0.4296,-0.4296,-0.4221,-0.414,-0.4051,-0.3972,-0.3847,-0.3705,-0.3653,-0.3618,-0.3602,-0.3551,-0.3438,-0.3297,-0.3297,-0.3227,-0.314,-1.1748,-1.1798,-1.1773,-1.1648,-1.1623,-1.1573,-1.1448,-1.1423,-1.1423,-1.1423,-1.0841,-1.0407,-1.0283,-0.9862,-0.9681,-0.9977,-0.9962,-1.0164,-1.0769,-1.1146,-1.1523,-1.1877,-1.171,-1.1682,-1.1874,-1.152,-1.0968,-1.0213,-1.0029,-0.9321,-0.8156,-0.7857,-0.7745,-0.7806,-0.844,-0.8701,-0.8712,-0.8712,-0.8484,-0.8126,-0.7957,-0.7767,-0.7589,-0.7983,-0.8148,-0.8247,-0.8496,-0.8704,-0.8866,-0.8964,-0.9037,-0.9078,-0.9065,-0.9197,-0.9377,-0.9475,-0.9634,-0.9768,-0.9768,-0.9847,-0.9911,-0.9911,-0.9911,-0.9798,-0.9404,-0.8975,-0.855,-0.8121,-0.7845,-0.7807,-0.813,-0.792,-0.7695,-0.7676,-0.7676,-0.7627,-0.7496,-0.7285,-0.7051,-0.6809,-0.6475,-0.6199,-0.5982,-0.5874,-0.5796,-0.5796,-0.562,-0.5447,-0.5312,-0.5425,-0.5189,-0.4524,-0.4826,-0.4771,-0.4302,-0.4296,-0.4296,-0.4296,-0.4266,-0.4234,-0.4234,-0.4126,-0.401,-0.3905,-0.3858,-0.3782,-0.367,-0.3602,-0.3551,-0.3504,-0.3452,-0.3372,-0.3278,-0.3278,-0.3194,-0.3089,-1.1902,-1.2002,-1.2047,-1.1927,-1.1902,-1.1852,-1.1723,-1.1698,-1.1698,-1.1698,-1.1573,-1.1322,-1.0922,-1.0356,-1.0132,-1.047,-1.0304,-1.0458,-1.1074,-1.1352,-1.1623,-1.1902,-1.171,-1.1612,-1.1612,-1.1335,-1.1119,-1.0999,-1.0785,-1.0264,-0.9482,-0.913,-0.8866,-0.872,-0.9376,-0.9509,-0.9172,-0.8841,-0.8431,-0.8,-0.7929,-0.7816,-0.7757,-0.8209,-0.8529,-0.87,-0.8773,-0.8959,-0.9197,-0.9197,-0.933,-0.9459,-0.9261,-0.9326,-0.9499,-0.9499,-0.9599,-0.9703,-0.9703,-0.9703,-0.9703,-0.9703,-0.9703,-0.9592,-0.9203,-0.8846,-0.8417,-0.7751,-0.7661,-0.77,-0.7705,-0.7705,-0.7676,-0.7618,-0.7603,-0.751,-0.724,-0.7092,-0.6882,-0.6551,-0.6333,-0.6118,-0.592,-0.5834,-0.5796,-0.5796,-0.562,-0.5447,-0.5312,-0.5425,-0.5189,-0.4524,-0.4826,-0.4771,-0.4302,-0.4296,-0.4296,-0.4296,-0.4158,-0.4099,-0.4096,-0.4029,-0.3958,-0.3888,-0.3768,-0.367,-0.3602,-0.3532,-0.342,-0.3297,-0.3297,-0.3262,-0.321,-0.321,-0.3159,-0.3089,-1.2051,-1.2076,-1.2081,-1.2051,-1.2051,-1.2026,-1.1977,-1.1972,-1.1972,-1.1972,-1.1852,-1.1723,-1.1598,-1.0994,-1.0688,-1.0896,-1.0841,-1.0968,-1.1352,-1.1623,-1.1848,-1.2026,-1.1981,-1.1932,-1.1932,-1.1952,-1.1709,-1.1199,-1.1061,-1.0432,-0.9438,-0.9325,-0.9381,-0.9585,-0.9667,-0.9686,-0.9639,-0.9025,-0.857,-0.8266,-0.8147,-0.8089,-0.8089,-0.8565,-0.8802,-0.8931,-0.9088,-0.9257,-0.9415,-0.9415,-0.9499,-0.9623,-0.9559,-0.9579,-0.9639,-0.9639,-0.9663,-0.9703,-0.9703,-0.9703,-0.9703,-0.9703,-0.9703,-0.9592,-0.9184,-0.8662,-0.8123,-0.7639,-0.7617,-0.7681,-0.7642,-0.7637,-0.7598,-0.7475,-0.7387,-0.727,-0.7092,-0.6826,-0.6608,-0.6452,-0.6168,-0.5974,-0.5904,-0.5834,-0.5796,-0.5796,-0.5819,-0.5758,-0.5591,-0.5524,-0.5287,-0.4785,-0.483,-0.4639,-0.4161,-0.4123,-0.4088,-0.4088,-0.4058,-0.401,-0.3958,-0.3849,-0.3768,-0.3698,-0.36,-0.3548,-0.3516,-0.3405,-0.3344,-0.3297,-0.3245,-0.3227,-0.3192,-0.3142,-0.3027,-0.2863,-1.2101,-1.2101,-1.2101,-1.2101,-1.2101,-1.2101,-1.2101,-1.2101,-1.2101,-1.2101,-1.2026,-1.1977,-1.1977,-1.1548,-1.1301,-1.1322,-1.1272,-1.1347,-1.1623,-1.1803,-1.1952,-1.2101,-1.2047,-1.2002,-1.1947,-1.1977,-1.1756,-1.1222,-1.0908,-1.0445,-0.9823,-0.9823,-0.9973,-1.0267,-1.0233,-1.0096,-0.9871,-0.9324,-0.8836,-0.8431,-0.8349,-0.8349,-0.8431,-0.8842,-0.9089,-0.9205,-0.9377,-0.9506,-0.9579,-0.9579,-0.9639,-0.9703,-0.9703,-0.9703,-0.9703,-0.9703,-0.9703,-0.9703,-0.9703,-0.9703,-0.9703,-0.9703,-0.9703,-0.9556,-0.8995,-0.847,-0.7978,-0.7585,-0.7588,-0.7647,-0.7578,-0.75,-0.7412,-0.7278,-0.714,-0.6981,-0.6803,-0.6573,-0.6372,-0.6226,-0.6036,-0.5888,-0.5869,-0.5831,-0.5796,-0.5796,-0.5883,-0.5886,-0.5784,-0.5652,-0.5333,-0.48,-0.4779,-0.4531,-0.4069,-0.4026,-0.3993,-0.3993,-0.3931,-0.3847,-0.3777,-0.3681,-0.3602,-0.3551,-0.3469,-0.3422,-0.342,-0.3309,-0.3262,-0.3262,-0.321,-0.3194,-0.3192,-0.3124,-0.2977,-0.2766,-1.2101,-1.2101,-1.2101,-1.2101,-1.2101,-1.2101,-1.2101,-1.2101,-1.2101,-1.2101,-1.2101,-1.2101,-1.2101,-1.1977,-1.1852,-1.1748,-1.1603,-1.1623,-1.1877,-1.1902,-1.1977,-1.2076,-1.1952,-1.1798,-1.1648,-1.1548,-1.1347,-1.1074,-1.0454,-1.0279,-1.0496,-1.0496,-1.0597,-1.0762,-1.0996,-1.0698,-0.9985,-0.9753,-0.9254,-0.8614,-0.8614,-0.8696,-0.884,-0.917,-0.9405,-0.96,-0.9713,-0.9744,-0.9739,-0.9712,-0.9703,-0.9703,-0.9703,-0.9703,-0.9703,-0.9703,-0.9703,-0.9703,-0.9703,-0.9703,-0.9703,-0.9703,-0.9703,-0.9496,-0.8724,-0.8334,-0.802,-0.7618,-0.7558,-0.7559,-0.7485,-0.7309,-0.7145,-0.7023,-0.6861,-0.6679,-0.6434,-0.6319,-0.6176,-0.592,-0.5873,-0.5854,-0.5784,-0.578,-0.578,-0.578,-0.5804,-0.5827,-0.5852,-0.5742,-0.5355,-0.4654,-0.4666,-0.4467,-0.398,-0.3977,-0.3977,-0.3961,-0.3784,-0.3653,-0.3583,-0.3516,-0.3483,-0.3483,-0.3342,-0.3297,-0.3294,-0.3227,-0.3194,-0.3194,-0.3194,-0.3194,-0.3192,-0.3109,-0.2944,-0.2731,-1.2101,-1.2101,-1.2101,-1.2101,-1.2101,-1.2101,-1.2101,-1.2101,-1.2101,-1.2101,-1.2101,-1.2101,-1.2101,-1.2076,-1.2051,-1.2002,-1.1877,-1.1823,-1.1902,-1.2002,-1.2026,-1.1947,-1.1823,-1.1603,-1.1251,-1.1221,-1.1019,-1.0645,-1.0138,-1.0061,-1.0346,-1.0441,-1.0749,-1.1155,-1.1114,-1.1051,-1.0924,-1.0377,-1.0002,-0.9796,-0.9685,-0.973,-0.988,-1.0092,-1.0294,-1.0388,-1.0221,-1.0153,-1.0102,-0.9804,-0.9703,-0.9703,-0.9703,-0.9703,-0.9703,-0.9703,-0.9703,-0.9703,-0.9703,-0.9703,-0.9703,-0.9703,-0.9703,-0.9565,-0.9069,-0.8715,-0.8377,-0.7969,-0.7656,-0.7391,-0.7233,-0.708,-0.6976,-0.7005,-0.6675,-0.6438,-0.647,-0.6157,-0.5877,-0.5767,-0.5662,-0.5592,-0.5573,-0.5573,-0.5573,-0.5573,-0.5858,-0.5835,-0.5393,-0.5476,-0.5342,-0.491,-0.4668,-0.4299,-0.3773,-0.3719,-0.3665,-0.3614,-0.3565,-0.3532,-0.3516,-0.3405,-0.3344,-0.3344,-0.3259,-0.3227,-0.3227,-0.321,-0.3194,-0.3194,-0.3194,-0.3175,-0.3109,-0.2929,-0.2712,-0.2444,-1.2101,-1.2101,-1.2101,-1.2101,-1.2101,-1.2101,-1.2101,-1.2101,-1.2101,-1.2101,-1.2101,-1.2101,-1.2101,-1.2101,-1.2101,-1.2101,-1.2022,-1.1997,-1.1997,-1.2051,-1.2051,-1.1902,-1.1648,-1.1326,-1.0922,-1.0714,-1.0433,-1.0095,-0.9773,-0.9858,-1.0294,-1.0445,-1.082,-1.1389,-1.1387,-1.1318,-1.1183,-1.0824,-1.0465,-1.0146,-1.0082,-1.0169,-1.035,-1.0458,-1.0611,-1.0762,-1.064,-1.0579,-1.0502,-1.0102,-0.9969,-0.9937,-0.9762,-0.9703,-0.9703,-0.9703,-0.9703,-0.9703,-0.9703,-0.9703,-0.9703,-0.9703,-0.9703,-0.9592,-0.9184,-0.8976,-0.8704,-0.8124,-0.7783,-0.7517,-0.7275,-0.7028,-0.6876,-0.6945,-0.6533,-0.6233,-0.6308,-0.5936,-0.5655,-0.5619,-0.5545,-0.5491,-0.5491,-0.5491,-0.5491,-0.5491,-0.5695,-0.5634,-0.5172,-0.5176,-0.5006,-0.4645,-0.436,-0.4023,-0.3621,-0.3567,-0.3532,-0.3497,-0.3436,-0.3405,-0.3405,-0.3309,-0.3262,-0.3245,-0.321,-0.3194,-0.3194,-0.3194,-0.3194,-0.3194,-0.3159,-0.3089,-0.2988,-0.2746,-0.2495,-0.2211,-1.2101,-1.2101,-1.2101,-1.2101,-1.2101,-1.2101,-1.2101,-1.2101,-1.2101,-1.2101,-1.2101,-1.2101,-1.2101,-1.2101,-1.2101,-1.2076,-1.2076,-1.2076,-1.2101,-1.2076,-1.2002,-1.1852,-1.1448,-1.1049,-1.059,-1.015,-0.981,-0.9618,-0.9543,-0.9784,-1.0342,-1.0522,-1.09,-1.1473,-1.1623,-1.1521,-1.1195,-1.1171,-1.0826,-1.0309,-1.0309,-1.047,-1.0676,-1.0699,-1.0863,-1.1076,-1.1021,-1.0998,-1.0938,-1.0537,-1.0341,-1.0231,-0.9896,-0.9749,-0.9703,-0.9703,-0.9703,-0.9703,-0.9703,-0.9703,-0.9703,-0.9703,-0.9703,-0.9606,-0.9267,-0.9184,-0.8966,-0.8205,-0.7895,-0.7671,-0.7394,-0.702,-0.6793,-0.6931,-0.6495,-0.6137,-0.6141,-0.5795,-0.5531,-0.5467,-0.5463,-0.5463,-0.5463,-0.5463,-0.5463,-0.5463,-0.5485,-0.5358,-0.5069,-0.4879,-0.4572,-0.4164,-0.3982,-0.376,-0.3469,-0.3467,-0.345,-0.345,-0.3342,-0.3278,-0.3278,-0.3227,-0.3194,-0.3194,-0.3192,-0.3192,-0.3175,-0.3159,-0.3159,-0.314,-0.3074,-0.2973,-0.2803,-0.2558,-0.2279,-0.1997,-1.2101,-1.2101,-1.2101,-1.2101,-1.2101,-1.2101,-1.2101,-1.2101,-1.2101,-1.2101,-1.2101,-1.2101,-1.2101,-1.2101,-1.2047,-1.1952,-1.1923,-1.1977,-1.2101,-1.1997,-1.1823,-1.1573,-1.1171,-1.0688,-1.0128,-0.9706,-0.9577,-0.9766,-0.9866,-1.0102,-1.047,-1.0845,-1.1124,-1.1347,-1.1603,-1.1667,-1.161,-1.149,-1.1376,-1.127,-1.127,-1.1368,-1.1521,-1.1639,-1.179,-1.1866,-1.1536,-1.1412,-1.1352,-1.0929,-1.0571,-1.0282,-1.0222,-0.9969,-0.9703,-0.9703,-0.9703,-0.9703,-0.9703,-0.9703,-0.9703,-0.9703,-0.9703,-0.9684,-0.962,-0.935,-0.8963,-0.8376,-0.7883,-0.7447,-0.7115,-0.6783,-0.6679,-0.7091,-0.671,-0.634,-0.6281,-0.5968,-0.5644,-0.5358,-0.5325,-0.5325,-0.5325,-0.5325,-0.5325,-0.5325,-0.5381,-0.5254,-0.4866,-0.4711,-0.4417,-0.3967,-0.3866,-0.3656,-0.3327,-0.3274,-0.3241,-0.3241,-0.3227,-0.321,-0.321,-0.321,-0.3194,-0.3194,-0.314,-0.3124,-0.3107,-0.2986,-0.2951,-0.2937,-0.2878,-0.2727,-0.2542,-0.2383,-0.2097,-0.1711,-1.2101,-1.2101,-1.2101,-1.2101,-1.2101,-1.2101,-1.2101,-1.2101,-1.2101,-1.2101,-1.2101,-1.2101,-1.2101,-1.2101,-1.2051,-1.1898,-1.1823,-1.1748,-1.1673,-1.1673,-1.1523,-1.1196,-1.0765,-1.0249,-0.9677,-0.9566,-0.9647,-0.9899,-1.0154,-1.0411,-1.0722,-1.0972,-1.1221,-1.1423,-1.1548,-1.1548,-1.1502,-1.1498,-1.1423,-1.1297,-1.1448,-1.1573,-1.1698,-1.1852,-1.1977,-1.2082,-1.1894,-1.183,-1.177,-1.1361,-1.1099,-1.087,-1.0429,-1.0167,-0.9974,-0.9767,-0.9703,-0.9703,-0.9703,-0.9703,-0.9703,-0.9703,-0.9703,-0.9703,-0.9703,-0.9492,-0.9121,-0.8433,-0.8105,-0.7763,-0.7201,-0.6945,-0.6929,-0.7248,-0.6924,-0.661,-0.6579,-0.6153,-0.5766,-0.5548,-0.539,-0.5296,-0.5296,-0.5296,-0.5296,-0.5296,-0.5226,-0.5078,-0.4818,-0.4567,-0.4272,-0.3907,-0.366,-0.3433,-0.3245,-0.321,-0.3194,-0.3194,-0.3194,-0.3194,-0.3194,-0.3159,-0.314,-0.314,-0.2994,-0.2944,-0.2928,-0.2825,-0.279,-0.2775,-0.2644,-0.2462,-0.2264,-0.2047,-0.1729,-0.1327,-1.2101,-1.2101,-1.2101,-1.2101,-1.2101,-1.2101,-1.2101,-1.2101,-1.2101,-1.2101,-1.2101,-1.2101,-1.2101,-1.2076,-1.1977,-1.1823,-1.1648,-1.1423,-1.107,-1.1116,-1.104,-1.0739,-1.0275,-0.9829,-0.9462,-0.9618,-0.9807,-1.008,-1.0389,-1.0645,-1.082,-1.0972,-1.115,-1.1322,-1.1372,-1.1352,-1.1247,-1.1347,-1.1322,-1.1221,-1.1448,-1.1628,-1.1748,-1.1902,-1.1997,-1.2101,-1.2101,-1.2101,-1.2055,-1.1752,-1.1586,-1.1384,-1.0658,-1.039,-1.0217,-0.9818,-0.9703,-0.9703,-0.9703,-0.9703,-0.9703,-0.9703,-0.9703,-0.9703,-0.9703,-0.9599,-0.9255,-0.842,-0.8198,-0.7955,-0.7296,-0.7086,-0.7119,-0.7418,-0.7181,-0.6902,-0.6777,-0.6321,-0.5899,-0.5665,-0.5434,-0.5296,-0.5296,-0.5296,-0.5296,-0.5296,-0.5135,-0.4995,-0.4854,-0.454,-0.4215,-0.3858,-0.349,-0.3262,-0.321,-0.3194,-0.3194,-0.3194,-0.3194,-0.3192,-0.3175,-0.3089,-0.3039,-0.2992,-0.2797,-0.2698,-0.2679,-0.2598,-0.2563,-0.2547,-0.2359,-0.2177,-0.1981,-0.1694,-0.1344,-0.0992,-1.2101,-1.2101,-1.2101,-1.2101,-1.2101,-1.2101,-1.2101,-1.2101,-1.2101,-1.2101,-1.2101,-1.2101,-1.2101,-1.1977,-1.1798,-1.1548,-1.1297,-1.0892,-1.033,-1.0176,-1.015,-1.0253,-0.9755,-0.9491,-0.9588,-0.9832,-1.0076,-1.0269,-1.0543,-1.062,-1.0543,-1.0794,-1.0871,-1.0773,-1.1023,-1.1124,-1.1124,-1.1124,-1.1247,-1.1473,-1.1628,-1.1778,-1.1902,-1.2022,-1.2101,-1.2101,-1.2101,-1.2101,-1.2096,-1.2069,-1.1811,-1.1407,-1.098,-1.0606,-1.0217,-0.9818,-0.9703,-0.9703,-0.9703,-0.9703,-0.9703,-0.9703,-0.9703,-0.9703,-0.9703,-0.9599,-0.9235,-0.8308,-0.7924,-0.7608,-0.7191,-0.6902,-0.6946,-0.7568,-0.7502,-0.718,-0.6682,-0.641,-0.6056,-0.5488,-0.5345,-0.5296,-0.5296,-0.5296,-0.5296,-0.5296,-0.5223,-0.5131,-0.4992,-0.473,-0.4315,-0.3737,-0.3442,-0.3262,-0.321,-0.3194,-0.3194,-0.3194,-0.3194,-0.3175,-0.3107,-0.297,-0.2856,-0.2712,-0.251,-0.2391,-0.2323,-0.2197,-0.2149,-0.2132,-0.1996,-0.1845,-0.1693,-0.1362,-0.106,-0.0757,-1.2101,-1.2022,-1.1977,-1.1977,-1.1902,-1.1877,-1.1952,-1.1977,-1.2002,-1.2081,-1.2026,-1.1977,-1.1977,-1.1773,-1.1548,-1.1272,-1.0888,-1.0446,-0.998,-0.9677,-0.9524,-0.9577,-0.9465,-0.9413,-0.9488,-0.9943,-1.0213,-1.0294,-1.0496,-1.0492,-1.0308,-1.0407,-1.0514,-1.0569,-1.0773,-1.0896,-1.0972,-1.1074,-1.12,-1.1398,-1.1623,-1.1773,-1.1898,-1.2051,-1.2101,-1.2101,-1.2101,-1.2101,-1.2101,-1.2101,-1.2,-1.1807,-1.1398,-1.0989,-1.053,-0.9891,-0.9703,-0.9703,-0.9703,-0.9703,-0.9703,-0.9703,-0.9703,-0.9703,-0.9703,-0.9525,-0.9182,-0.8547,-0.8097,-0.7671,-0.7186,-0.6913,-0.6867,-0.7159,-0.7143,-0.6998,-0.676,-0.6417,-0.6041,-0.5688,-0.5443,-0.5296,-0.5296,-0.5296,-0.5296,-0.5296,-0.5242,-0.5144,-0.5011,-0.4634,-0.4202,-0.3719,-0.352,-0.3356,-0.321,-0.3194,-0.3194,-0.3194,-0.3159,-0.3089,-0.297,-0.2755,-0.2608,-0.2492,-0.2261,-0.2111,-0.2043,-0.1911,-0.1828,-0.1777,-0.1681,-0.1547,-0.1362,-0.106,-0.0706,-0.0319,-1.1972,-1.1877,-1.1803,-1.1828,-1.1728,-1.1698,-1.1873,-1.1902,-1.1923,-1.2026,-1.1952,-1.1877,-1.1773,-1.1548,-1.1247,-1.0918,-1.0476,-1.0032,-0.9636,-0.9286,-0.9084,-0.9084,-0.9237,-0.9335,-0.9335,-0.9862,-1.0124,-1.0073,-1.0176,-1.0124,-0.9936,-0.9936,-1.0073,-1.0286,-1.0462,-1.0693,-1.0968,-1.1099,-1.1301,-1.1498,-1.1703,-1.1848,-1.1972,-1.2051,-1.2101,-1.2101,-1.2101,-1.2101,-1.2101,-1.2101,-1.2101,-1.2032,-1.1637,-1.1136,-1.0588,-0.9896,-0.9703,-0.9703,-0.9703,-0.9703,-0.9703,-0.9703,-0.9703,-0.9703,-0.9703,-0.9501,-0.9154,-0.867,-0.815,-0.7658,-0.7234,-0.6933,-0.6803,-0.7024,-0.6989,-0.6882,-0.6734,-0.6332,-0.5963,-0.5698,-0.5456,-0.5296,-0.5296,-0.5296,-0.5296,-0.5296,-0.5242,-0.5112,-0.4877,-0.4489,-0.4086,-0.3705,-0.3567,-0.3401,-0.321,-0.3194,-0.3192,-0.3175,-0.3072,-0.2937,-0.277,-0.2543,-0.2361,-0.2225,-0.2011,-0.1863,-0.1763,-0.1679,-0.1577,-0.1494,-0.1414,-0.1263,-0.106,-0.0757,-0.0386,0.0,-1.1698,-1.1603,-1.1548,-1.1673,-1.1573,-1.1603,-1.1848,-1.1902,-1.1902,-1.1902,-1.1902,-1.1798,-1.1523,-1.1247,-1.0888,-1.0425,-1.0028,-0.9614,-0.9211,-0.8959,-0.8808,-0.8808,-0.9057,-0.9211,-0.9211,-0.9588,-0.9736,-0.9588,-0.9588,-0.954,-0.9387,-0.9387,-0.9547,-0.9821,-1.0073,-1.0535,-1.1099,-1.1247,-1.1523,-1.1902,-1.1902,-1.1977,-1.2101,-1.2101,-1.2101,-1.2101,-1.2101,-1.2101,-1.2101,-1.2101,-1.2101,-1.2032,-1.1608,-1.0952,-1.0238,-0.9818,-0.9703,-0.9703,-0.9703,-0.9703,-0.9703,-0.9703,-0.9703,-0.9703,-0.9703,-0.9501,-0.9154,-0.8608,-0.7978,-0.7469,-0.7332,-0.6927,-0.6777,-0.7302,-0.7169,-0.6879,-0.6541,-0.6209,-0.5843,-0.5455,-0.5347,-0.5296,-0.5296,-0.5296,-0.5296,-0.5296,-0.5242,-0.5014,-0.4615,-0.4336,-0.4051,-0.3705,-0.3567,-0.3401,-0.321,-0.3194,-0.3159,-0.3105,-0.297,-0.2755,-0.2492,-0.2367,-0.215,-0.1896,-0.176,-0.163,-0.1499,-0.1499,-0.1415,-0.1279,-0.1144,-0.1009,-0.0841,-0.0454,-0.0134,0.0168,-1.1272,-1.1099,-1.0972,-1.1124,-1.1099,-1.1175,-1.1448,-1.1548,-1.1623,-1.1623,-1.1448,-1.1247,-1.0972,-1.0561,-1.0198,-0.9877,-0.9566,-0.9237,-0.8933,-0.8831,-0.8808,-0.8808,-0.8959,-0.9061,-0.9061,-0.9361,-0.9462,-0.9312,-0.9312,-0.926,-0.911,-0.9211,-0.9391,-0.9673,-1.0102,-1.059,-1.1099,-1.1247,-1.1523,-1.1902,-1.1902,-1.1977,-1.2101,-1.2101,-1.2101,-1.2101,-1.2101,-1.2101,-1.2101,-1.2101,-1.2101,-1.1981,-1.1288,-1.0902,-1.0597,-0.99,-0.9703,-0.9703,-0.9703,-0.9703,-0.9703,-0.9703,-0.9703,-0.9703,-0.9703,-0.9501,-0.9233,-0.9024,-0.846,-0.7914,-0.7628,-0.7237,-0.6918,-0.6855,-0.665,-0.6425,-0.6177,-0.5855,-0.5583,-0.5428,-0.5347,-0.5296,-0.5296,-0.5296,-0.5296,-0.5296,-0.5058,-0.4752,-0.4339,-0.4113,-0.3856,-0.3567,-0.3424,-0.3309,-0.321,-0.3194,-0.3159,-0.3089,-0.2876,-0.2643,-0.2424,-0.2146,-0.1929,-0.176,-0.1614,-0.1481,-0.1347,-0.1263,-0.1144,-0.1009,-0.0925,-0.0773,-0.0571,-0.0218,0.0084,0.037,-1.0676,-1.0498,-1.0403,-1.0586,-1.0612,-1.0739,-1.1095,-1.1247,-1.1322,-1.1276,-1.1074,-1.082,-1.0462,-1.0073,-0.9729,-0.9462,-0.9185,-0.8982,-0.8804,-0.8808,-0.8808,-0.8808,-0.8883,-0.8933,-0.8933,-0.9133,-0.9185,-0.9035,-0.9035,-0.9008,-0.8933,-0.9061,-0.9286,-0.9614,-1.0073,-1.059,-1.1196,-1.1372,-1.1648,-1.1977,-1.1977,-1.2026,-1.2101,-1.2101,-1.2101,-1.2101,-1.2101,-1.2101,-1.2101,-1.2101,-1.2101,-1.1958,-1.1141,-1.0901,-1.0749,-0.9932,-0.9703,-0.9703,-0.9703,-0.9703,-0.9703,-0.9703,-0.9703,-0.9703,-0.9703,-0.9501,-0.9284,-0.9217,-0.8692,-0.8186,-0.805,-0.7542,-0.7069,-0.6871,-0.6499,-0.6145,-0.5948,-0.5651,-0.5439,-0.5366,-0.5331,-0.5296,-0.5296,-0.5296,-0.5249,-0.5109,-0.4848,-0.4505,-0.4097,-0.3923,-0.3698,-0.3422,-0.3344,-0.3262,-0.3159,-0.3107,-0.3039,-0.2977,-0.2711,-0.246,-0.2226,-0.1927,-0.1728,-0.1612,-0.1447,-0.1296,-0.1127,-0.1026,-0.0892,-0.074,-0.0672,-0.0521,-0.0302,0.0,0.0286,0.0555,-0.9969,-0.984,-0.9821,-1.0069,-1.015,-1.03,-1.0739,-1.0922,-1.0968,-1.0845,-1.0688,-1.0437,-0.9973,-0.9703,-0.9439,-0.9185,-0.8933,-0.8808,-0.8808,-0.8808,-0.8808,-0.8808,-0.8808,-0.8808,-0.8808,-0.8906,-0.8933,-0.8808,-0.8808,-0.8808,-0.8808,-0.8933,-0.9211,-0.9614,-1.0013,-1.0608,-1.1322,-1.1603,-1.1848,-1.2101,-1.2101,-1.2101,-1.2101,-1.2101,-1.2101,-1.2101,-1.2101,-1.2101,-1.2101,-1.2101,-1.2082,-1.1908,-1.1127,-1.0878,-1.0698,-0.9923,-0.9703,-0.9703,-0.9703,-0.9703,-0.9703,-0.9703,-0.9703,-0.9703,-0.9703,-0.9501,-0.9284,-0.9217,-0.8761,-0.8398,-0.8493,-0.7811,-0.724,-0.7206,-0.657,-0.601,-0.5827,-0.5556,-0.5366,-0.5312,-0.5296,-0.5296,-0.5296,-0.5281,-0.5138,-0.479,-0.4586,-0.4288,-0.3888,-0.3733,-0.3541,-0.3297,-0.3278,-0.321,-0.3089,-0.2937,-0.284,-0.2766,-0.2494,-0.2243,-0.1981,-0.1711,-0.1545,-0.1466,-0.1263,-0.106,-0.0875,-0.079,-0.0639,-0.0454,-0.0386,-0.0235,-0.0017,0.0235,0.0487,0.0723,-0.9536,-0.9413,-0.9387,-0.9547,-0.9747,-0.9954,-1.015,-1.0304,-1.0356,-1.0201,-0.9988,-0.9725,-0.9394,-0.9237,-0.9061,-0.891,-0.8831,-0.8808,-0.8808,-0.8808,-0.8808,-0.8808,-0.8808,-0.8808,-0.8808,-0.8834,-0.8834,-0.8808,-0.8808,-0.8808,-0.8808,-0.8933,-0.9211,-0.9614,-1.0013,-1.0608,-1.1322,-1.1603,-1.1848,-1.2101,-1.2101,-1.2101,-1.2101,-1.2101,-1.2101,-1.2101,-1.2101,-1.2101,-1.2101,-1.2101,-1.1899,-1.155,-1.1062,-1.0689,-1.0323,-0.9841,-0.9703,-0.9703,-0.9703,-0.9703,-0.9703,-0.9703,-0.9703,-0.9703,-0.9703,-0.9501,-0.9299,-0.9284,-0.9047,-0.8786,-0.8614,-0.8082,-0.7543,-0.7186,-0.6455,-0.5893,-0.5748,-0.5493,-0.5312,-0.5296,-0.5296,-0.5296,-0.5296,-0.5154,-0.4925,-0.4596,-0.4331,-0.4042,-0.3681,-0.349,-0.3344,-0.3227,-0.3175,-0.3072,-0.2951,-0.2706,-0.2577,-0.256,-0.2296,-0.2081,-0.1913,-0.1647,-0.1448,-0.1331,-0.1077,-0.0875,-0.0723,-0.0504,-0.0286,-0.0101,-0.0034,0.0118,0.0319,0.0538,0.0689,0.0807,-0.9164,-0.9057,-0.9057,-0.9185,-0.9387,-0.9566,-0.9703,-0.9832,-0.9858,-0.9732,-0.9543,-0.9335,-0.9136,-0.8985,-0.8883,-0.8808,-0.8808,-0.8808,-0.8808,-0.8808,-0.8808,-0.8808,-0.8808,-0.8808,-0.8808,-0.8808,-0.8808,-0.8808,-0.8808,-0.8808,-0.8808,-0.8933,-0.9185,-0.9514,-0.9914,-1.0484,-1.1124,-1.1398,-1.1698,-1.2002,-1.2002,-1.2051,-1.2101,-1.2101,-1.2101,-1.2101,-1.2101,-1.2101,-1.2101,-1.2101,-1.1839,-1.1439,-1.1035,-1.0629,-1.0217,-0.9818,-0.9703,-0.9703,-0.9703,-0.9703,-0.9683,-0.9623,-0.9603,-0.9623,-0.9683,-0.955,-0.9397,-0.9397,-0.9257,-0.9091,-0.895,-0.834,-0.7734,-0.7398,-0.6529,-0.5831,-0.5627,-0.5426,-0.5296,-0.5296,-0.5296,-0.5265,-0.5166,-0.4941,-0.4666,-0.4328,-0.4121,-0.3847,-0.3473,-0.336,-0.3262,-0.3159,-0.3124,-0.2973,-0.2706,-0.254,-0.2376,-0.2211,-0.2079,-0.1913,-0.1743,-0.148,-0.1263,-0.1094,-0.079,-0.0571,-0.0386,-0.0118,0.0067,0.0202,0.0269,0.0386,0.0555,0.0689,0.0824,0.0959,-0.9032,-0.8958,-0.8981,-0.9112,-0.9239,-0.9369,-0.9468,-0.9524,-0.9518,-0.9413,-0.9243,-0.9087,-0.8982,-0.8857,-0.8808,-0.8808,-0.8808,-0.8808,-0.8808,-0.8808,-0.8808,-0.8808,-0.8808,-0.8808,-0.8808,-0.8808,-0.8808,-0.8808,-0.8808,-0.8808,-0.8808,-0.8906,-0.911,-0.9387,-0.9758,-1.0249,-1.0841,-1.115,-1.1498,-1.1877,-1.1898,-1.1977,-1.2101,-1.2101,-1.2101,-1.2101,-1.2101,-1.2101,-1.2101,-1.2101,-1.1793,-1.1343,-1.1016,-1.0588,-1.0125,-0.9799,-0.9703,-0.9703,-0.9703,-0.9703,-0.9663,-0.9539,-0.9499,-0.9524,-0.9614,-0.9554,-0.9475,-0.9475,-0.9377,-0.9299,-0.9279,-0.8564,-0.7882,-0.7597,-0.6656,-0.5863,-0.5533,-0.5372,-0.5296,-0.5296,-0.5265,-0.5166,-0.496,-0.4717,-0.4428,-0.4094,-0.3926,-0.3681,-0.3327,-0.3294,-0.3227,-0.3107,-0.3058,-0.2858,-0.2492,-0.2374,-0.2159,-0.1845,-0.1812,-0.1712,-0.1543,-0.1277,-0.1027,-0.0807,-0.0487,-0.0235,-0.0017,0.0235,0.0386,0.0471,0.0538,0.0655,0.0773,0.0824,0.0959,0.1111,-0.9601,-0.9566,-0.9591,-0.9591,-0.9702,-0.9813,-0.9842,-0.9615,-0.9415,-0.9391,-0.9089,-0.886,-0.8834,-0.8804,-0.8808,-0.8808,-0.8808,-0.8808,-0.8808,-0.8808,-0.8808,-0.8808,-0.8808,-0.8808,-0.8808,-0.8808,-0.8808,-0.8808,-0.8808,-0.8808,-0.8808,-0.8808,-0.8982,-0.9237,-0.9517,-0.9958,-1.0506,-1.0943,-1.1347,-1.1748,-1.1848,-1.1977,-1.2101,-1.2101,-1.2101,-1.2101,-1.2101,-1.2101,-1.2101,-1.2101,-1.1595,-1.0975,-1.0919,-1.0399,-0.9772,-0.9716,-0.9703,-0.9703,-0.9703,-0.9703,-0.9663,-0.9539,-0.9499,-0.9475,-0.9372,-0.9344,-0.9324,-0.9324,-0.9324,-0.9284,-0.9217,-0.8684,-0.8048,-0.7438,-0.6719,-0.6056,-0.5483,-0.5347,-0.5296,-0.5296,-0.5151,-0.4941,-0.4682,-0.4511,-0.4285,-0.3956,-0.3744,-0.3536,-0.3313,-0.3245,-0.3175,-0.3107,-0.2878,-0.2644,-0.2424,-0.2111,-0.186,-0.1642,-0.1462,-0.1363,-0.133,-0.106,-0.0807,-0.0538,-0.0269,0.0,0.0252,0.0403,0.0588,0.0757,0.0824,0.0925,0.1043,0.106,0.1077,0.1111,-0.9716,-0.9712,-0.9712,-0.9712,-0.9741,-0.9738,-0.9541,-0.9375,-0.923,-0.9096,-0.8911,-0.8808,-0.8808,-0.8808,-0.8808,-0.8808,-0.8808,-0.8808,-0.8808,-0.8808,-0.8808,-0.8808,-0.8808,-0.8808,-0.8808,-0.8808,-0.8808,-0.8808,-0.8808,-0.8808,-0.8808,-0.8808,-0.891,-0.911,-0.9286,-0.9644,-1.0109,-1.0561,-1.1049,-1.1498,-1.1698,-1.1898,-1.2101,-1.2101,-1.2101,-1.2101,-1.2101,-1.2101,-1.2101,-1.2101,-1.171,-1.1191,-1.0975,-1.0488,-0.9967,-0.9667,-0.9583,-0.9579,-0.9506,-0.9481,-0.9457,-0.9346,-0.933,-0.9306,-0.9172,-0.9224,-0.9324,-0.9397,-0.9461,-0.9477,-0.9288,-0.88,-0.8163,-0.7428,-0.6744,-0.609,-0.549,-0.5347,-0.5261,-0.5151,-0.4982,-0.4752,-0.4403,-0.4215,-0.4005,-0.3693,-0.352,-0.3375,-0.3245,-0.3175,-0.3076,-0.2944,-0.2711,-0.2462,-0.2178,-0.1996,-0.1779,-0.1547,-0.1296,-0.1144,-0.106,-0.0807,-0.0538,-0.0269,0.0,0.0218,0.037,0.0588,0.0723,0.0807,0.0959,0.1043,0.1094,0.1094,0.1127,0.1179]}]]